<?xml version="1.0" encoding="UTF-8" standalone="no" ?>
<gpx xmlns="http://www.topografix.com/GPX/1/1" xmlns:xsi="http://www.w3.org/2001/XMLSchema-instance" xsi:schemaLocation="http://www.topografix.com/GPX/1/1 http://www.topografix.com/GPX/1/1/gpx.xsd" version="1.1" creator="VisuGPX - https://www.visugpx.com">
  <metadata>
    <name>Col de l'Arc depuis Lans (Vercors)</name>
  </metadata>
  <wpt lat="45.10709" lon="5.60374">
    <ele>1273.7</ele>
    <name><![CDATA[001]]></name>
    <desc><![CDATA[01-AVR-10]]></desc>
  </wpt>
  <wpt lat="45.09473" lon="5.60279">
    <ele>1440.8</ele>
    <name><![CDATA[002]]></name>
    <desc><![CDATA[01-AVR-10]]></desc>
  </wpt>
  <wpt lat="45.09174" lon="5.60101">
    <ele>1444.9</ele>
    <name><![CDATA[003]]></name>
    <desc><![CDATA[01-AVR-10]]></desc>
  </wpt>
  <wpt lat="45.08312" lon="5.61343">
    <ele>1730.6</ele>
    <name><![CDATA[004]]></name>
    <desc><![CDATA[01-AVR-10]]></desc>
  </wpt>
  <trk>
    <name><![CDATA[Col de l'Arc depuis Lans (Vercors)]]></name>
    <extensions>
      <line xmlns="http://www.topografix.com/GPX/gpx_style/0/2">
        <color>0000FF</color>
        <width>4</width>
      </line>
    </extensions>
    <trkseg>
      <trkpt lat="45.10646" lon="5.60402">
        <ele>1360.883545</ele>
        <time>2010-04-01T10:08:31Z</time>
      </trkpt>
      <trkpt lat="45.10645" lon="5.60401">
        <ele>1357.999756</ele>
        <time>2010-04-01T10:08:34Z</time>
      </trkpt>
      <trkpt lat="45.10642" lon="5.60393">
        <ele>1343.099121</ele>
        <time>2010-04-01T10:08:41Z</time>
      </trkpt>
      <trkpt lat="45.10642" lon="5.60384">
        <ele>1327.718018</ele>
        <time>2010-04-01T10:08:45Z</time>
      </trkpt>
      <trkpt lat="45.10638" lon="5.60377">
        <ele>1310.89502</ele>
        <time>2010-04-01T10:08:52Z</time>
      </trkpt>
      <trkpt lat="45.10634" lon="5.60373">
        <ele>1302.723633</ele>
        <time>2010-04-01T10:08:58Z</time>
      </trkpt>
      <trkpt lat="45.10631" lon="5.60374">
        <ele>1305.607666</ele>
        <time>2010-04-01T10:09:01Z</time>
      </trkpt>
      <trkpt lat="45.10627" lon="5.60374">
        <ele>1305.607666</ele>
        <time>2010-04-01T10:09:06Z</time>
      </trkpt>
      <trkpt lat="45.10622" lon="5.60375">
        <ele>1308.491699</ele>
        <time>2010-04-01T10:09:12Z</time>
      </trkpt>
      <trkpt lat="45.10616" lon="5.60375">
        <ele>1307.530273</ele>
        <time>2010-04-01T10:09:18Z</time>
      </trkpt>
      <trkpt lat="45.10611" lon="5.60372">
        <ele>1305.126953</ele>
        <time>2010-04-01T10:09:25Z</time>
      </trkpt>
      <trkpt lat="45.10605" lon="5.60372">
        <ele>1305.607666</ele>
        <time>2010-04-01T10:09:31Z</time>
      </trkpt>
      <trkpt lat="45.10598" lon="5.60374">
        <ele>1308.491699</ele>
        <time>2010-04-01T10:09:38Z</time>
      </trkpt>
      <trkpt lat="45.1059" lon="5.60374">
        <ele>1309.453125</ele>
        <time>2010-04-01T10:09:46Z</time>
      </trkpt>
      <trkpt lat="45.10584" lon="5.60374">
        <ele>1309.933594</ele>
        <time>2010-04-01T10:09:53Z</time>
      </trkpt>
      <trkpt lat="45.10578" lon="5.60371">
        <ele>1308.01123</ele>
        <time>2010-04-01T10:10:01Z</time>
      </trkpt>
      <trkpt lat="45.10572" lon="5.60369">
        <ele>1308.01123</ele>
        <time>2010-04-01T10:10:08Z</time>
      </trkpt>
      <trkpt lat="45.10567" lon="5.60368">
        <ele>1308.01123</ele>
        <time>2010-04-01T10:10:14Z</time>
      </trkpt>
      <trkpt lat="45.10561" lon="5.60367">
        <ele>1309.933594</ele>
        <time>2010-04-01T10:10:21Z</time>
      </trkpt>
      <trkpt lat="45.10555" lon="5.60364">
        <ele>1308.01123</ele>
        <time>2010-04-01T10:10:29Z</time>
      </trkpt>
      <trkpt lat="45.10549" lon="5.60362">
        <ele>1308.01123</ele>
        <time>2010-04-01T10:10:36Z</time>
      </trkpt>
      <trkpt lat="45.10543" lon="5.60362">
        <ele>1308.972412</ele>
        <time>2010-04-01T10:10:43Z</time>
      </trkpt>
      <trkpt lat="45.10536" lon="5.60361">
        <ele>1308.972412</ele>
        <time>2010-04-01T10:10:50Z</time>
      </trkpt>
      <trkpt lat="45.1053" lon="5.60361">
        <ele>1310.414307</ele>
        <time>2010-04-01T10:10:57Z</time>
      </trkpt>
      <trkpt lat="45.10526" lon="5.6036">
        <ele>1310.89502</ele>
        <time>2010-04-01T10:11:02Z</time>
      </trkpt>
      <trkpt lat="45.10521" lon="5.60358">
        <ele>1312.336914</ele>
        <time>2010-04-01T10:11:09Z</time>
      </trkpt>
      <trkpt lat="45.10515" lon="5.60359">
        <ele>1313.29834</ele>
        <time>2010-04-01T10:11:15Z</time>
      </trkpt>
      <trkpt lat="45.10512" lon="5.60357">
        <ele>1313.778809</ele>
        <time>2010-04-01T10:11:19Z</time>
      </trkpt>
      <trkpt lat="45.10507" lon="5.60357">
        <ele>1314.740234</ele>
        <time>2010-04-01T10:11:24Z</time>
      </trkpt>
      <trkpt lat="45.10503" lon="5.60355">
        <ele>1315.220947</ele>
        <time>2010-04-01T10:11:30Z</time>
      </trkpt>
      <trkpt lat="45.10498" lon="5.60352">
        <ele>1314.740234</ele>
        <time>2010-04-01T10:11:37Z</time>
      </trkpt>
      <trkpt lat="45.10494" lon="5.6035">
        <ele>1314.259521</ele>
        <time>2010-04-01T10:11:44Z</time>
      </trkpt>
      <trkpt lat="45.10494" lon="5.60351">
        <ele>1314.740234</ele>
        <time>2010-04-01T10:11:49Z</time>
      </trkpt>
      <trkpt lat="45.10488" lon="5.60351">
        <ele>1316.662842</ele>
        <time>2010-04-01T10:11:55Z</time>
      </trkpt>
      <trkpt lat="45.10484" lon="5.60348">
        <ele>1314.740234</ele>
        <time>2010-04-01T10:12:01Z</time>
      </trkpt>
      <trkpt lat="45.10481" lon="5.60349">
        <ele>1313.778809</ele>
        <time>2010-04-01T10:12:05Z</time>
      </trkpt>
      <trkpt lat="45.10476" lon="5.60349">
        <ele>1313.778809</ele>
        <time>2010-04-01T10:12:11Z</time>
      </trkpt>
      <trkpt lat="45.1047" lon="5.60349">
        <ele>1314.740234</ele>
        <time>2010-04-01T10:12:17Z</time>
      </trkpt>
      <trkpt lat="45.10465" lon="5.60351">
        <ele>1318.104736</ele>
        <time>2010-04-01T10:12:22Z</time>
      </trkpt>
      <trkpt lat="45.10458" lon="5.60353">
        <ele>1321.949951</ele>
        <time>2010-04-01T10:12:29Z</time>
      </trkpt>
      <trkpt lat="45.1045" lon="5.60355">
        <ele>1325.79541</ele>
        <time>2010-04-01T10:12:36Z</time>
      </trkpt>
      <trkpt lat="45.10449" lon="5.60354">
        <ele>1324.834229</ele>
        <time>2010-04-01T10:12:42Z</time>
      </trkpt>
      <trkpt lat="45.10446" lon="5.60353">
        <ele>1323.872559</ele>
        <time>2010-04-01T10:12:51Z</time>
      </trkpt>
      <trkpt lat="45.10441" lon="5.60353">
        <ele>1323.39209</ele>
        <time>2010-04-01T10:12:56Z</time>
      </trkpt>
      <trkpt lat="45.10433" lon="5.60352">
        <ele>1323.39209</ele>
        <time>2010-04-01T10:13:04Z</time>
      </trkpt>
      <trkpt lat="45.10424" lon="5.60355">
        <ele>1327.237549</ele>
        <time>2010-04-01T10:13:11Z</time>
      </trkpt>
      <trkpt lat="45.10417" lon="5.60356">
        <ele>1329.640625</ele>
        <time>2010-04-01T10:13:17Z</time>
      </trkpt>
      <trkpt lat="45.10412" lon="5.60356">
        <ele>1329.640625</ele>
        <time>2010-04-01T10:13:22Z</time>
      </trkpt>
      <trkpt lat="45.10407" lon="5.60356">
        <ele>1329.159912</ele>
        <time>2010-04-01T10:13:26Z</time>
      </trkpt>
      <trkpt lat="45.10404" lon="5.60356">
        <ele>1329.640625</ele>
        <time>2010-04-01T10:13:28Z</time>
      </trkpt>
      <trkpt lat="45.10399" lon="5.60354">
        <ele>1328.679443</ele>
        <time>2010-04-01T10:13:34Z</time>
      </trkpt>
      <trkpt lat="45.1039" lon="5.60354">
        <ele>1330.121338</ele>
        <time>2010-04-01T10:13:42Z</time>
      </trkpt>
      <trkpt lat="45.10386" lon="5.6035">
        <ele>1329.159912</ele>
        <time>2010-04-01T10:13:48Z</time>
      </trkpt>
      <trkpt lat="45.1038" lon="5.60349">
        <ele>1330.121338</ele>
        <time>2010-04-01T10:13:54Z</time>
      </trkpt>
      <trkpt lat="45.10375" lon="5.60348">
        <ele>1330.602051</ele>
        <time>2010-04-01T10:14:00Z</time>
      </trkpt>
      <trkpt lat="45.10368" lon="5.60347">
        <ele>1332.524658</ele>
        <time>2010-04-01T10:14:07Z</time>
      </trkpt>
      <trkpt lat="45.10364" lon="5.60345">
        <ele>1333.005127</ele>
        <time>2010-04-01T10:14:13Z</time>
      </trkpt>
      <trkpt lat="45.1036" lon="5.60345">
        <ele>1333.966553</ele>
        <time>2010-04-01T10:14:17Z</time>
      </trkpt>
      <trkpt lat="45.10357" lon="5.60342">
        <ele>1332.043945</ele>
        <time>2010-04-01T10:14:22Z</time>
      </trkpt>
      <trkpt lat="45.10354" lon="5.60338">
        <ele>1330.121338</ele>
        <time>2010-04-01T10:14:27Z</time>
      </trkpt>
      <trkpt lat="45.1035" lon="5.60336">
        <ele>1330.121338</ele>
        <time>2010-04-01T10:14:32Z</time>
      </trkpt>
      <trkpt lat="45.10345" lon="5.60336">
        <ele>1332.043945</ele>
        <time>2010-04-01T10:14:36Z</time>
      </trkpt>
      <trkpt lat="45.10339" lon="5.60336">
        <ele>1333.966553</ele>
        <time>2010-04-01T10:14:41Z</time>
      </trkpt>
      <trkpt lat="45.10333" lon="5.60335">
        <ele>1336.850342</ele>
        <time>2010-04-01T10:14:48Z</time>
      </trkpt>
      <trkpt lat="45.10327" lon="5.60332">
        <ele>1337.811768</ele>
        <time>2010-04-01T10:14:55Z</time>
      </trkpt>
      <trkpt lat="45.10324" lon="5.6033">
        <ele>1337.811768</ele>
        <time>2010-04-01T10:14:59Z</time>
      </trkpt>
      <trkpt lat="45.10321" lon="5.60331">
        <ele>1340.215332</ele>
        <time>2010-04-01T10:15:01Z</time>
      </trkpt>
      <trkpt lat="45.10314" lon="5.60331">
        <ele>1343.579834</ele>
        <time>2010-04-01T10:15:08Z</time>
      </trkpt>
      <trkpt lat="45.1031" lon="5.60332">
        <ele>1345.502441</ele>
        <time>2010-04-01T10:15:11Z</time>
      </trkpt>
      <trkpt lat="45.10303" lon="5.60337">
        <ele>1351.270264</ele>
        <time>2010-04-01T10:15:17Z</time>
      </trkpt>
      <trkpt lat="45.10294" lon="5.60341">
        <ele>1353.673584</ele>
        <time>2010-04-01T10:15:24Z</time>
      </trkpt>
      <trkpt lat="45.1029" lon="5.60339">
        <ele>1350.789551</ele>
        <time>2010-04-01T10:15:29Z</time>
      </trkpt>
      <trkpt lat="45.10282" lon="5.60337">
        <ele>1347.425049</ele>
        <time>2010-04-01T10:15:38Z</time>
      </trkpt>
      <trkpt lat="45.10275" lon="5.6034">
        <ele>1348.866943</ele>
        <time>2010-04-01T10:15:44Z</time>
      </trkpt>
      <trkpt lat="45.10271" lon="5.60337">
        <ele>1347.425049</ele>
        <time>2010-04-01T10:15:50Z</time>
      </trkpt>
      <trkpt lat="45.10266" lon="5.60336">
        <ele>1347.425049</ele>
        <time>2010-04-01T10:15:56Z</time>
      </trkpt>
      <trkpt lat="45.10262" lon="5.60335">
        <ele>1347.425049</ele>
        <time>2010-04-01T10:16:01Z</time>
      </trkpt>
      <trkpt lat="45.10258" lon="5.6033">
        <ele>1344.060547</ele>
        <time>2010-04-01T10:16:07Z</time>
      </trkpt>
      <trkpt lat="45.10257" lon="5.6033">
        <ele>1345.021729</ele>
        <time>2010-04-01T10:16:08Z</time>
      </trkpt>
      <trkpt lat="45.10249" lon="5.60332">
        <ele>1347.905762</ele>
        <time>2010-04-01T10:16:15Z</time>
      </trkpt>
      <trkpt lat="45.10246" lon="5.6033">
        <ele>1347.905762</ele>
        <time>2010-04-01T10:16:19Z</time>
      </trkpt>
      <trkpt lat="45.10242" lon="5.6033">
        <ele>1348.866943</ele>
        <time>2010-04-01T10:16:23Z</time>
      </trkpt>
      <trkpt lat="45.10237" lon="5.60329">
        <ele>1351.270264</ele>
        <time>2010-04-01T10:16:28Z</time>
      </trkpt>
      <trkpt lat="45.10231" lon="5.60328">
        <ele>1353.192871</ele>
        <time>2010-04-01T10:16:35Z</time>
      </trkpt>
      <trkpt lat="45.10227" lon="5.60327">
        <ele>1353.192871</ele>
        <time>2010-04-01T10:16:39Z</time>
      </trkpt>
      <trkpt lat="45.10223" lon="5.60325">
        <ele>1352.231445</ele>
        <time>2010-04-01T10:16:44Z</time>
      </trkpt>
      <trkpt lat="45.10217" lon="5.60322">
        <ele>1354.154297</ele>
        <time>2010-04-01T10:16:52Z</time>
      </trkpt>
      <trkpt lat="45.10213" lon="5.60322">
        <ele>1356.076904</ele>
        <time>2010-04-01T10:16:58Z</time>
      </trkpt>
      <trkpt lat="45.10209" lon="5.60323">
        <ele>1358.960938</ele>
        <time>2010-04-01T10:17:03Z</time>
      </trkpt>
      <trkpt lat="45.10204" lon="5.60319">
        <ele>1357.03833</ele>
        <time>2010-04-01T10:17:11Z</time>
      </trkpt>
      <trkpt lat="45.102" lon="5.60318">
        <ele>1357.03833</ele>
        <time>2010-04-01T10:17:17Z</time>
      </trkpt>
      <trkpt lat="45.10198" lon="5.60321">
        <ele>1357.519043</ele>
        <time>2010-04-01T10:17:23Z</time>
      </trkpt>
      <trkpt lat="45.10195" lon="5.60318">
        <ele>1354.634766</ele>
        <time>2010-04-01T10:17:31Z</time>
      </trkpt>
      <trkpt lat="45.10193" lon="5.60316">
        <ele>1353.673584</ele>
        <time>2010-04-01T10:17:35Z</time>
      </trkpt>
      <trkpt lat="45.10192" lon="5.60312">
        <ele>1352.231445</ele>
        <time>2010-04-01T10:17:40Z</time>
      </trkpt>
      <trkpt lat="45.10189" lon="5.60311">
        <ele>1351.270264</ele>
        <time>2010-04-01T10:17:47Z</time>
      </trkpt>
      <trkpt lat="45.10186" lon="5.60311">
        <ele>1350.789551</ele>
        <time>2010-04-01T10:17:51Z</time>
      </trkpt>
      <trkpt lat="45.10184" lon="5.60311">
        <ele>1350.309082</ele>
        <time>2010-04-01T10:17:55Z</time>
      </trkpt>
      <trkpt lat="45.10182" lon="5.60309">
        <ele>1349.347656</ele>
        <time>2010-04-01T10:18:00Z</time>
      </trkpt>
      <trkpt lat="45.10178" lon="5.60309">
        <ele>1349.347656</ele>
        <time>2010-04-01T10:18:07Z</time>
      </trkpt>
      <trkpt lat="45.10172" lon="5.6031">
        <ele>1350.309082</ele>
        <time>2010-04-01T10:18:15Z</time>
      </trkpt>
      <trkpt lat="45.10167" lon="5.6031">
        <ele>1349.828369</ele>
        <time>2010-04-01T10:18:24Z</time>
      </trkpt>
      <trkpt lat="45.10164" lon="5.60311">
        <ele>1348.866943</ele>
        <time>2010-04-01T10:18:29Z</time>
      </trkpt>
      <trkpt lat="45.10161" lon="5.60311">
        <ele>1348.38623</ele>
        <time>2010-04-01T10:18:35Z</time>
      </trkpt>
      <trkpt lat="45.10157" lon="5.60312">
        <ele>1348.866943</ele>
        <time>2010-04-01T10:18:40Z</time>
      </trkpt>
      <trkpt lat="45.10154" lon="5.60312">
        <ele>1349.828369</ele>
        <time>2010-04-01T10:18:46Z</time>
      </trkpt>
      <trkpt lat="45.10149" lon="5.60311">
        <ele>1350.309082</ele>
        <time>2010-04-01T10:18:54Z</time>
      </trkpt>
      <trkpt lat="45.10145" lon="5.6031">
        <ele>1350.789551</ele>
        <time>2010-04-01T10:19:00Z</time>
      </trkpt>
      <trkpt lat="45.10141" lon="5.6031">
        <ele>1350.789551</ele>
        <time>2010-04-01T10:19:06Z</time>
      </trkpt>
      <trkpt lat="45.10136" lon="5.60311">
        <ele>1350.309082</ele>
        <time>2010-04-01T10:19:14Z</time>
      </trkpt>
      <trkpt lat="45.10131" lon="5.6031">
        <ele>1350.789551</ele>
        <time>2010-04-01T10:19:20Z</time>
      </trkpt>
      <trkpt lat="45.10125" lon="5.6031">
        <ele>1351.270264</ele>
        <time>2010-04-01T10:19:28Z</time>
      </trkpt>
      <trkpt lat="45.1012" lon="5.60311">
        <ele>1352.712158</ele>
        <time>2010-04-01T10:19:34Z</time>
      </trkpt>
      <trkpt lat="45.10114" lon="5.6031">
        <ele>1353.673584</ele>
        <time>2010-04-01T10:19:41Z</time>
      </trkpt>
      <trkpt lat="45.1011" lon="5.6031">
        <ele>1354.154297</ele>
        <time>2010-04-01T10:19:46Z</time>
      </trkpt>
      <trkpt lat="45.10104" lon="5.60309">
        <ele>1353.673584</ele>
        <time>2010-04-01T10:19:52Z</time>
      </trkpt>
      <trkpt lat="45.101" lon="5.60309">
        <ele>1353.673584</ele>
        <time>2010-04-01T10:19:57Z</time>
      </trkpt>
      <trkpt lat="45.10095" lon="5.60308">
        <ele>1353.673584</ele>
        <time>2010-04-01T10:20:03Z</time>
      </trkpt>
      <trkpt lat="45.10089" lon="5.60308">
        <ele>1354.154297</ele>
        <time>2010-04-01T10:20:10Z</time>
      </trkpt>
      <trkpt lat="45.10084" lon="5.60308">
        <ele>1354.634766</ele>
        <time>2010-04-01T10:20:16Z</time>
      </trkpt>
      <trkpt lat="45.1008" lon="5.60307">
        <ele>1354.634766</ele>
        <time>2010-04-01T10:20:22Z</time>
      </trkpt>
      <trkpt lat="45.10075" lon="5.60306">
        <ele>1355.115479</ele>
        <time>2010-04-01T10:20:28Z</time>
      </trkpt>
      <trkpt lat="45.10069" lon="5.60306">
        <ele>1356.076904</ele>
        <time>2010-04-01T10:20:34Z</time>
      </trkpt>
      <trkpt lat="45.10063" lon="5.60306">
        <ele>1355.596191</ele>
        <time>2010-04-01T10:20:41Z</time>
      </trkpt>
      <trkpt lat="45.10057" lon="5.60304">
        <ele>1355.596191</ele>
        <time>2010-04-01T10:20:48Z</time>
      </trkpt>
      <trkpt lat="45.10057" lon="5.60305">
        <ele>1355.115479</ele>
        <time>2010-04-01T10:20:57Z</time>
      </trkpt>
      <trkpt lat="45.10056" lon="5.60309">
        <ele>1357.999756</ele>
        <time>2010-04-01T10:21:06Z</time>
      </trkpt>
      <trkpt lat="45.10053" lon="5.6031">
        <ele>1357.999756</ele>
        <time>2010-04-01T10:21:12Z</time>
      </trkpt>
      <trkpt lat="45.10048" lon="5.60308">
        <ele>1358.480225</ele>
        <time>2010-04-01T10:21:19Z</time>
      </trkpt>
      <trkpt lat="45.10046" lon="5.60307">
        <ele>1358.480225</ele>
        <time>2010-04-01T10:21:23Z</time>
      </trkpt>
      <trkpt lat="45.1004" lon="5.60304">
        <ele>1358.480225</ele>
        <time>2010-04-01T10:21:29Z</time>
      </trkpt>
      <trkpt lat="45.10033" lon="5.60303">
        <ele>1358.480225</ele>
        <time>2010-04-01T10:21:37Z</time>
      </trkpt>
      <trkpt lat="45.10027" lon="5.60303">
        <ele>1358.480225</ele>
        <time>2010-04-01T10:21:44Z</time>
      </trkpt>
      <trkpt lat="45.10021" lon="5.60302">
        <ele>1359.44165</ele>
        <time>2010-04-01T10:21:52Z</time>
      </trkpt>
      <trkpt lat="45.10015" lon="5.603">
        <ele>1359.922119</ele>
        <time>2010-04-01T10:21:59Z</time>
      </trkpt>
      <trkpt lat="45.10009" lon="5.60299">
        <ele>1360.402832</ele>
        <time>2010-04-01T10:22:06Z</time>
      </trkpt>
      <trkpt lat="45.10004" lon="5.60298">
        <ele>1360.883545</ele>
        <time>2010-04-01T10:22:12Z</time>
      </trkpt>
      <trkpt lat="45.1" lon="5.60297">
        <ele>1362.325439</ele>
        <time>2010-04-01T10:22:18Z</time>
      </trkpt>
      <trkpt lat="45.09993" lon="5.60296">
        <ele>1363.767334</ele>
        <time>2010-04-01T10:22:26Z</time>
      </trkpt>
      <trkpt lat="45.09988" lon="5.60295">
        <ele>1364.72876</ele>
        <time>2010-04-01T10:22:32Z</time>
      </trkpt>
      <trkpt lat="45.09983" lon="5.60295">
        <ele>1365.690186</ele>
        <time>2010-04-01T10:22:38Z</time>
      </trkpt>
      <trkpt lat="45.09979" lon="5.60294">
        <ele>1366.651367</ele>
        <time>2010-04-01T10:22:44Z</time>
      </trkpt>
      <trkpt lat="45.09974" lon="5.60294">
        <ele>1367.612549</ele>
        <time>2010-04-01T10:22:50Z</time>
      </trkpt>
      <trkpt lat="45.0997" lon="5.60293">
        <ele>1368.093262</ele>
        <time>2010-04-01T10:22:55Z</time>
      </trkpt>
      <trkpt lat="45.09967" lon="5.60293">
        <ele>1369.054688</ele>
        <time>2010-04-01T10:23:00Z</time>
      </trkpt>
      <trkpt lat="45.09962" lon="5.60293">
        <ele>1369.5354</ele>
        <time>2010-04-01T10:23:05Z</time>
      </trkpt>
      <trkpt lat="45.0996" lon="5.60292">
        <ele>1369.5354</ele>
        <time>2010-04-01T10:23:11Z</time>
      </trkpt>
      <trkpt lat="45.09959" lon="5.60292">
        <ele>1369.054688</ele>
        <time>2010-04-01T10:23:21Z</time>
      </trkpt>
      <trkpt lat="45.09958" lon="5.60292">
        <ele>1367.13208</ele>
        <time>2010-04-01T10:23:31Z</time>
      </trkpt>
      <trkpt lat="45.09951" lon="5.6029">
        <ele>1366.170654</ele>
        <time>2010-04-01T10:23:38Z</time>
      </trkpt>
      <trkpt lat="45.09945" lon="5.60289">
        <ele>1366.651367</ele>
        <time>2010-04-01T10:23:45Z</time>
      </trkpt>
      <trkpt lat="45.0994" lon="5.60288">
        <ele>1367.13208</ele>
        <time>2010-04-01T10:23:50Z</time>
      </trkpt>
      <trkpt lat="45.09935" lon="5.60287">
        <ele>1367.13208</ele>
        <time>2010-04-01T10:23:56Z</time>
      </trkpt>
      <trkpt lat="45.09928" lon="5.60287">
        <ele>1368.093262</ele>
        <time>2010-04-01T10:24:03Z</time>
      </trkpt>
      <trkpt lat="45.09922" lon="5.60286">
        <ele>1369.5354</ele>
        <time>2010-04-01T10:24:09Z</time>
      </trkpt>
      <trkpt lat="45.09916" lon="5.60285">
        <ele>1370.496582</ele>
        <time>2010-04-01T10:24:16Z</time>
      </trkpt>
      <trkpt lat="45.09909" lon="5.60284">
        <ele>1370.496582</ele>
        <time>2010-04-01T10:24:23Z</time>
      </trkpt>
      <trkpt lat="45.09905" lon="5.60284">
        <ele>1370.977295</ele>
        <time>2010-04-01T10:24:29Z</time>
      </trkpt>
      <trkpt lat="45.09898" lon="5.60283">
        <ele>1372.419434</ele>
        <time>2010-04-01T10:24:37Z</time>
      </trkpt>
      <trkpt lat="45.09893" lon="5.60283">
        <ele>1373.861328</ele>
        <time>2010-04-01T10:24:44Z</time>
      </trkpt>
      <trkpt lat="45.09888" lon="5.60282">
        <ele>1374.342041</ele>
        <time>2010-04-01T10:24:49Z</time>
      </trkpt>
      <trkpt lat="45.09883" lon="5.60283">
        <ele>1375.303223</ele>
        <time>2010-04-01T10:24:56Z</time>
      </trkpt>
      <trkpt lat="45.09878" lon="5.60283">
        <ele>1376.745361</ele>
        <time>2010-04-01T10:25:02Z</time>
      </trkpt>
      <trkpt lat="45.09873" lon="5.60283">
        <ele>1377.226074</ele>
        <time>2010-04-01T10:25:08Z</time>
      </trkpt>
      <trkpt lat="45.09868" lon="5.60283">
        <ele>1378.667969</ele>
        <time>2010-04-01T10:25:14Z</time>
      </trkpt>
      <trkpt lat="45.09864" lon="5.60283">
        <ele>1379.62915</ele>
        <time>2010-04-01T10:25:20Z</time>
      </trkpt>
      <trkpt lat="45.09858" lon="5.60284">
        <ele>1380.109863</ele>
        <time>2010-04-01T10:25:27Z</time>
      </trkpt>
      <trkpt lat="45.09854" lon="5.60287">
        <ele>1381.071289</ele>
        <time>2010-04-01T10:25:33Z</time>
      </trkpt>
      <trkpt lat="45.09848" lon="5.60289">
        <ele>1382.032471</ele>
        <time>2010-04-01T10:25:40Z</time>
      </trkpt>
      <trkpt lat="45.09842" lon="5.60291">
        <ele>1382.993652</ele>
        <time>2010-04-01T10:25:47Z</time>
      </trkpt>
      <trkpt lat="45.09837" lon="5.60292">
        <ele>1384.435791</ele>
        <time>2010-04-01T10:25:53Z</time>
      </trkpt>
      <trkpt lat="45.09831" lon="5.60293">
        <ele>1384.916504</ele>
        <time>2010-04-01T10:25:59Z</time>
      </trkpt>
      <trkpt lat="45.09826" lon="5.60293">
        <ele>1385.877686</ele>
        <time>2010-04-01T10:26:06Z</time>
      </trkpt>
      <trkpt lat="45.09821" lon="5.60293">
        <ele>1386.358398</ele>
        <time>2010-04-01T10:26:12Z</time>
      </trkpt>
      <trkpt lat="45.09818" lon="5.60293">
        <ele>1386.838867</ele>
        <time>2010-04-01T10:26:18Z</time>
      </trkpt>
      <trkpt lat="45.09812" lon="5.60294">
        <ele>1387.800293</ele>
        <time>2010-04-01T10:26:26Z</time>
      </trkpt>
      <trkpt lat="45.09807" lon="5.60294">
        <ele>1388.761963</ele>
        <time>2010-04-01T10:26:33Z</time>
      </trkpt>
      <trkpt lat="45.09801" lon="5.60294">
        <ele>1389.242432</ele>
        <time>2010-04-01T10:26:40Z</time>
      </trkpt>
      <trkpt lat="45.09797" lon="5.60293">
        <ele>1389.723145</ele>
        <time>2010-04-01T10:26:46Z</time>
      </trkpt>
      <trkpt lat="45.09791" lon="5.60293">
        <ele>1391.165039</ele>
        <time>2010-04-01T10:26:54Z</time>
      </trkpt>
      <trkpt lat="45.09786" lon="5.60293">
        <ele>1392.126465</ele>
        <time>2010-04-01T10:27:00Z</time>
      </trkpt>
      <trkpt lat="45.09782" lon="5.60293">
        <ele>1393.087646</ele>
        <time>2010-04-01T10:27:06Z</time>
      </trkpt>
      <trkpt lat="45.09777" lon="5.60293">
        <ele>1394.049072</ele>
        <time>2010-04-01T10:27:12Z</time>
      </trkpt>
      <trkpt lat="45.09774" lon="5.60293">
        <ele>1394.049072</ele>
        <time>2010-04-01T10:27:16Z</time>
      </trkpt>
      <trkpt lat="45.09767" lon="5.60292">
        <ele>1395.490967</ele>
        <time>2010-04-01T10:27:25Z</time>
      </trkpt>
      <trkpt lat="45.09764" lon="5.60291">
        <ele>1395.97168</ele>
        <time>2010-04-01T10:27:30Z</time>
      </trkpt>
      <trkpt lat="45.0976" lon="5.60291">
        <ele>1396.932861</ele>
        <time>2010-04-01T10:27:36Z</time>
      </trkpt>
      <trkpt lat="45.09754" lon="5.60289">
        <ele>1397.894287</ele>
        <time>2010-04-01T10:27:44Z</time>
      </trkpt>
      <trkpt lat="45.09751" lon="5.60289">
        <ele>1398.374756</ele>
        <time>2010-04-01T10:27:49Z</time>
      </trkpt>
      <trkpt lat="45.09747" lon="5.6029">
        <ele>1399.336182</ele>
        <time>2010-04-01T10:27:55Z</time>
      </trkpt>
      <trkpt lat="45.09742" lon="5.60292">
        <ele>1400.297607</ele>
        <time>2010-04-01T10:28:01Z</time>
      </trkpt>
      <trkpt lat="45.09738" lon="5.60295">
        <ele>1401.258789</ele>
        <time>2010-04-01T10:28:07Z</time>
      </trkpt>
      <trkpt lat="45.09732" lon="5.60298">
        <ele>1402.700684</ele>
        <time>2010-04-01T10:28:14Z</time>
      </trkpt>
      <trkpt lat="45.09727" lon="5.60302">
        <ele>1403.662109</ele>
        <time>2010-04-01T10:28:21Z</time>
      </trkpt>
      <trkpt lat="45.09722" lon="5.60305">
        <ele>1405.104248</ele>
        <time>2010-04-01T10:28:27Z</time>
      </trkpt>
      <trkpt lat="45.09718" lon="5.60306">
        <ele>1405.584961</ele>
        <time>2010-04-01T10:28:33Z</time>
      </trkpt>
      <trkpt lat="45.09714" lon="5.60305">
        <ele>1406.546143</ele>
        <time>2010-04-01T10:28:38Z</time>
      </trkpt>
      <trkpt lat="45.09709" lon="5.60303">
        <ele>1407.026855</ele>
        <time>2010-04-01T10:28:45Z</time>
      </trkpt>
      <trkpt lat="45.09705" lon="5.60302">
        <ele>1407.507568</ele>
        <time>2010-04-01T10:28:52Z</time>
      </trkpt>
      <trkpt lat="45.09703" lon="5.60302">
        <ele>1407.988281</ele>
        <time>2010-04-01T10:28:57Z</time>
      </trkpt>
      <trkpt lat="45.09699" lon="5.60301">
        <ele>1408.949463</ele>
        <time>2010-04-01T10:29:03Z</time>
      </trkpt>
      <trkpt lat="45.09692" lon="5.603">
        <ele>1408.949463</ele>
        <time>2010-04-01T10:29:11Z</time>
      </trkpt>
      <trkpt lat="45.09686" lon="5.60299">
        <ele>1410.391357</ele>
        <time>2010-04-01T10:29:19Z</time>
      </trkpt>
      <trkpt lat="45.09681" lon="5.60298">
        <ele>1410.87207</ele>
        <time>2010-04-01T10:29:25Z</time>
      </trkpt>
      <trkpt lat="45.09677" lon="5.60297">
        <ele>1412.313965</ele>
        <time>2010-04-01T10:29:30Z</time>
      </trkpt>
      <trkpt lat="45.09673" lon="5.60296">
        <ele>1412.794678</ele>
        <time>2010-04-01T10:29:37Z</time>
      </trkpt>
      <trkpt lat="45.09672" lon="5.60296">
        <ele>1412.794678</ele>
        <time>2010-04-01T10:29:46Z</time>
      </trkpt>
      <trkpt lat="45.09667" lon="5.60294">
        <ele>1413.755859</ele>
        <time>2010-04-01T10:29:53Z</time>
      </trkpt>
      <trkpt lat="45.09663" lon="5.60293">
        <ele>1414.236572</ele>
        <time>2010-04-01T10:29:57Z</time>
      </trkpt>
      <trkpt lat="45.09657" lon="5.60291">
        <ele>1415.197998</ele>
        <time>2010-04-01T10:30:04Z</time>
      </trkpt>
      <trkpt lat="45.09653" lon="5.6029">
        <ele>1415.678711</ele>
        <time>2010-04-01T10:30:10Z</time>
      </trkpt>
      <trkpt lat="45.09647" lon="5.6029">
        <ele>1416.639893</ele>
        <time>2010-04-01T10:30:17Z</time>
      </trkpt>
      <trkpt lat="45.09641" lon="5.60289">
        <ele>1417.120605</ele>
        <time>2010-04-01T10:30:23Z</time>
      </trkpt>
      <trkpt lat="45.09636" lon="5.60288">
        <ele>1417.601074</ele>
        <time>2010-04-01T10:30:29Z</time>
      </trkpt>
      <trkpt lat="45.09631" lon="5.60287">
        <ele>1417.601074</ele>
        <time>2010-04-01T10:30:35Z</time>
      </trkpt>
      <trkpt lat="45.09625" lon="5.60287">
        <ele>1418.5625</ele>
        <time>2010-04-01T10:30:42Z</time>
      </trkpt>
      <trkpt lat="45.0962" lon="5.60286">
        <ele>1419.043213</ele>
        <time>2010-04-01T10:30:48Z</time>
      </trkpt>
      <trkpt lat="45.09615" lon="5.60286">
        <ele>1420.004639</ele>
        <time>2010-04-01T10:30:54Z</time>
      </trkpt>
      <trkpt lat="45.0961" lon="5.60285">
        <ele>1420.966064</ele>
        <time>2010-04-01T10:31:00Z</time>
      </trkpt>
      <trkpt lat="45.09604" lon="5.60285">
        <ele>1421.927246</ele>
        <time>2010-04-01T10:31:07Z</time>
      </trkpt>
      <trkpt lat="45.096" lon="5.60284">
        <ele>1422.407959</ele>
        <time>2010-04-01T10:31:12Z</time>
      </trkpt>
      <trkpt lat="45.09594" lon="5.60283">
        <ele>1423.369385</ele>
        <time>2010-04-01T10:31:20Z</time>
      </trkpt>
      <trkpt lat="45.09588" lon="5.60282">
        <ele>1423.849854</ele>
        <time>2010-04-01T10:31:27Z</time>
      </trkpt>
      <trkpt lat="45.09583" lon="5.60282">
        <ele>1424.811279</ele>
        <time>2010-04-01T10:31:32Z</time>
      </trkpt>
      <trkpt lat="45.09577" lon="5.60281">
        <ele>1425.291748</ele>
        <time>2010-04-01T10:31:39Z</time>
      </trkpt>
      <trkpt lat="45.09572" lon="5.6028">
        <ele>1426.253174</ele>
        <time>2010-04-01T10:31:45Z</time>
      </trkpt>
      <trkpt lat="45.0957" lon="5.60279">
        <ele>1426.733887</ele>
        <time>2010-04-01T10:31:52Z</time>
      </trkpt>
      <trkpt lat="45.09568" lon="5.6028">
        <ele>1426.733887</ele>
        <time>2010-04-01T10:31:53Z</time>
      </trkpt>
      <trkpt lat="45.09563" lon="5.6028">
        <ele>1427.695068</ele>
        <time>2010-04-01T10:31:59Z</time>
      </trkpt>
      <trkpt lat="45.09558" lon="5.60279">
        <ele>1428.175781</ele>
        <time>2010-04-01T10:32:05Z</time>
      </trkpt>
      <trkpt lat="45.09553" lon="5.60278">
        <ele>1428.175781</ele>
        <time>2010-04-01T10:32:11Z</time>
      </trkpt>
      <trkpt lat="45.09549" lon="5.60277">
        <ele>1428.656494</ele>
        <time>2010-04-01T10:32:16Z</time>
      </trkpt>
      <trkpt lat="45.09544" lon="5.60277">
        <ele>1430.098389</ele>
        <time>2010-04-01T10:32:22Z</time>
      </trkpt>
      <trkpt lat="45.09538" lon="5.60277">
        <ele>1431.059814</ele>
        <time>2010-04-01T10:32:29Z</time>
      </trkpt>
      <trkpt lat="45.09532" lon="5.60278">
        <ele>1432.020996</ele>
        <time>2010-04-01T10:32:36Z</time>
      </trkpt>
      <trkpt lat="45.09527" lon="5.60278">
        <ele>1432.982178</ele>
        <time>2010-04-01T10:32:42Z</time>
      </trkpt>
      <trkpt lat="45.09522" lon="5.60277">
        <ele>1433.943604</ele>
        <time>2010-04-01T10:32:49Z</time>
      </trkpt>
      <trkpt lat="45.09517" lon="5.60277">
        <ele>1435.385498</ele>
        <time>2010-04-01T10:32:55Z</time>
      </trkpt>
      <trkpt lat="45.09513" lon="5.60276">
        <ele>1436.347168</ele>
        <time>2010-04-01T10:33:01Z</time>
      </trkpt>
      <trkpt lat="45.09507" lon="5.60276">
        <ele>1436.827637</ele>
        <time>2010-04-01T10:33:08Z</time>
      </trkpt>
      <trkpt lat="45.09504" lon="5.60275">
        <ele>1437.30835</ele>
        <time>2010-04-01T10:33:13Z</time>
      </trkpt>
      <trkpt lat="45.095" lon="5.60275">
        <ele>1437.789062</ele>
        <time>2010-04-01T10:33:18Z</time>
      </trkpt>
      <trkpt lat="45.09497" lon="5.60275">
        <ele>1438.750488</ele>
        <time>2010-04-01T10:33:23Z</time>
      </trkpt>
      <trkpt lat="45.09492" lon="5.60275">
        <ele>1439.71167</ele>
        <time>2010-04-01T10:33:31Z</time>
      </trkpt>
      <trkpt lat="45.09487" lon="5.60276">
        <ele>1441.153564</ele>
        <time>2010-04-01T10:33:39Z</time>
      </trkpt>
      <trkpt lat="45.09482" lon="5.60276">
        <ele>1442.11499</ele>
        <time>2010-04-01T10:33:46Z</time>
      </trkpt>
      <trkpt lat="45.09478" lon="5.60277">
        <ele>1443.076172</ele>
        <time>2010-04-01T10:33:52Z</time>
      </trkpt>
      <trkpt lat="45.09474" lon="5.60278">
        <ele>1444.518066</ele>
        <time>2010-04-01T10:33:58Z</time>
      </trkpt>
      <trkpt lat="45.09472" lon="5.60279">
        <ele>1444.998779</ele>
        <time>2010-04-01T10:34:06Z</time>
      </trkpt>
      <trkpt lat="45.09472" lon="5.60278">
        <ele>1444.998779</ele>
        <time>2010-04-01T10:34:18Z</time>
      </trkpt>
      <trkpt lat="45.09472" lon="5.60279">
        <ele>1445.960205</ele>
        <time>2010-04-01T10:34:23Z</time>
      </trkpt>
      <trkpt lat="45.0947" lon="5.60279">
        <ele>1445.960205</ele>
        <time>2010-04-01T10:34:29Z</time>
      </trkpt>
      <trkpt lat="45.09466" lon="5.60282">
        <ele>1446.921387</ele>
        <time>2010-04-01T10:34:35Z</time>
      </trkpt>
      <trkpt lat="45.09461" lon="5.60285">
        <ele>1447.882812</ele>
        <time>2010-04-01T10:34:41Z</time>
      </trkpt>
      <trkpt lat="45.09455" lon="5.60286">
        <ele>1448.363281</ele>
        <time>2010-04-01T10:34:48Z</time>
      </trkpt>
      <trkpt lat="45.0945" lon="5.60284">
        <ele>1448.843994</ele>
        <time>2010-04-01T10:34:55Z</time>
      </trkpt>
      <trkpt lat="45.09449" lon="5.60284">
        <ele>1448.843994</ele>
        <time>2010-04-01T10:35:02Z</time>
      </trkpt>
      <trkpt lat="45.09448" lon="5.60281">
        <ele>1449.324707</ele>
        <time>2010-04-01T10:36:06Z</time>
      </trkpt>
      <trkpt lat="45.09445" lon="5.60274">
        <ele>1449.80542</ele>
        <time>2010-04-01T10:36:13Z</time>
      </trkpt>
      <trkpt lat="45.09442" lon="5.60269">
        <ele>1451.728027</ele>
        <time>2010-04-01T10:36:18Z</time>
      </trkpt>
      <trkpt lat="45.09439" lon="5.60262">
        <ele>1452.689453</ele>
        <time>2010-04-01T10:36:24Z</time>
      </trkpt>
      <trkpt lat="45.09438" lon="5.6026">
        <ele>1452.20874</ele>
        <time>2010-04-01T10:36:25Z</time>
      </trkpt>
      <trkpt lat="45.09436" lon="5.60255">
        <ele>1452.20874</ele>
        <time>2010-04-01T10:36:29Z</time>
      </trkpt>
      <trkpt lat="45.09434" lon="5.60252">
        <ele>1451.728027</ele>
        <time>2010-04-01T10:36:32Z</time>
      </trkpt>
      <trkpt lat="45.09432" lon="5.60246">
        <ele>1452.20874</ele>
        <time>2010-04-01T10:36:37Z</time>
      </trkpt>
      <trkpt lat="45.09429" lon="5.60238">
        <ele>1451.728027</ele>
        <time>2010-04-01T10:36:43Z</time>
      </trkpt>
      <trkpt lat="45.09426" lon="5.6023">
        <ele>1451.247314</ele>
        <time>2010-04-01T10:36:51Z</time>
      </trkpt>
      <trkpt lat="45.09423" lon="5.60225">
        <ele>1450.766602</ele>
        <time>2010-04-01T10:36:57Z</time>
      </trkpt>
      <trkpt lat="45.0942" lon="5.60218">
        <ele>1452.20874</ele>
        <time>2010-04-01T10:37:03Z</time>
      </trkpt>
      <trkpt lat="45.09417" lon="5.6021">
        <ele>1453.170166</ele>
        <time>2010-04-01T10:37:09Z</time>
      </trkpt>
      <trkpt lat="45.09415" lon="5.60202">
        <ele>1453.650879</ele>
        <time>2010-04-01T10:37:15Z</time>
      </trkpt>
      <trkpt lat="45.09411" lon="5.60194">
        <ele>1453.650879</ele>
        <time>2010-04-01T10:37:21Z</time>
      </trkpt>
      <trkpt lat="45.09406" lon="5.60189">
        <ele>1453.650879</ele>
        <time>2010-04-01T10:37:27Z</time>
      </trkpt>
      <trkpt lat="45.09402" lon="5.60186">
        <ele>1453.650879</ele>
        <time>2010-04-01T10:37:31Z</time>
      </trkpt>
      <trkpt lat="45.09395" lon="5.60181">
        <ele>1453.170166</ele>
        <time>2010-04-01T10:37:37Z</time>
      </trkpt>
      <trkpt lat="45.09387" lon="5.60175">
        <ele>1452.20874</ele>
        <time>2010-04-01T10:37:44Z</time>
      </trkpt>
      <trkpt lat="45.09383" lon="5.60171">
        <ele>1451.728027</ele>
        <time>2010-04-01T10:37:48Z</time>
      </trkpt>
      <trkpt lat="45.09378" lon="5.60165">
        <ele>1451.728027</ele>
        <time>2010-04-01T10:37:53Z</time>
      </trkpt>
      <trkpt lat="45.09373" lon="5.6016">
        <ele>1450.766602</ele>
        <time>2010-04-01T10:37:58Z</time>
      </trkpt>
      <trkpt lat="45.09368" lon="5.60157">
        <ele>1451.728027</ele>
        <time>2010-04-01T10:38:02Z</time>
      </trkpt>
      <trkpt lat="45.09364" lon="5.60152">
        <ele>1451.247314</ele>
        <time>2010-04-01T10:38:07Z</time>
      </trkpt>
      <trkpt lat="45.09358" lon="5.60148">
        <ele>1451.247314</ele>
        <time>2010-04-01T10:38:13Z</time>
      </trkpt>
      <trkpt lat="45.09352" lon="5.60144">
        <ele>1451.247314</ele>
        <time>2010-04-01T10:38:18Z</time>
      </trkpt>
      <trkpt lat="45.09346" lon="5.6014">
        <ele>1450.286133</ele>
        <time>2010-04-01T10:38:23Z</time>
      </trkpt>
      <trkpt lat="45.09341" lon="5.60138">
        <ele>1449.80542</ele>
        <time>2010-04-01T10:38:27Z</time>
      </trkpt>
      <trkpt lat="45.09335" lon="5.60136">
        <ele>1449.80542</ele>
        <time>2010-04-01T10:38:32Z</time>
      </trkpt>
      <trkpt lat="45.09329" lon="5.60133">
        <ele>1449.80542</ele>
        <time>2010-04-01T10:38:37Z</time>
      </trkpt>
      <trkpt lat="45.09325" lon="5.60129">
        <ele>1449.80542</ele>
        <time>2010-04-01T10:38:42Z</time>
      </trkpt>
      <trkpt lat="45.09319" lon="5.60125">
        <ele>1449.324707</ele>
        <time>2010-04-01T10:38:48Z</time>
      </trkpt>
      <trkpt lat="45.09314" lon="5.60122">
        <ele>1449.324707</ele>
        <time>2010-04-01T10:38:53Z</time>
      </trkpt>
      <trkpt lat="45.0931" lon="5.6012">
        <ele>1450.286133</ele>
        <time>2010-04-01T10:38:58Z</time>
      </trkpt>
      <trkpt lat="45.09304" lon="5.60118">
        <ele>1450.766602</ele>
        <time>2010-04-01T10:39:04Z</time>
      </trkpt>
      <trkpt lat="45.09298" lon="5.60116">
        <ele>1450.766602</ele>
        <time>2010-04-01T10:39:10Z</time>
      </trkpt>
      <trkpt lat="45.09292" lon="5.60115">
        <ele>1450.286133</ele>
        <time>2010-04-01T10:39:16Z</time>
      </trkpt>
      <trkpt lat="45.09291" lon="5.60116">
        <ele>1450.766602</ele>
        <time>2010-04-01T10:39:22Z</time>
      </trkpt>
      <trkpt lat="45.09289" lon="5.60116">
        <ele>1450.766602</ele>
        <time>2010-04-01T10:39:29Z</time>
      </trkpt>
      <trkpt lat="45.09287" lon="5.60116">
        <ele>1450.766602</ele>
        <time>2010-04-01T10:39:36Z</time>
      </trkpt>
      <trkpt lat="45.09282" lon="5.60117">
        <ele>1451.728027</ele>
        <time>2010-04-01T10:39:41Z</time>
      </trkpt>
      <trkpt lat="45.09276" lon="5.60118">
        <ele>1452.689453</ele>
        <time>2010-04-01T10:39:47Z</time>
      </trkpt>
      <trkpt lat="45.0927" lon="5.60116">
        <ele>1453.170166</ele>
        <time>2010-04-01T10:39:55Z</time>
      </trkpt>
      <trkpt lat="45.09268" lon="5.60116">
        <ele>1452.689453</ele>
        <time>2010-04-01T10:40:00Z</time>
      </trkpt>
      <trkpt lat="45.09269" lon="5.60115">
        <ele>1451.728027</ele>
        <time>2010-04-01T10:40:11Z</time>
      </trkpt>
      <trkpt lat="45.09268" lon="5.60115">
        <ele>1451.247314</ele>
        <time>2010-04-01T10:40:25Z</time>
      </trkpt>
      <trkpt lat="45.09268" lon="5.60116">
        <ele>1451.728027</ele>
        <time>2010-04-01T10:40:41Z</time>
      </trkpt>
      <trkpt lat="45.09268" lon="5.60113">
        <ele>1451.728027</ele>
        <time>2010-04-01T10:40:44Z</time>
      </trkpt>
      <trkpt lat="45.09268" lon="5.60103">
        <ele>1452.689453</ele>
        <time>2010-04-01T10:40:49Z</time>
      </trkpt>
      <trkpt lat="45.09265" lon="5.60097">
        <ele>1452.20874</ele>
        <time>2010-04-01T10:40:53Z</time>
      </trkpt>
      <trkpt lat="45.09259" lon="5.60093">
        <ele>1450.286133</ele>
        <time>2010-04-01T10:40:59Z</time>
      </trkpt>
      <trkpt lat="45.09253" lon="5.60093">
        <ele>1450.286133</ele>
        <time>2010-04-01T10:41:04Z</time>
      </trkpt>
      <trkpt lat="45.09247" lon="5.60092">
        <ele>1449.324707</ele>
        <time>2010-04-01T10:41:08Z</time>
      </trkpt>
      <trkpt lat="45.09241" lon="5.6009">
        <ele>1448.843994</ele>
        <time>2010-04-01T10:41:13Z</time>
      </trkpt>
      <trkpt lat="45.09235" lon="5.60088">
        <ele>1448.843994</ele>
        <time>2010-04-01T10:41:18Z</time>
      </trkpt>
      <trkpt lat="45.09233" lon="5.60089">
        <ele>1449.324707</ele>
        <time>2010-04-01T10:41:24Z</time>
      </trkpt>
      <trkpt lat="45.09231" lon="5.60091">
        <ele>1449.80542</ele>
        <time>2010-04-01T10:41:28Z</time>
      </trkpt>
      <trkpt lat="45.09228" lon="5.60091">
        <ele>1450.286133</ele>
        <time>2010-04-01T10:41:33Z</time>
      </trkpt>
      <trkpt lat="45.09224" lon="5.60092">
        <ele>1450.766602</ele>
        <time>2010-04-01T10:41:37Z</time>
      </trkpt>
      <trkpt lat="45.09218" lon="5.60092">
        <ele>1451.247314</ele>
        <time>2010-04-01T10:41:43Z</time>
      </trkpt>
      <trkpt lat="45.09213" lon="5.60091">
        <ele>1451.728027</ele>
        <time>2010-04-01T10:41:49Z</time>
      </trkpt>
      <trkpt lat="45.09207" lon="5.60091">
        <ele>1452.20874</ele>
        <time>2010-04-01T10:41:56Z</time>
      </trkpt>
      <trkpt lat="45.09201" lon="5.60091">
        <ele>1452.689453</ele>
        <time>2010-04-01T10:42:02Z</time>
      </trkpt>
      <trkpt lat="45.09196" lon="5.60092">
        <ele>1452.689453</ele>
        <time>2010-04-01T10:42:07Z</time>
      </trkpt>
      <trkpt lat="45.09188" lon="5.60094">
        <ele>1453.170166</ele>
        <time>2010-04-01T10:42:15Z</time>
      </trkpt>
      <trkpt lat="45.09182" lon="5.60097">
        <ele>1453.170166</ele>
        <time>2010-04-01T10:42:22Z</time>
      </trkpt>
      <trkpt lat="45.09178" lon="5.60099">
        <ele>1453.650879</ele>
        <time>2010-04-01T10:42:26Z</time>
      </trkpt>
      <trkpt lat="45.09174" lon="5.60101">
        <ele>1453.650879</ele>
        <time>2010-04-01T10:42:32Z</time>
      </trkpt>
      <trkpt lat="45.09174" lon="5.60101">
        <ele>1453.650879</ele>
        <time>2010-04-01T10:42:40Z</time>
      </trkpt>
      <trkpt lat="45.09171" lon="5.60104">
        <ele>1454.612061</ele>
        <time>2010-04-01T10:42:54Z</time>
      </trkpt>
      <trkpt lat="45.09165" lon="5.60107">
        <ele>1455.573486</ele>
        <time>2010-04-01T10:43:00Z</time>
      </trkpt>
      <trkpt lat="45.09162" lon="5.6011">
        <ele>1456.053955</ele>
        <time>2010-04-01T10:43:04Z</time>
      </trkpt>
      <trkpt lat="45.09157" lon="5.60113">
        <ele>1456.053955</ele>
        <time>2010-04-01T10:43:09Z</time>
      </trkpt>
      <trkpt lat="45.09155" lon="5.60114">
        <ele>1456.534668</ele>
        <time>2010-04-01T10:43:11Z</time>
      </trkpt>
      <trkpt lat="45.0915" lon="5.60119">
        <ele>1456.053955</ele>
        <time>2010-04-01T10:43:18Z</time>
      </trkpt>
      <trkpt lat="45.09145" lon="5.60125">
        <ele>1455.092773</ele>
        <time>2010-04-01T10:43:25Z</time>
      </trkpt>
      <trkpt lat="45.09142" lon="5.60131">
        <ele>1456.053955</ele>
        <time>2010-04-01T10:43:31Z</time>
      </trkpt>
      <trkpt lat="45.09138" lon="5.60135">
        <ele>1457.496094</ele>
        <time>2010-04-01T10:43:37Z</time>
      </trkpt>
      <trkpt lat="45.09133" lon="5.60137">
        <ele>1458.457275</ele>
        <time>2010-04-01T10:43:44Z</time>
      </trkpt>
      <trkpt lat="45.09128" lon="5.60137">
        <ele>1459.89917</ele>
        <time>2010-04-01T10:43:49Z</time>
      </trkpt>
      <trkpt lat="45.09121" lon="5.60138">
        <ele>1461.822021</ele>
        <time>2010-04-01T10:43:56Z</time>
      </trkpt>
      <trkpt lat="45.09115" lon="5.60138">
        <ele>1461.822021</ele>
        <time>2010-04-01T10:44:02Z</time>
      </trkpt>
      <trkpt lat="45.09109" lon="5.60139">
        <ele>1460.379883</ele>
        <time>2010-04-01T10:44:08Z</time>
      </trkpt>
      <trkpt lat="45.09107" lon="5.6014">
        <ele>1460.379883</ele>
        <time>2010-04-01T10:44:10Z</time>
      </trkpt>
      <trkpt lat="45.09104" lon="5.60143">
        <ele>1460.379883</ele>
        <time>2010-04-01T10:44:13Z</time>
      </trkpt>
      <trkpt lat="45.091" lon="5.60149">
        <ele>1459.418701</ele>
        <time>2010-04-01T10:44:19Z</time>
      </trkpt>
      <trkpt lat="45.09095" lon="5.60154">
        <ele>1458.937988</ele>
        <time>2010-04-01T10:44:26Z</time>
      </trkpt>
      <trkpt lat="45.09094" lon="5.60159">
        <ele>1460.379883</ele>
        <time>2010-04-01T10:44:30Z</time>
      </trkpt>
      <trkpt lat="45.09093" lon="5.60163">
        <ele>1461.341309</ele>
        <time>2010-04-01T10:44:36Z</time>
      </trkpt>
      <trkpt lat="45.0909" lon="5.60167">
        <ele>1463.744385</ele>
        <time>2010-04-01T10:44:41Z</time>
      </trkpt>
      <trkpt lat="45.09087" lon="5.60172">
        <ele>1466.147705</ele>
        <time>2010-04-01T10:44:47Z</time>
      </trkpt>
      <trkpt lat="45.09084" lon="5.60182">
        <ele>1465.186523</ele>
        <time>2010-04-01T10:44:55Z</time>
      </trkpt>
      <trkpt lat="45.09081" lon="5.60187">
        <ele>1463.263916</ele>
        <time>2010-04-01T10:44:59Z</time>
      </trkpt>
      <trkpt lat="45.09079" lon="5.60191">
        <ele>1461.341309</ele>
        <time>2010-04-01T10:45:04Z</time>
      </trkpt>
      <trkpt lat="45.09076" lon="5.60196">
        <ele>1461.822021</ele>
        <time>2010-04-01T10:45:10Z</time>
      </trkpt>
      <trkpt lat="45.09075" lon="5.60198">
        <ele>1461.341309</ele>
        <time>2010-04-01T10:45:15Z</time>
      </trkpt>
      <trkpt lat="45.09071" lon="5.60201">
        <ele>1461.822021</ele>
        <time>2010-04-01T10:45:22Z</time>
      </trkpt>
      <trkpt lat="45.09067" lon="5.60205">
        <ele>1462.30249</ele>
        <time>2010-04-01T10:45:28Z</time>
      </trkpt>
      <trkpt lat="45.09063" lon="5.60211">
        <ele>1463.744385</ele>
        <time>2010-04-01T10:45:34Z</time>
      </trkpt>
      <trkpt lat="45.09059" lon="5.60214">
        <ele>1464.225098</ele>
        <time>2010-04-01T10:45:40Z</time>
      </trkpt>
      <trkpt lat="45.09056" lon="5.60216">
        <ele>1463.263916</ele>
        <time>2010-04-01T10:45:45Z</time>
      </trkpt>
      <trkpt lat="45.09052" lon="5.60222">
        <ele>1463.744385</ele>
        <time>2010-04-01T10:45:51Z</time>
      </trkpt>
      <trkpt lat="45.09048" lon="5.60225">
        <ele>1463.744385</ele>
        <time>2010-04-01T10:45:57Z</time>
      </trkpt>
      <trkpt lat="45.09045" lon="5.60227">
        <ele>1464.705811</ele>
        <time>2010-04-01T10:46:01Z</time>
      </trkpt>
      <trkpt lat="45.09043" lon="5.60229">
        <ele>1466.147705</ele>
        <time>2010-04-01T10:46:07Z</time>
      </trkpt>
      <trkpt lat="45.09042" lon="5.6023">
        <ele>1466.147705</ele>
        <time>2010-04-01T10:46:11Z</time>
      </trkpt>
      <trkpt lat="45.09042" lon="5.6023">
        <ele>1465.186523</ele>
        <time>2010-04-01T10:46:17Z</time>
      </trkpt>
      <trkpt lat="45.09041" lon="5.60229">
        <ele>1465.186523</ele>
        <time>2010-04-01T10:46:34Z</time>
      </trkpt>
      <trkpt lat="45.0904" lon="5.6023">
        <ele>1467.109131</ele>
        <time>2010-04-01T10:46:42Z</time>
      </trkpt>
      <trkpt lat="45.09047" lon="5.60232">
        <ele>1468.55127</ele>
        <time>2010-04-01T10:47:03Z</time>
      </trkpt>
      <trkpt lat="45.09047" lon="5.60231">
        <ele>1467.5896</ele>
        <time>2010-04-01T10:47:10Z</time>
      </trkpt>
      <trkpt lat="45.09044" lon="5.6023">
        <ele>1470.473877</ele>
        <time>2010-04-01T10:47:23Z</time>
      </trkpt>
      <trkpt lat="45.09044" lon="5.60229">
        <ele>1469.512695</ele>
        <time>2010-04-01T10:47:31Z</time>
      </trkpt>
      <trkpt lat="45.09043" lon="5.60229">
        <ele>1468.55127</ele>
        <time>2010-04-01T10:47:40Z</time>
      </trkpt>
      <trkpt lat="45.09043" lon="5.60228">
        <ele>1469.993164</ele>
        <time>2010-04-01T10:47:52Z</time>
      </trkpt>
      <trkpt lat="45.09041" lon="5.60228">
        <ele>1466.628418</ele>
        <time>2010-04-01T10:48:19Z</time>
      </trkpt>
      <trkpt lat="45.0904" lon="5.60229">
        <ele>1466.147705</ele>
        <time>2010-04-01T10:48:37Z</time>
      </trkpt>
      <trkpt lat="45.09042" lon="5.6023">
        <ele>1467.5896</ele>
        <time>2010-04-01T10:49:09Z</time>
      </trkpt>
      <trkpt lat="45.09041" lon="5.60228">
        <ele>1466.147705</ele>
        <time>2010-04-01T10:49:18Z</time>
      </trkpt>
      <trkpt lat="45.09041" lon="5.60228">
        <ele>1468.55127</ele>
        <time>2010-04-01T10:49:24Z</time>
      </trkpt>
      <trkpt lat="45.09042" lon="5.60228">
        <ele>1465.667236</ele>
        <time>2010-04-01T10:49:38Z</time>
      </trkpt>
      <trkpt lat="45.09042" lon="5.6023">
        <ele>1466.147705</ele>
        <time>2010-04-01T10:49:44Z</time>
      </trkpt>
      <trkpt lat="45.09045" lon="5.60229">
        <ele>1469.512695</ele>
        <time>2010-04-01T10:49:54Z</time>
      </trkpt>
      <trkpt lat="45.09044" lon="5.6023">
        <ele>1469.993164</ele>
        <time>2010-04-01T10:49:55Z</time>
      </trkpt>
      <trkpt lat="45.09044" lon="5.60229">
        <ele>1469.993164</ele>
        <time>2010-04-01T10:49:58Z</time>
      </trkpt>
      <trkpt lat="45.09041" lon="5.60229">
        <ele>1469.993164</ele>
        <time>2010-04-01T10:50:00Z</time>
      </trkpt>
      <trkpt lat="45.0904" lon="5.60229">
        <ele>1470.473877</ele>
        <time>2010-04-01T10:50:01Z</time>
      </trkpt>
      <trkpt lat="45.09036" lon="5.60229">
        <ele>1472.877197</ele>
        <time>2010-04-01T10:50:05Z</time>
      </trkpt>
      <trkpt lat="45.09032" lon="5.6023">
        <ele>1473.35791</ele>
        <time>2010-04-01T10:50:09Z</time>
      </trkpt>
      <trkpt lat="45.09024" lon="5.60235">
        <ele>1473.35791</ele>
        <time>2010-04-01T10:50:16Z</time>
      </trkpt>
      <trkpt lat="45.09018" lon="5.60239">
        <ele>1472.877197</ele>
        <time>2010-04-01T10:50:21Z</time>
      </trkpt>
      <trkpt lat="45.09014" lon="5.60238">
        <ele>1473.35791</ele>
        <time>2010-04-01T10:50:26Z</time>
      </trkpt>
      <trkpt lat="45.09011" lon="5.60238">
        <ele>1473.35791</ele>
        <time>2010-04-01T10:50:29Z</time>
      </trkpt>
      <trkpt lat="45.09007" lon="5.60235">
        <ele>1475.280273</ele>
        <time>2010-04-01T10:50:33Z</time>
      </trkpt>
      <trkpt lat="45.09005" lon="5.60235">
        <ele>1475.760986</ele>
        <time>2010-04-01T10:50:35Z</time>
      </trkpt>
      <trkpt lat="45.08996" lon="5.60235">
        <ele>1473.35791</ele>
        <time>2010-04-01T10:50:41Z</time>
      </trkpt>
      <trkpt lat="45.08992" lon="5.60231">
        <ele>1473.838379</ele>
        <time>2010-04-01T10:50:45Z</time>
      </trkpt>
      <trkpt lat="45.08986" lon="5.60229">
        <ele>1473.838379</ele>
        <time>2010-04-01T10:50:50Z</time>
      </trkpt>
      <trkpt lat="45.08984" lon="5.6023">
        <ele>1473.35791</ele>
        <time>2010-04-01T10:50:52Z</time>
      </trkpt>
      <trkpt lat="45.0898" lon="5.60232">
        <ele>1472.396484</ele>
        <time>2010-04-01T10:50:56Z</time>
      </trkpt>
      <trkpt lat="45.08974" lon="5.60235">
        <ele>1472.396484</ele>
        <time>2010-04-01T10:51:04Z</time>
      </trkpt>
      <trkpt lat="45.08969" lon="5.60239">
        <ele>1473.838379</ele>
        <time>2010-04-01T10:51:11Z</time>
      </trkpt>
      <trkpt lat="45.08966" lon="5.6024">
        <ele>1473.35791</ele>
        <time>2010-04-01T10:51:16Z</time>
      </trkpt>
      <trkpt lat="45.08961" lon="5.60242">
        <ele>1474.319092</ele>
        <time>2010-04-01T10:51:21Z</time>
      </trkpt>
      <trkpt lat="45.08956" lon="5.60247">
        <ele>1476.241699</ele>
        <time>2010-04-01T10:51:27Z</time>
      </trkpt>
      <trkpt lat="45.08953" lon="5.60251">
        <ele>1478.64502</ele>
        <time>2010-04-01T10:51:33Z</time>
      </trkpt>
      <trkpt lat="45.08949" lon="5.60252">
        <ele>1481.528809</ele>
        <time>2010-04-01T10:51:39Z</time>
      </trkpt>
      <trkpt lat="45.08944" lon="5.60253">
        <ele>1482.009521</ele>
        <time>2010-04-01T10:51:45Z</time>
      </trkpt>
      <trkpt lat="45.08939" lon="5.60253">
        <ele>1482.970703</ele>
        <time>2010-04-01T10:51:50Z</time>
      </trkpt>
      <trkpt lat="45.08933" lon="5.60253">
        <ele>1483.451416</ele>
        <time>2010-04-01T10:51:56Z</time>
      </trkpt>
      <trkpt lat="45.08928" lon="5.60251">
        <ele>1482.970703</ele>
        <time>2010-04-01T10:52:03Z</time>
      </trkpt>
      <trkpt lat="45.08923" lon="5.60249">
        <ele>1483.451416</ele>
        <time>2010-04-01T10:52:10Z</time>
      </trkpt>
      <trkpt lat="45.0892" lon="5.60245">
        <ele>1482.490234</ele>
        <time>2010-04-01T10:52:15Z</time>
      </trkpt>
      <trkpt lat="45.08916" lon="5.60243">
        <ele>1482.970703</ele>
        <time>2010-04-01T10:52:19Z</time>
      </trkpt>
      <trkpt lat="45.08911" lon="5.60242">
        <ele>1483.932129</ele>
        <time>2010-04-01T10:52:25Z</time>
      </trkpt>
      <trkpt lat="45.08906" lon="5.60245">
        <ele>1481.04834</ele>
        <time>2010-04-01T10:52:31Z</time>
      </trkpt>
      <trkpt lat="45.08901" lon="5.60248">
        <ele>1479.606201</ele>
        <time>2010-04-01T10:52:37Z</time>
      </trkpt>
      <trkpt lat="45.08896" lon="5.60253">
        <ele>1480.086914</ele>
        <time>2010-04-01T10:52:43Z</time>
      </trkpt>
      <trkpt lat="45.08891" lon="5.60255">
        <ele>1480.086914</ele>
        <time>2010-04-01T10:52:49Z</time>
      </trkpt>
      <trkpt lat="45.08886" lon="5.60259">
        <ele>1479.606201</ele>
        <time>2010-04-01T10:52:56Z</time>
      </trkpt>
      <trkpt lat="45.08882" lon="5.60261">
        <ele>1479.606201</ele>
        <time>2010-04-01T10:53:02Z</time>
      </trkpt>
      <trkpt lat="45.08876" lon="5.60263">
        <ele>1479.606201</ele>
        <time>2010-04-01T10:53:08Z</time>
      </trkpt>
      <trkpt lat="45.08873" lon="5.60267">
        <ele>1480.086914</ele>
        <time>2010-04-01T10:53:13Z</time>
      </trkpt>
      <trkpt lat="45.08867" lon="5.60271">
        <ele>1482.970703</ele>
        <time>2010-04-01T10:53:19Z</time>
      </trkpt>
      <trkpt lat="45.08865" lon="5.60272">
        <ele>1484.893799</ele>
        <time>2010-04-01T10:53:23Z</time>
      </trkpt>
      <trkpt lat="45.08863" lon="5.60272">
        <ele>1486.816162</ele>
        <time>2010-04-01T10:53:27Z</time>
      </trkpt>
      <trkpt lat="45.08859" lon="5.60271">
        <ele>1487.777588</ele>
        <time>2010-04-01T10:53:31Z</time>
      </trkpt>
      <trkpt lat="45.08854" lon="5.60272">
        <ele>1487.296875</ele>
        <time>2010-04-01T10:53:36Z</time>
      </trkpt>
      <trkpt lat="45.0885" lon="5.60275">
        <ele>1486.335693</ele>
        <time>2010-04-01T10:53:40Z</time>
      </trkpt>
      <trkpt lat="45.08849" lon="5.60277">
        <ele>1486.335693</ele>
        <time>2010-04-01T10:53:42Z</time>
      </trkpt>
      <trkpt lat="45.08846" lon="5.60287">
        <ele>1485.85498</ele>
        <time>2010-04-01T10:53:51Z</time>
      </trkpt>
      <trkpt lat="45.08844" lon="5.60294">
        <ele>1486.816162</ele>
        <time>2010-04-01T10:53:57Z</time>
      </trkpt>
      <trkpt lat="45.08843" lon="5.603">
        <ele>1486.816162</ele>
        <time>2010-04-01T10:54:02Z</time>
      </trkpt>
      <trkpt lat="45.08843" lon="5.60304">
        <ele>1487.777588</ele>
        <time>2010-04-01T10:54:06Z</time>
      </trkpt>
      <trkpt lat="45.08841" lon="5.60311">
        <ele>1490.180908</ele>
        <time>2010-04-01T10:54:12Z</time>
      </trkpt>
      <trkpt lat="45.0884" lon="5.60319">
        <ele>1491.622803</ele>
        <time>2010-04-01T10:54:19Z</time>
      </trkpt>
      <trkpt lat="45.08838" lon="5.60325">
        <ele>1491.14209</ele>
        <time>2010-04-01T10:54:23Z</time>
      </trkpt>
      <trkpt lat="45.08837" lon="5.6033">
        <ele>1492.103516</ele>
        <time>2010-04-01T10:54:26Z</time>
      </trkpt>
      <trkpt lat="45.08836" lon="5.60336">
        <ele>1493.064697</ele>
        <time>2010-04-01T10:54:32Z</time>
      </trkpt>
      <trkpt lat="45.08834" lon="5.60343">
        <ele>1494.026123</ele>
        <time>2010-04-01T10:54:37Z</time>
      </trkpt>
      <trkpt lat="45.08834" lon="5.6035">
        <ele>1495.468018</ele>
        <time>2010-04-01T10:54:43Z</time>
      </trkpt>
      <trkpt lat="45.08834" lon="5.60355">
        <ele>1495.94873</ele>
        <time>2010-04-01T10:54:47Z</time>
      </trkpt>
      <trkpt lat="45.08831" lon="5.60366">
        <ele>1494.506592</ele>
        <time>2010-04-01T10:54:55Z</time>
      </trkpt>
      <trkpt lat="45.0883" lon="5.60373">
        <ele>1493.54541</ele>
        <time>2010-04-01T10:55:01Z</time>
      </trkpt>
      <trkpt lat="45.08829" lon="5.60379">
        <ele>1493.54541</ele>
        <time>2010-04-01T10:55:06Z</time>
      </trkpt>
      <trkpt lat="45.08827" lon="5.60384">
        <ele>1494.506592</ele>
        <time>2010-04-01T10:55:11Z</time>
      </trkpt>
      <trkpt lat="45.08826" lon="5.60389">
        <ele>1494.506592</ele>
        <time>2010-04-01T10:55:15Z</time>
      </trkpt>
      <trkpt lat="45.08823" lon="5.60395">
        <ele>1495.94873</ele>
        <time>2010-04-01T10:55:21Z</time>
      </trkpt>
      <trkpt lat="45.08822" lon="5.604">
        <ele>1494.506592</ele>
        <time>2010-04-01T10:55:26Z</time>
      </trkpt>
      <trkpt lat="45.08819" lon="5.60405">
        <ele>1494.506592</ele>
        <time>2010-04-01T10:55:32Z</time>
      </trkpt>
      <trkpt lat="45.08818" lon="5.6041">
        <ele>1495.468018</ele>
        <time>2010-04-01T10:55:37Z</time>
      </trkpt>
      <trkpt lat="45.08817" lon="5.60413">
        <ele>1497.390625</ele>
        <time>2010-04-01T10:55:42Z</time>
      </trkpt>
      <trkpt lat="45.08813" lon="5.60419">
        <ele>1499.313232</ele>
        <time>2010-04-01T10:55:49Z</time>
      </trkpt>
      <trkpt lat="45.08812" lon="5.60425">
        <ele>1498.83252</ele>
        <time>2010-04-01T10:55:53Z</time>
      </trkpt>
      <trkpt lat="45.08809" lon="5.60429">
        <ele>1496.909912</ele>
        <time>2010-04-01T10:55:58Z</time>
      </trkpt>
      <trkpt lat="45.08803" lon="5.60436">
        <ele>1496.429443</ele>
        <time>2010-04-01T10:56:06Z</time>
      </trkpt>
      <trkpt lat="45.08799" lon="5.60442">
        <ele>1497.390625</ele>
        <time>2010-04-01T10:56:12Z</time>
      </trkpt>
      <trkpt lat="45.08797" lon="5.60446">
        <ele>1498.351807</ele>
        <time>2010-04-01T10:56:16Z</time>
      </trkpt>
      <trkpt lat="45.08793" lon="5.60453">
        <ele>1498.83252</ele>
        <time>2010-04-01T10:56:23Z</time>
      </trkpt>
      <trkpt lat="45.08792" lon="5.60456">
        <ele>1499.313232</ele>
        <time>2010-04-01T10:56:29Z</time>
      </trkpt>
      <trkpt lat="45.08791" lon="5.60458">
        <ele>1499.793945</ele>
        <time>2010-04-01T10:56:34Z</time>
      </trkpt>
      <trkpt lat="45.08787" lon="5.60459">
        <ele>1498.83252</ele>
        <time>2010-04-01T10:56:39Z</time>
      </trkpt>
      <trkpt lat="45.08785" lon="5.60462">
        <ele>1499.793945</ele>
        <time>2010-04-01T10:56:44Z</time>
      </trkpt>
      <trkpt lat="45.08785" lon="5.60465">
        <ele>1500.755371</ele>
        <time>2010-04-01T10:56:51Z</time>
      </trkpt>
      <trkpt lat="45.08784" lon="5.60467">
        <ele>1502.197266</ele>
        <time>2010-04-01T10:56:55Z</time>
      </trkpt>
      <trkpt lat="45.08781" lon="5.60473">
        <ele>1504.120117</ele>
        <time>2010-04-01T10:57:02Z</time>
      </trkpt>
      <trkpt lat="45.08777" lon="5.60479">
        <ele>1504.600586</ele>
        <time>2010-04-01T10:57:08Z</time>
      </trkpt>
      <trkpt lat="45.08774" lon="5.60483">
        <ele>1504.600586</ele>
        <time>2010-04-01T10:57:13Z</time>
      </trkpt>
      <trkpt lat="45.08771" lon="5.60487">
        <ele>1504.600586</ele>
        <time>2010-04-01T10:57:17Z</time>
      </trkpt>
      <trkpt lat="45.08769" lon="5.60489">
        <ele>1505.081299</ele>
        <time>2010-04-01T10:57:21Z</time>
      </trkpt>
      <trkpt lat="45.08767" lon="5.60493">
        <ele>1504.600586</ele>
        <time>2010-04-01T10:57:25Z</time>
      </trkpt>
      <trkpt lat="45.08763" lon="5.60496">
        <ele>1507.003906</ele>
        <time>2010-04-01T10:57:30Z</time>
      </trkpt>
      <trkpt lat="45.08762" lon="5.60502">
        <ele>1509.407227</ele>
        <time>2010-04-01T10:57:39Z</time>
      </trkpt>
      <trkpt lat="45.08759" lon="5.60505">
        <ele>1509.887695</ele>
        <time>2010-04-01T10:57:43Z</time>
      </trkpt>
      <trkpt lat="45.08754" lon="5.60507">
        <ele>1511.329834</ele>
        <time>2010-04-01T10:57:49Z</time>
      </trkpt>
      <trkpt lat="45.08751" lon="5.60509">
        <ele>1513.252441</ele>
        <time>2010-04-01T10:57:54Z</time>
      </trkpt>
      <trkpt lat="45.08749" lon="5.60512">
        <ele>1514.213623</ele>
        <time>2010-04-01T10:57:58Z</time>
      </trkpt>
      <trkpt lat="45.08745" lon="5.60517">
        <ele>1514.213623</ele>
        <time>2010-04-01T10:58:03Z</time>
      </trkpt>
      <trkpt lat="45.08741" lon="5.60521">
        <ele>1514.213623</ele>
        <time>2010-04-01T10:58:08Z</time>
      </trkpt>
      <trkpt lat="45.08739" lon="5.60523">
        <ele>1514.213623</ele>
        <time>2010-04-01T10:58:10Z</time>
      </trkpt>
      <trkpt lat="45.08737" lon="5.60524">
        <ele>1512.771729</ele>
        <time>2010-04-01T10:58:12Z</time>
      </trkpt>
      <trkpt lat="45.08732" lon="5.60522">
        <ele>1513.73291</ele>
        <time>2010-04-01T10:58:18Z</time>
      </trkpt>
      <trkpt lat="45.08728" lon="5.6052">
        <ele>1516.136475</ele>
        <time>2010-04-01T10:58:23Z</time>
      </trkpt>
      <trkpt lat="45.08724" lon="5.60517">
        <ele>1516.136475</ele>
        <time>2010-04-01T10:58:27Z</time>
      </trkpt>
      <trkpt lat="45.08721" lon="5.60516">
        <ele>1515.175049</ele>
        <time>2010-04-01T10:58:31Z</time>
      </trkpt>
      <trkpt lat="45.08717" lon="5.60515">
        <ele>1513.73291</ele>
        <time>2010-04-01T10:58:36Z</time>
      </trkpt>
      <trkpt lat="45.08713" lon="5.60516">
        <ele>1513.73291</ele>
        <time>2010-04-01T10:58:40Z</time>
      </trkpt>
      <trkpt lat="45.08708" lon="5.60516">
        <ele>1515.175049</ele>
        <time>2010-04-01T10:58:46Z</time>
      </trkpt>
      <trkpt lat="45.08704" lon="5.60517">
        <ele>1518.059082</ele>
        <time>2010-04-01T10:58:51Z</time>
      </trkpt>
      <trkpt lat="45.08698" lon="5.60518">
        <ele>1520.462402</ele>
        <time>2010-04-01T10:58:58Z</time>
      </trkpt>
      <trkpt lat="45.08695" lon="5.60519">
        <ele>1519.020508</ele>
        <time>2010-04-01T10:59:02Z</time>
      </trkpt>
      <trkpt lat="45.0869" lon="5.60521">
        <ele>1518.059082</ele>
        <time>2010-04-01T10:59:18Z</time>
      </trkpt>
      <trkpt lat="45.08686" lon="5.60523">
        <ele>1520.943115</ele>
        <time>2010-04-01T10:59:23Z</time>
      </trkpt>
      <trkpt lat="45.08683" lon="5.60521">
        <ele>1523.826904</ele>
        <time>2010-04-01T10:59:28Z</time>
      </trkpt>
      <trkpt lat="45.08676" lon="5.60521">
        <ele>1529.594727</ele>
        <time>2010-04-01T10:59:43Z</time>
      </trkpt>
      <trkpt lat="45.08669" lon="5.6052">
        <ele>1524.307617</ele>
        <time>2010-04-01T10:59:49Z</time>
      </trkpt>
      <trkpt lat="45.08666" lon="5.60517">
        <ele>1523.346436</ele>
        <time>2010-04-01T10:59:55Z</time>
      </trkpt>
      <trkpt lat="45.08659" lon="5.60516">
        <ele>1520.462402</ele>
        <time>2010-04-01T11:00:03Z</time>
      </trkpt>
      <trkpt lat="45.08652" lon="5.6052">
        <ele>1522.865723</ele>
        <time>2010-04-01T11:00:22Z</time>
      </trkpt>
      <trkpt lat="45.0864" lon="5.60529">
        <ele>1529.114014</ele>
        <time>2010-04-01T11:00:42Z</time>
      </trkpt>
      <trkpt lat="45.08639" lon="5.60531">
        <ele>1531.036865</ele>
        <time>2010-04-01T11:00:46Z</time>
      </trkpt>
      <trkpt lat="45.08637" lon="5.60535">
        <ele>1533.440186</ele>
        <time>2010-04-01T11:00:50Z</time>
      </trkpt>
      <trkpt lat="45.08634" lon="5.60541">
        <ele>1530.075439</ele>
        <time>2010-04-01T11:00:56Z</time>
      </trkpt>
      <trkpt lat="45.08629" lon="5.60548">
        <ele>1528.152832</ele>
        <time>2010-04-01T11:01:07Z</time>
      </trkpt>
      <trkpt lat="45.08624" lon="5.60551">
        <ele>1527.672119</ele>
        <time>2010-04-01T11:01:27Z</time>
      </trkpt>
      <trkpt lat="45.08622" lon="5.60553">
        <ele>1526.710938</ele>
        <time>2010-04-01T11:01:31Z</time>
      </trkpt>
      <trkpt lat="45.08621" lon="5.60557">
        <ele>1528.152832</ele>
        <time>2010-04-01T11:01:36Z</time>
      </trkpt>
      <trkpt lat="45.0862" lon="5.60559">
        <ele>1531.998047</ele>
        <time>2010-04-01T11:01:40Z</time>
      </trkpt>
      <trkpt lat="45.08619" lon="5.60561">
        <ele>1535.843506</ele>
        <time>2010-04-01T11:01:45Z</time>
      </trkpt>
      <trkpt lat="45.08618" lon="5.60562">
        <ele>1538.246826</ele>
        <time>2010-04-01T11:01:49Z</time>
      </trkpt>
      <trkpt lat="45.08617" lon="5.60564">
        <ele>1541.130615</ele>
        <time>2010-04-01T11:01:52Z</time>
      </trkpt>
      <trkpt lat="45.08615" lon="5.60566">
        <ele>1544.97583</ele>
        <time>2010-04-01T11:01:57Z</time>
      </trkpt>
      <trkpt lat="45.08616" lon="5.60573">
        <ele>1552.666504</ele>
        <time>2010-04-01T11:02:11Z</time>
      </trkpt>
      <trkpt lat="45.08617" lon="5.60576">
        <ele>1557.953857</ele>
        <time>2010-04-01T11:02:16Z</time>
      </trkpt>
      <trkpt lat="45.08606" lon="5.60585">
        <ele>1543.533936</ele>
        <time>2010-04-01T11:03:27Z</time>
      </trkpt>
      <trkpt lat="45.08605" lon="5.60583">
        <ele>1544.014648</ele>
        <time>2010-04-01T11:03:30Z</time>
      </trkpt>
      <trkpt lat="45.08603" lon="5.60581">
        <ele>1544.014648</ele>
        <time>2010-04-01T11:03:34Z</time>
      </trkpt>
      <trkpt lat="45.08602" lon="5.60581">
        <ele>1545.937256</ele>
        <time>2010-04-01T11:03:40Z</time>
      </trkpt>
      <trkpt lat="45.08601" lon="5.60584">
        <ele>1546.898438</ele>
        <time>2010-04-01T11:03:46Z</time>
      </trkpt>
      <trkpt lat="45.08597" lon="5.60583">
        <ele>1544.97583</ele>
        <time>2010-04-01T11:03:50Z</time>
      </trkpt>
      <trkpt lat="45.08595" lon="5.6058">
        <ele>1542.572754</ele>
        <time>2010-04-01T11:03:54Z</time>
      </trkpt>
      <trkpt lat="45.08592" lon="5.60578">
        <ele>1543.053223</ele>
        <time>2010-04-01T11:04:02Z</time>
      </trkpt>
      <trkpt lat="45.08591" lon="5.60577">
        <ele>1547.859863</ele>
        <time>2010-04-01T11:04:08Z</time>
      </trkpt>
      <trkpt lat="45.08578" lon="5.60587">
        <ele>1551.705322</ele>
        <time>2010-04-01T11:04:37Z</time>
      </trkpt>
      <trkpt lat="45.08577" lon="5.60588">
        <ele>1551.705322</ele>
        <time>2010-04-01T11:04:41Z</time>
      </trkpt>
      <trkpt lat="45.08575" lon="5.6059">
        <ele>1553.147217</ele>
        <time>2010-04-01T11:04:46Z</time>
      </trkpt>
      <trkpt lat="45.0857" lon="5.60597">
        <ele>1552.185791</ele>
        <time>2010-04-01T11:04:59Z</time>
      </trkpt>
      <trkpt lat="45.08569" lon="5.60599">
        <ele>1553.62793</ele>
        <time>2010-04-01T11:05:02Z</time>
      </trkpt>
      <trkpt lat="45.08567" lon="5.60604">
        <ele>1555.069824</ele>
        <time>2010-04-01T11:05:08Z</time>
      </trkpt>
      <trkpt lat="45.08565" lon="5.60606">
        <ele>1556.511719</ele>
        <time>2010-04-01T11:05:12Z</time>
      </trkpt>
      <trkpt lat="45.08564" lon="5.6061">
        <ele>1558.915039</ele>
        <time>2010-04-01T11:05:17Z</time>
      </trkpt>
      <trkpt lat="45.08559" lon="5.60617">
        <ele>1561.318359</ele>
        <time>2010-04-01T11:05:31Z</time>
      </trkpt>
      <trkpt lat="45.08556" lon="5.60618">
        <ele>1558.915039</ele>
        <time>2010-04-01T11:05:41Z</time>
      </trkpt>
      <trkpt lat="45.08552" lon="5.60622">
        <ele>1558.434326</ele>
        <time>2010-04-01T11:05:50Z</time>
      </trkpt>
      <trkpt lat="45.08551" lon="5.60625">
        <ele>1557.473145</ele>
        <time>2010-04-01T11:05:56Z</time>
      </trkpt>
      <trkpt lat="45.08551" lon="5.60628">
        <ele>1557.953857</ele>
        <time>2010-04-01T11:05:59Z</time>
      </trkpt>
      <trkpt lat="45.08551" lon="5.60628">
        <ele>1559.395752</ele>
        <time>2010-04-01T11:06:00Z</time>
      </trkpt>
      <trkpt lat="45.08549" lon="5.60633">
        <ele>1562.760254</ele>
        <time>2010-04-01T11:06:05Z</time>
      </trkpt>
      <trkpt lat="45.08547" lon="5.60636">
        <ele>1561.799072</ele>
        <time>2010-04-01T11:06:09Z</time>
      </trkpt>
      <trkpt lat="45.08546" lon="5.60639">
        <ele>1562.279541</ele>
        <time>2010-04-01T11:06:14Z</time>
      </trkpt>
      <trkpt lat="45.08543" lon="5.60641">
        <ele>1561.799072</ele>
        <time>2010-04-01T11:06:18Z</time>
      </trkpt>
      <trkpt lat="45.08543" lon="5.60645">
        <ele>1563.721436</ele>
        <time>2010-04-01T11:06:21Z</time>
      </trkpt>
      <trkpt lat="45.08537" lon="5.6065">
        <ele>1564.683105</ele>
        <time>2010-04-01T11:06:29Z</time>
      </trkpt>
      <trkpt lat="45.08534" lon="5.60652">
        <ele>1564.683105</ele>
        <time>2010-04-01T11:06:33Z</time>
      </trkpt>
      <trkpt lat="45.08531" lon="5.60653">
        <ele>1564.683105</ele>
        <time>2010-04-01T11:06:37Z</time>
      </trkpt>
      <trkpt lat="45.08528" lon="5.60655">
        <ele>1564.202393</ele>
        <time>2010-04-01T11:06:40Z</time>
      </trkpt>
      <trkpt lat="45.08524" lon="5.60656">
        <ele>1564.683105</ele>
        <time>2010-04-01T11:06:45Z</time>
      </trkpt>
      <trkpt lat="45.08518" lon="5.60657">
        <ele>1563.240967</ele>
        <time>2010-04-01T11:06:51Z</time>
      </trkpt>
      <trkpt lat="45.08515" lon="5.60656">
        <ele>1563.240967</ele>
        <time>2010-04-01T11:06:54Z</time>
      </trkpt>
      <trkpt lat="45.0851" lon="5.60656">
        <ele>1565.163818</ele>
        <time>2010-04-01T11:07:00Z</time>
      </trkpt>
      <trkpt lat="45.08505" lon="5.60654">
        <ele>1567.086426</ele>
        <time>2010-04-01T11:07:06Z</time>
      </trkpt>
      <trkpt lat="45.08501" lon="5.60653">
        <ele>1567.566895</ele>
        <time>2010-04-01T11:07:10Z</time>
      </trkpt>
      <trkpt lat="45.08497" lon="5.60653">
        <ele>1566.125</ele>
        <time>2010-04-01T11:07:16Z</time>
      </trkpt>
      <trkpt lat="45.08494" lon="5.60654">
        <ele>1564.683105</ele>
        <time>2010-04-01T11:07:20Z</time>
      </trkpt>
      <trkpt lat="45.0849" lon="5.60655">
        <ele>1562.760254</ele>
        <time>2010-04-01T11:07:25Z</time>
      </trkpt>
      <trkpt lat="45.08487" lon="5.60655">
        <ele>1562.760254</ele>
        <time>2010-04-01T11:07:29Z</time>
      </trkpt>
      <trkpt lat="45.08485" lon="5.60654">
        <ele>1562.279541</ele>
        <time>2010-04-01T11:07:33Z</time>
      </trkpt>
      <trkpt lat="45.08481" lon="5.60655">
        <ele>1561.799072</ele>
        <time>2010-04-01T11:07:39Z</time>
      </trkpt>
      <trkpt lat="45.08478" lon="5.60656">
        <ele>1562.279541</ele>
        <time>2010-04-01T11:07:43Z</time>
      </trkpt>
      <trkpt lat="45.08472" lon="5.60656">
        <ele>1562.760254</ele>
        <time>2010-04-01T11:07:51Z</time>
      </trkpt>
      <trkpt lat="45.08469" lon="5.60657">
        <ele>1564.683105</ele>
        <time>2010-04-01T11:07:57Z</time>
      </trkpt>
      <trkpt lat="45.08466" lon="5.60658">
        <ele>1568.52832</ele>
        <time>2010-04-01T11:08:03Z</time>
      </trkpt>
      <trkpt lat="45.08465" lon="5.60661">
        <ele>1570.931641</ele>
        <time>2010-04-01T11:08:07Z</time>
      </trkpt>
      <trkpt lat="45.08462" lon="5.60664">
        <ele>1573.334961</ele>
        <time>2010-04-01T11:08:12Z</time>
      </trkpt>
      <trkpt lat="45.08461" lon="5.60667">
        <ele>1574.776855</ele>
        <time>2010-04-01T11:08:16Z</time>
      </trkpt>
      <trkpt lat="45.08458" lon="5.60669">
        <ele>1576.699463</ele>
        <time>2010-04-01T11:08:21Z</time>
      </trkpt>
      <trkpt lat="45.08456" lon="5.60672">
        <ele>1576.699463</ele>
        <time>2010-04-01T11:08:26Z</time>
      </trkpt>
      <trkpt lat="45.08455" lon="5.60674">
        <ele>1577.180176</ele>
        <time>2010-04-01T11:08:29Z</time>
      </trkpt>
      <trkpt lat="45.08451" lon="5.60678">
        <ele>1575.738037</ele>
        <time>2010-04-01T11:08:36Z</time>
      </trkpt>
      <trkpt lat="45.08449" lon="5.6068">
        <ele>1577.180176</ele>
        <time>2010-04-01T11:08:41Z</time>
      </trkpt>
      <trkpt lat="45.08448" lon="5.60683">
        <ele>1577.660645</ele>
        <time>2010-04-01T11:08:46Z</time>
      </trkpt>
      <trkpt lat="45.08445" lon="5.60687">
        <ele>1578.62207</ele>
        <time>2010-04-01T11:08:53Z</time>
      </trkpt>
      <trkpt lat="45.08443" lon="5.60688">
        <ele>1579.583252</ele>
        <time>2010-04-01T11:08:57Z</time>
      </trkpt>
      <trkpt lat="45.08441" lon="5.60692">
        <ele>1578.62207</ele>
        <time>2010-04-01T11:09:02Z</time>
      </trkpt>
      <trkpt lat="45.0844" lon="5.60696">
        <ele>1578.141357</ele>
        <time>2010-04-01T11:09:06Z</time>
      </trkpt>
      <trkpt lat="45.08439" lon="5.60699">
        <ele>1579.583252</ele>
        <time>2010-04-01T11:09:10Z</time>
      </trkpt>
      <trkpt lat="45.08439" lon="5.60703">
        <ele>1580.544922</ele>
        <time>2010-04-01T11:09:14Z</time>
      </trkpt>
      <trkpt lat="45.08438" lon="5.60706">
        <ele>1582.467529</ele>
        <time>2010-04-01T11:09:17Z</time>
      </trkpt>
      <trkpt lat="45.08437" lon="5.60709">
        <ele>1584.390137</ele>
        <time>2010-04-01T11:09:20Z</time>
      </trkpt>
      <trkpt lat="45.08435" lon="5.6071">
        <ele>1590.157959</ele>
        <time>2010-04-01T11:09:25Z</time>
      </trkpt>
      <trkpt lat="45.08433" lon="5.60711">
        <ele>1590.638428</ele>
        <time>2010-04-01T11:09:29Z</time>
      </trkpt>
      <trkpt lat="45.08431" lon="5.60715">
        <ele>1590.638428</ele>
        <time>2010-04-01T11:09:33Z</time>
      </trkpt>
      <trkpt lat="45.08429" lon="5.60717">
        <ele>1589.677246</ele>
        <time>2010-04-01T11:09:36Z</time>
      </trkpt>
      <trkpt lat="45.08428" lon="5.60719">
        <ele>1590.157959</ele>
        <time>2010-04-01T11:09:39Z</time>
      </trkpt>
      <trkpt lat="45.08428" lon="5.6072">
        <ele>1589.677246</ele>
        <time>2010-04-01T11:09:43Z</time>
      </trkpt>
      <trkpt lat="45.08428" lon="5.60723">
        <ele>1589.677246</ele>
        <time>2010-04-01T11:09:47Z</time>
      </trkpt>
      <trkpt lat="45.08426" lon="5.60725">
        <ele>1591.119141</ele>
        <time>2010-04-01T11:09:51Z</time>
      </trkpt>
      <trkpt lat="45.08426" lon="5.60727">
        <ele>1590.638428</ele>
        <time>2010-04-01T11:09:54Z</time>
      </trkpt>
      <trkpt lat="45.08426" lon="5.6073">
        <ele>1590.638428</ele>
        <time>2010-04-01T11:09:57Z</time>
      </trkpt>
      <trkpt lat="45.08424" lon="5.60732">
        <ele>1590.638428</ele>
        <time>2010-04-01T11:10:01Z</time>
      </trkpt>
      <trkpt lat="45.08423" lon="5.60737">
        <ele>1590.638428</ele>
        <time>2010-04-01T11:10:06Z</time>
      </trkpt>
      <trkpt lat="45.08422" lon="5.6074">
        <ele>1589.196533</ele>
        <time>2010-04-01T11:10:09Z</time>
      </trkpt>
      <trkpt lat="45.08421" lon="5.60743">
        <ele>1587.754639</ele>
        <time>2010-04-01T11:10:12Z</time>
      </trkpt>
      <trkpt lat="45.0842" lon="5.60744">
        <ele>1587.273926</ele>
        <time>2010-04-01T11:10:16Z</time>
      </trkpt>
      <trkpt lat="45.08418" lon="5.60746">
        <ele>1587.273926</ele>
        <time>2010-04-01T11:10:20Z</time>
      </trkpt>
      <trkpt lat="45.08416" lon="5.60747">
        <ele>1588.235352</ele>
        <time>2010-04-01T11:10:27Z</time>
      </trkpt>
      <trkpt lat="45.08415" lon="5.60748">
        <ele>1588.235352</ele>
        <time>2010-04-01T11:10:32Z</time>
      </trkpt>
      <trkpt lat="45.08412" lon="5.60751">
        <ele>1590.638428</ele>
        <time>2010-04-01T11:10:41Z</time>
      </trkpt>
      <trkpt lat="45.0841" lon="5.60753">
        <ele>1592.080566</ele>
        <time>2010-04-01T11:10:45Z</time>
      </trkpt>
      <trkpt lat="45.08408" lon="5.60757">
        <ele>1592.080566</ele>
        <time>2010-04-01T11:10:49Z</time>
      </trkpt>
      <trkpt lat="45.08406" lon="5.6076">
        <ele>1592.080566</ele>
        <time>2010-04-01T11:10:53Z</time>
      </trkpt>
      <trkpt lat="45.08406" lon="5.60763">
        <ele>1592.561279</ele>
        <time>2010-04-01T11:10:58Z</time>
      </trkpt>
      <trkpt lat="45.08406" lon="5.60767">
        <ele>1593.041748</ele>
        <time>2010-04-01T11:11:02Z</time>
      </trkpt>
      <trkpt lat="45.08406" lon="5.6077">
        <ele>1594.964355</ele>
        <time>2010-04-01T11:11:06Z</time>
      </trkpt>
      <trkpt lat="45.08405" lon="5.60774">
        <ele>1595.925781</ele>
        <time>2010-04-01T11:11:10Z</time>
      </trkpt>
      <trkpt lat="45.08405" lon="5.60777">
        <ele>1596.406738</ele>
        <time>2010-04-01T11:11:14Z</time>
      </trkpt>
      <trkpt lat="45.08406" lon="5.60782">
        <ele>1598.329102</ele>
        <time>2010-04-01T11:11:20Z</time>
      </trkpt>
      <trkpt lat="45.08405" lon="5.60786">
        <ele>1599.290527</ele>
        <time>2010-04-01T11:11:23Z</time>
      </trkpt>
      <trkpt lat="45.08404" lon="5.60789">
        <ele>1600.251953</ele>
        <time>2010-04-01T11:11:26Z</time>
      </trkpt>
      <trkpt lat="45.08401" lon="5.60793">
        <ele>1599.290527</ele>
        <time>2010-04-01T11:11:31Z</time>
      </trkpt>
      <trkpt lat="45.08399" lon="5.60797">
        <ele>1600.732422</ele>
        <time>2010-04-01T11:11:36Z</time>
      </trkpt>
      <trkpt lat="45.084" lon="5.60797">
        <ele>1605.539062</ele>
        <time>2010-04-01T11:11:43Z</time>
      </trkpt>
      <trkpt lat="45.08398" lon="5.60801">
        <ele>1605.05835</ele>
        <time>2010-04-01T11:11:49Z</time>
      </trkpt>
      <trkpt lat="45.08396" lon="5.60804">
        <ele>1604.577637</ele>
        <time>2010-04-01T11:11:53Z</time>
      </trkpt>
      <trkpt lat="45.08394" lon="5.60807">
        <ele>1607.46167</ele>
        <time>2010-04-01T11:11:58Z</time>
      </trkpt>
      <trkpt lat="45.08392" lon="5.60808">
        <ele>1608.422852</ele>
        <time>2010-04-01T11:12:01Z</time>
      </trkpt>
      <trkpt lat="45.08389" lon="5.6081">
        <ele>1607.46167</ele>
        <time>2010-04-01T11:12:06Z</time>
      </trkpt>
      <trkpt lat="45.08385" lon="5.6081">
        <ele>1608.422852</ele>
        <time>2010-04-01T11:12:11Z</time>
      </trkpt>
      <trkpt lat="45.08382" lon="5.60811">
        <ele>1609.864746</ele>
        <time>2010-04-01T11:12:18Z</time>
      </trkpt>
      <trkpt lat="45.0838" lon="5.60813">
        <ele>1613.229736</ele>
        <time>2010-04-01T11:12:24Z</time>
      </trkpt>
      <trkpt lat="45.08376" lon="5.60815">
        <ele>1612.749023</ele>
        <time>2010-04-01T11:12:30Z</time>
      </trkpt>
      <trkpt lat="45.08372" lon="5.60819">
        <ele>1611.306885</ele>
        <time>2010-04-01T11:12:36Z</time>
      </trkpt>
      <trkpt lat="45.0837" lon="5.60823">
        <ele>1610.826172</ele>
        <time>2010-04-01T11:12:41Z</time>
      </trkpt>
      <trkpt lat="45.08367" lon="5.60826">
        <ele>1612.749023</ele>
        <time>2010-04-01T11:12:46Z</time>
      </trkpt>
      <trkpt lat="45.08365" lon="5.60829">
        <ele>1613.710205</ele>
        <time>2010-04-01T11:12:50Z</time>
      </trkpt>
      <trkpt lat="45.08364" lon="5.60833">
        <ele>1613.710205</ele>
        <time>2010-04-01T11:12:53Z</time>
      </trkpt>
      <trkpt lat="45.08363" lon="5.60835">
        <ele>1614.671631</ele>
        <time>2010-04-01T11:12:56Z</time>
      </trkpt>
      <trkpt lat="45.08362" lon="5.60839">
        <ele>1614.671631</ele>
        <time>2010-04-01T11:12:59Z</time>
      </trkpt>
      <trkpt lat="45.08359" lon="5.6084">
        <ele>1615.152344</ele>
        <time>2010-04-01T11:13:02Z</time>
      </trkpt>
      <trkpt lat="45.08356" lon="5.60844">
        <ele>1614.671631</ele>
        <time>2010-04-01T11:13:07Z</time>
      </trkpt>
      <trkpt lat="45.08354" lon="5.60846">
        <ele>1614.190918</ele>
        <time>2010-04-01T11:13:11Z</time>
      </trkpt>
      <trkpt lat="45.08352" lon="5.60851">
        <ele>1615.633057</ele>
        <time>2010-04-01T11:13:17Z</time>
      </trkpt>
      <trkpt lat="45.0835" lon="5.60854">
        <ele>1617.074951</ele>
        <time>2010-04-01T11:13:21Z</time>
      </trkpt>
      <trkpt lat="45.08348" lon="5.60857">
        <ele>1616.594238</ele>
        <time>2010-04-01T11:13:26Z</time>
      </trkpt>
      <trkpt lat="45.08347" lon="5.60861">
        <ele>1616.594238</ele>
        <time>2010-04-01T11:13:30Z</time>
      </trkpt>
      <trkpt lat="45.08346" lon="5.60863">
        <ele>1616.113525</ele>
        <time>2010-04-01T11:13:33Z</time>
      </trkpt>
      <trkpt lat="45.08345" lon="5.60866">
        <ele>1616.113525</ele>
        <time>2010-04-01T11:13:36Z</time>
      </trkpt>
      <trkpt lat="45.08342" lon="5.60868">
        <ele>1618.036133</ele>
        <time>2010-04-01T11:13:40Z</time>
      </trkpt>
      <trkpt lat="45.0834" lon="5.60869">
        <ele>1619.95874</ele>
        <time>2010-04-01T11:13:43Z</time>
      </trkpt>
      <trkpt lat="45.08339" lon="5.60871">
        <ele>1621.881348</ele>
        <time>2010-04-01T11:13:46Z</time>
      </trkpt>
      <trkpt lat="45.08338" lon="5.60873">
        <ele>1624.284668</ele>
        <time>2010-04-01T11:13:49Z</time>
      </trkpt>
      <trkpt lat="45.08336" lon="5.60875">
        <ele>1625.24585</ele>
        <time>2010-04-01T11:13:53Z</time>
      </trkpt>
      <trkpt lat="45.08334" lon="5.60878">
        <ele>1626.687988</ele>
        <time>2010-04-01T11:13:57Z</time>
      </trkpt>
      <trkpt lat="45.08334" lon="5.60882">
        <ele>1631.975342</ele>
        <time>2010-04-01T11:14:03Z</time>
      </trkpt>
      <trkpt lat="45.08332" lon="5.60889">
        <ele>1633.417236</ele>
        <time>2010-04-01T11:14:11Z</time>
      </trkpt>
      <trkpt lat="45.08329" lon="5.60897">
        <ele>1630.533447</ele>
        <time>2010-04-01T11:14:20Z</time>
      </trkpt>
      <trkpt lat="45.08328" lon="5.60903">
        <ele>1629.091309</ele>
        <time>2010-04-01T11:14:25Z</time>
      </trkpt>
      <trkpt lat="45.08327" lon="5.60909">
        <ele>1627.64917</ele>
        <time>2010-04-01T11:14:31Z</time>
      </trkpt>
      <trkpt lat="45.08327" lon="5.60918">
        <ele>1628.130127</ele>
        <time>2010-04-01T11:14:40Z</time>
      </trkpt>
      <trkpt lat="45.08329" lon="5.60921">
        <ele>1632.936523</ele>
        <time>2010-04-01T11:14:56Z</time>
      </trkpt>
      <trkpt lat="45.0833" lon="5.60925">
        <ele>1636.30127</ele>
        <time>2010-04-01T11:15:00Z</time>
      </trkpt>
      <trkpt lat="45.08328" lon="5.60929">
        <ele>1637.262451</ele>
        <time>2010-04-01T11:15:06Z</time>
      </trkpt>
      <trkpt lat="45.08334" lon="5.6093">
        <ele>1646.875732</ele>
        <time>2010-04-01T11:15:27Z</time>
      </trkpt>
      <trkpt lat="45.08333" lon="5.60932">
        <ele>1651.682373</ele>
        <time>2010-04-01T11:15:57Z</time>
      </trkpt>
      <trkpt lat="45.08329" lon="5.60935">
        <ele>1645.914551</ele>
        <time>2010-04-01T11:16:02Z</time>
      </trkpt>
      <trkpt lat="45.08327" lon="5.60937">
        <ele>1646.395264</ele>
        <time>2010-04-01T11:16:06Z</time>
      </trkpt>
      <trkpt lat="45.08324" lon="5.60939">
        <ele>1644.953125</ele>
        <time>2010-04-01T11:16:10Z</time>
      </trkpt>
      <trkpt lat="45.08321" lon="5.60941">
        <ele>1640.626953</ele>
        <time>2010-04-01T11:16:17Z</time>
      </trkpt>
      <trkpt lat="45.08317" lon="5.60944">
        <ele>1638.70459</ele>
        <time>2010-04-01T11:16:22Z</time>
      </trkpt>
      <trkpt lat="45.08315" lon="5.60946">
        <ele>1637.262451</ele>
        <time>2010-04-01T11:16:25Z</time>
      </trkpt>
      <trkpt lat="45.08312" lon="5.60948">
        <ele>1637.262451</ele>
        <time>2010-04-01T11:16:28Z</time>
      </trkpt>
      <trkpt lat="45.08309" lon="5.6095">
        <ele>1635.820557</ele>
        <time>2010-04-01T11:16:32Z</time>
      </trkpt>
      <trkpt lat="45.08308" lon="5.60952">
        <ele>1635.339844</ele>
        <time>2010-04-01T11:16:36Z</time>
      </trkpt>
      <trkpt lat="45.08307" lon="5.60954">
        <ele>1636.30127</ele>
        <time>2010-04-01T11:16:40Z</time>
      </trkpt>
      <trkpt lat="45.08305" lon="5.60957">
        <ele>1636.781738</ele>
        <time>2010-04-01T11:16:45Z</time>
      </trkpt>
      <trkpt lat="45.08304" lon="5.6096">
        <ele>1637.262451</ele>
        <time>2010-04-01T11:16:49Z</time>
      </trkpt>
      <trkpt lat="45.08302" lon="5.60963">
        <ele>1638.223877</ele>
        <time>2010-04-01T11:16:54Z</time>
      </trkpt>
      <trkpt lat="45.083" lon="5.60966">
        <ele>1639.665771</ele>
        <time>2010-04-01T11:17:00Z</time>
      </trkpt>
      <trkpt lat="45.08299" lon="5.60969">
        <ele>1641.107666</ele>
        <time>2010-04-01T11:17:04Z</time>
      </trkpt>
      <trkpt lat="45.08297" lon="5.60971">
        <ele>1642.069092</ele>
        <time>2010-04-01T11:17:08Z</time>
      </trkpt>
      <trkpt lat="45.08296" lon="5.60973">
        <ele>1642.069092</ele>
        <time>2010-04-01T11:17:12Z</time>
      </trkpt>
      <trkpt lat="45.08296" lon="5.6098">
        <ele>1644.953125</ele>
        <time>2010-04-01T11:17:21Z</time>
      </trkpt>
      <trkpt lat="45.08295" lon="5.60988">
        <ele>1644.953125</ele>
        <time>2010-04-01T11:17:32Z</time>
      </trkpt>
      <trkpt lat="45.08295" lon="5.60991">
        <ele>1644.953125</ele>
        <time>2010-04-01T11:17:36Z</time>
      </trkpt>
      <trkpt lat="45.08297" lon="5.60995">
        <ele>1646.395264</ele>
        <time>2010-04-01T11:17:48Z</time>
      </trkpt>
      <trkpt lat="45.08294" lon="5.61">
        <ele>1649.759766</ele>
        <time>2010-04-01T11:18:00Z</time>
      </trkpt>
      <trkpt lat="45.08292" lon="5.61001">
        <ele>1650.240479</ele>
        <time>2010-04-01T11:18:03Z</time>
      </trkpt>
      <trkpt lat="45.08289" lon="5.61003">
        <ele>1652.162842</ele>
        <time>2010-04-01T11:18:07Z</time>
      </trkpt>
      <trkpt lat="45.08286" lon="5.61004">
        <ele>1653.60498</ele>
        <time>2010-04-01T11:18:13Z</time>
      </trkpt>
      <trkpt lat="45.08281" lon="5.61004">
        <ele>1656.008057</ele>
        <time>2010-04-01T11:18:21Z</time>
      </trkpt>
      <trkpt lat="45.08276" lon="5.61003">
        <ele>1658.411377</ele>
        <time>2010-04-01T11:18:32Z</time>
      </trkpt>
      <trkpt lat="45.08274" lon="5.61002">
        <ele>1659.372803</ele>
        <time>2010-04-01T11:18:38Z</time>
      </trkpt>
      <trkpt lat="45.08273" lon="5.61001">
        <ele>1659.853271</ele>
        <time>2010-04-01T11:18:41Z</time>
      </trkpt>
      <trkpt lat="45.08272" lon="5.61">
        <ele>1660.814941</ele>
        <time>2010-04-01T11:18:44Z</time>
      </trkpt>
      <trkpt lat="45.08268" lon="5.61001">
        <ele>1661.295654</ele>
        <time>2010-04-01T11:18:50Z</time>
      </trkpt>
      <trkpt lat="45.08264" lon="5.61">
        <ele>1661.776367</ele>
        <time>2010-04-01T11:18:56Z</time>
      </trkpt>
      <trkpt lat="45.08262" lon="5.61">
        <ele>1662.256836</ele>
        <time>2010-04-01T11:19:01Z</time>
      </trkpt>
      <trkpt lat="45.08258" lon="5.61002">
        <ele>1655.527588</ele>
        <time>2010-04-01T11:19:31Z</time>
      </trkpt>
      <trkpt lat="45.08256" lon="5.61002">
        <ele>1655.527588</ele>
        <time>2010-04-01T11:19:35Z</time>
      </trkpt>
      <trkpt lat="45.08255" lon="5.61003">
        <ele>1655.527588</ele>
        <time>2010-04-01T11:19:39Z</time>
      </trkpt>
      <trkpt lat="45.08256" lon="5.61006">
        <ele>1656.008057</ele>
        <time>2010-04-01T11:19:44Z</time>
      </trkpt>
      <trkpt lat="45.08257" lon="5.61009">
        <ele>1656.48877</ele>
        <time>2010-04-01T11:19:51Z</time>
      </trkpt>
      <trkpt lat="45.08257" lon="5.61012">
        <ele>1656.48877</ele>
        <time>2010-04-01T11:19:55Z</time>
      </trkpt>
      <trkpt lat="45.08258" lon="5.61015">
        <ele>1656.969482</ele>
        <time>2010-04-01T11:19:59Z</time>
      </trkpt>
      <trkpt lat="45.08259" lon="5.61018">
        <ele>1656.969482</ele>
        <time>2010-04-01T11:20:03Z</time>
      </trkpt>
      <trkpt lat="45.08259" lon="5.6102">
        <ele>1656.969482</ele>
        <time>2010-04-01T11:20:06Z</time>
      </trkpt>
      <trkpt lat="45.08262" lon="5.61027">
        <ele>1659.372803</ele>
        <time>2010-04-01T11:20:17Z</time>
      </trkpt>
      <trkpt lat="45.08263" lon="5.61031">
        <ele>1661.295654</ele>
        <time>2010-04-01T11:20:23Z</time>
      </trkpt>
      <trkpt lat="45.08264" lon="5.61035">
        <ele>1663.69873</ele>
        <time>2010-04-01T11:20:29Z</time>
      </trkpt>
      <trkpt lat="45.08265" lon="5.61037">
        <ele>1665.621582</ele>
        <time>2010-04-01T11:20:33Z</time>
      </trkpt>
      <trkpt lat="45.08267" lon="5.61041">
        <ele>1667.543945</ele>
        <time>2010-04-01T11:20:39Z</time>
      </trkpt>
      <trkpt lat="45.08267" lon="5.61041">
        <ele>1669.466797</ele>
        <time>2010-04-01T11:20:45Z</time>
      </trkpt>
      <trkpt lat="45.08263" lon="5.61041">
        <ele>1670.908691</ele>
        <time>2010-04-01T11:20:49Z</time>
      </trkpt>
      <trkpt lat="45.08259" lon="5.6104">
        <ele>1672.350586</ele>
        <time>2010-04-01T11:20:55Z</time>
      </trkpt>
      <trkpt lat="45.08257" lon="5.6104">
        <ele>1673.312012</ele>
        <time>2010-04-01T11:21:01Z</time>
      </trkpt>
      <trkpt lat="45.08253" lon="5.6104">
        <ele>1674.273193</ele>
        <time>2010-04-01T11:21:07Z</time>
      </trkpt>
      <trkpt lat="45.0825" lon="5.61039">
        <ele>1674.273193</ele>
        <time>2010-04-01T11:21:12Z</time>
      </trkpt>
      <trkpt lat="45.08248" lon="5.61039">
        <ele>1674.753906</ele>
        <time>2010-04-01T11:21:17Z</time>
      </trkpt>
      <trkpt lat="45.08244" lon="5.61039">
        <ele>1674.753906</ele>
        <time>2010-04-01T11:21:22Z</time>
      </trkpt>
      <trkpt lat="45.08241" lon="5.61038">
        <ele>1675.234375</ele>
        <time>2010-04-01T11:21:25Z</time>
      </trkpt>
      <trkpt lat="45.08238" lon="5.61038">
        <ele>1675.715088</ele>
        <time>2010-04-01T11:21:31Z</time>
      </trkpt>
      <trkpt lat="45.08235" lon="5.61039">
        <ele>1675.234375</ele>
        <time>2010-04-01T11:21:37Z</time>
      </trkpt>
      <trkpt lat="45.08232" lon="5.61039">
        <ele>1675.234375</ele>
        <time>2010-04-01T11:21:43Z</time>
      </trkpt>
      <trkpt lat="45.08229" lon="5.61038">
        <ele>1676.196045</ele>
        <time>2010-04-01T11:21:47Z</time>
      </trkpt>
      <trkpt lat="45.0823" lon="5.61037">
        <ele>1676.676758</ele>
        <time>2010-04-01T11:22:00Z</time>
      </trkpt>
      <trkpt lat="45.08227" lon="5.61037">
        <ele>1677.157471</ele>
        <time>2010-04-01T11:22:06Z</time>
      </trkpt>
      <trkpt lat="45.08224" lon="5.61037">
        <ele>1677.637939</ele>
        <time>2010-04-01T11:22:10Z</time>
      </trkpt>
      <trkpt lat="45.08221" lon="5.61036">
        <ele>1679.079834</ele>
        <time>2010-04-01T11:22:16Z</time>
      </trkpt>
      <trkpt lat="45.08218" lon="5.61035">
        <ele>1679.560547</ele>
        <time>2010-04-01T11:22:20Z</time>
      </trkpt>
      <trkpt lat="45.08216" lon="5.61035">
        <ele>1681.002686</ele>
        <time>2010-04-01T11:22:24Z</time>
      </trkpt>
      <trkpt lat="45.08212" lon="5.61033">
        <ele>1682.44458</ele>
        <time>2010-04-01T11:22:32Z</time>
      </trkpt>
      <trkpt lat="45.08211" lon="5.61033">
        <ele>1682.925049</ele>
        <time>2010-04-01T11:22:36Z</time>
      </trkpt>
      <trkpt lat="45.08212" lon="5.61034">
        <ele>1683.405762</ele>
        <time>2010-04-01T11:22:41Z</time>
      </trkpt>
      <trkpt lat="45.08213" lon="5.61039">
        <ele>1682.44458</ele>
        <time>2010-04-01T11:22:45Z</time>
      </trkpt>
      <trkpt lat="45.08214" lon="5.61042">
        <ele>1681.002686</ele>
        <time>2010-04-01T11:22:48Z</time>
      </trkpt>
      <trkpt lat="45.08214" lon="5.61045">
        <ele>1680.521973</ele>
        <time>2010-04-01T11:22:52Z</time>
      </trkpt>
      <trkpt lat="45.08214" lon="5.61049">
        <ele>1681.002686</ele>
        <time>2010-04-01T11:22:57Z</time>
      </trkpt>
      <trkpt lat="45.08214" lon="5.61051">
        <ele>1681.002686</ele>
        <time>2010-04-01T11:23:00Z</time>
      </trkpt>
      <trkpt lat="45.08216" lon="5.61055">
        <ele>1681.483154</ele>
        <time>2010-04-01T11:23:04Z</time>
      </trkpt>
      <trkpt lat="45.08216" lon="5.61058">
        <ele>1682.44458</ele>
        <time>2010-04-01T11:23:09Z</time>
      </trkpt>
      <trkpt lat="45.08218" lon="5.61061">
        <ele>1682.44458</ele>
        <time>2010-04-01T11:23:12Z</time>
      </trkpt>
      <trkpt lat="45.08219" lon="5.61063">
        <ele>1683.405762</ele>
        <time>2010-04-01T11:23:16Z</time>
      </trkpt>
      <trkpt lat="45.08221" lon="5.61066">
        <ele>1684.8479</ele>
        <time>2010-04-01T11:23:20Z</time>
      </trkpt>
      <trkpt lat="45.08224" lon="5.61067">
        <ele>1686.770264</ele>
        <time>2010-04-01T11:23:31Z</time>
      </trkpt>
      <trkpt lat="45.08225" lon="5.61071">
        <ele>1685.809082</ele>
        <time>2010-04-01T11:23:36Z</time>
      </trkpt>
      <trkpt lat="45.08226" lon="5.61073">
        <ele>1685.809082</ele>
        <time>2010-04-01T11:23:39Z</time>
      </trkpt>
      <trkpt lat="45.08228" lon="5.61075">
        <ele>1686.770264</ele>
        <time>2010-04-01T11:23:43Z</time>
      </trkpt>
      <trkpt lat="45.08231" lon="5.61078">
        <ele>1686.770264</ele>
        <time>2010-04-01T11:23:47Z</time>
      </trkpt>
      <trkpt lat="45.08233" lon="5.61079">
        <ele>1687.250977</ele>
        <time>2010-04-01T11:23:51Z</time>
      </trkpt>
      <trkpt lat="45.08235" lon="5.61082">
        <ele>1687.731689</ele>
        <time>2010-04-01T11:23:55Z</time>
      </trkpt>
      <trkpt lat="45.08239" lon="5.61083">
        <ele>1688.693115</ele>
        <time>2010-04-01T11:24:01Z</time>
      </trkpt>
      <trkpt lat="45.08242" lon="5.61084">
        <ele>1690.13501</ele>
        <time>2010-04-01T11:24:06Z</time>
      </trkpt>
      <trkpt lat="45.08246" lon="5.61084">
        <ele>1690.615479</ele>
        <time>2010-04-01T11:24:11Z</time>
      </trkpt>
      <trkpt lat="45.08248" lon="5.61083">
        <ele>1692.057861</ele>
        <time>2010-04-01T11:24:15Z</time>
      </trkpt>
      <trkpt lat="45.0825" lon="5.61083">
        <ele>1693.499756</ele>
        <time>2010-04-01T11:24:23Z</time>
      </trkpt>
      <trkpt lat="45.08253" lon="5.61082">
        <ele>1693.980469</ele>
        <time>2010-04-01T11:24:28Z</time>
      </trkpt>
      <trkpt lat="45.08259" lon="5.61082">
        <ele>1694.460938</ele>
        <time>2010-04-01T11:24:36Z</time>
      </trkpt>
      <trkpt lat="45.08262" lon="5.61081">
        <ele>1694.460938</ele>
        <time>2010-04-01T11:24:42Z</time>
      </trkpt>
      <trkpt lat="45.08266" lon="5.6108">
        <ele>1693.499756</ele>
        <time>2010-04-01T11:24:52Z</time>
      </trkpt>
      <trkpt lat="45.08269" lon="5.61079">
        <ele>1693.980469</ele>
        <time>2010-04-01T11:24:55Z</time>
      </trkpt>
      <trkpt lat="45.08273" lon="5.61076">
        <ele>1695.422363</ele>
        <time>2010-04-01T11:25:00Z</time>
      </trkpt>
      <trkpt lat="45.08274" lon="5.61076">
        <ele>1695.422363</ele>
        <time>2010-04-01T11:25:01Z</time>
      </trkpt>
      <trkpt lat="45.0828" lon="5.61071">
        <ele>1697.344971</ele>
        <time>2010-04-01T11:25:08Z</time>
      </trkpt>
      <trkpt lat="45.08282" lon="5.6107">
        <ele>1698.786865</ele>
        <time>2010-04-01T11:25:13Z</time>
      </trkpt>
      <trkpt lat="45.08282" lon="5.6107">
        <ele>1699.267578</ele>
        <time>2010-04-01T11:25:20Z</time>
      </trkpt>
      <trkpt lat="45.08281" lon="5.61065">
        <ele>1704.554688</ele>
        <time>2010-04-01T11:25:42Z</time>
      </trkpt>
      <trkpt lat="45.08284" lon="5.61064">
        <ele>1705.516113</ele>
        <time>2010-04-01T11:26:04Z</time>
      </trkpt>
      <trkpt lat="45.08287" lon="5.61067">
        <ele>1704.074219</ele>
        <time>2010-04-01T11:26:08Z</time>
      </trkpt>
      <trkpt lat="45.0829" lon="5.61069">
        <ele>1703.593506</ele>
        <time>2010-04-01T11:26:13Z</time>
      </trkpt>
      <trkpt lat="45.08293" lon="5.61069">
        <ele>1704.074219</ele>
        <time>2010-04-01T11:26:17Z</time>
      </trkpt>
      <trkpt lat="45.08296" lon="5.61071">
        <ele>1703.112793</ele>
        <time>2010-04-01T11:26:22Z</time>
      </trkpt>
      <trkpt lat="45.08299" lon="5.61072">
        <ele>1703.593506</ele>
        <time>2010-04-01T11:26:27Z</time>
      </trkpt>
      <trkpt lat="45.08301" lon="5.61072">
        <ele>1704.554688</ele>
        <time>2010-04-01T11:26:32Z</time>
      </trkpt>
      <trkpt lat="45.08302" lon="5.61073">
        <ele>1704.554688</ele>
        <time>2010-04-01T11:26:37Z</time>
      </trkpt>
      <trkpt lat="45.08303" lon="5.61072">
        <ele>1704.554688</ele>
        <time>2010-04-01T11:26:49Z</time>
      </trkpt>
      <trkpt lat="45.08303" lon="5.61072">
        <ele>1703.593506</ele>
        <time>2010-04-01T11:26:55Z</time>
      </trkpt>
      <trkpt lat="45.08306" lon="5.61073">
        <ele>1703.593506</ele>
        <time>2010-04-01T11:27:03Z</time>
      </trkpt>
      <trkpt lat="45.08308" lon="5.61074">
        <ele>1704.554688</ele>
        <time>2010-04-01T11:27:07Z</time>
      </trkpt>
      <trkpt lat="45.08309" lon="5.61074">
        <ele>1704.554688</ele>
        <time>2010-04-01T11:27:08Z</time>
      </trkpt>
      <trkpt lat="45.08316" lon="5.61074">
        <ele>1705.0354</ele>
        <time>2010-04-01T11:27:13Z</time>
      </trkpt>
      <trkpt lat="45.08318" lon="5.61075">
        <ele>1706.477295</ele>
        <time>2010-04-01T11:27:17Z</time>
      </trkpt>
      <trkpt lat="45.08318" lon="5.61078">
        <ele>1707.438721</ele>
        <time>2010-04-01T11:27:21Z</time>
      </trkpt>
      <trkpt lat="45.08319" lon="5.61081">
        <ele>1708.400146</ele>
        <time>2010-04-01T11:27:25Z</time>
      </trkpt>
      <trkpt lat="45.08321" lon="5.61084">
        <ele>1708.880859</ele>
        <time>2010-04-01T11:27:29Z</time>
      </trkpt>
      <trkpt lat="45.08324" lon="5.61087">
        <ele>1707.919434</ele>
        <time>2010-04-01T11:27:37Z</time>
      </trkpt>
      <trkpt lat="45.08326" lon="5.61089">
        <ele>1707.438721</ele>
        <time>2010-04-01T11:27:39Z</time>
      </trkpt>
      <trkpt lat="45.08331" lon="5.61095">
        <ele>1705.996582</ele>
        <time>2010-04-01T11:27:44Z</time>
      </trkpt>
      <trkpt lat="45.08332" lon="5.611">
        <ele>1704.554688</ele>
        <time>2010-04-01T11:27:48Z</time>
      </trkpt>
      <trkpt lat="45.08333" lon="5.61107">
        <ele>1705.516113</ele>
        <time>2010-04-01T11:27:54Z</time>
      </trkpt>
      <trkpt lat="45.08333" lon="5.61111">
        <ele>1706.477295</ele>
        <time>2010-04-01T11:27:58Z</time>
      </trkpt>
      <trkpt lat="45.08333" lon="5.61117">
        <ele>1706.477295</ele>
        <time>2010-04-01T11:28:03Z</time>
      </trkpt>
      <trkpt lat="45.08332" lon="5.61121">
        <ele>1707.438721</ele>
        <time>2010-04-01T11:28:07Z</time>
      </trkpt>
      <trkpt lat="45.08333" lon="5.61125">
        <ele>1708.400146</ele>
        <time>2010-04-01T11:28:10Z</time>
      </trkpt>
      <trkpt lat="45.08333" lon="5.61129">
        <ele>1708.880859</ele>
        <time>2010-04-01T11:28:14Z</time>
      </trkpt>
      <trkpt lat="45.08335" lon="5.61133">
        <ele>1709.361572</ele>
        <time>2010-04-01T11:28:18Z</time>
      </trkpt>
      <trkpt lat="45.08336" lon="5.61138">
        <ele>1710.322754</ele>
        <time>2010-04-01T11:28:22Z</time>
      </trkpt>
      <trkpt lat="45.08336" lon="5.61142">
        <ele>1709.842041</ele>
        <time>2010-04-01T11:28:26Z</time>
      </trkpt>
      <trkpt lat="45.08337" lon="5.61146">
        <ele>1710.322754</ele>
        <time>2010-04-01T11:28:30Z</time>
      </trkpt>
      <trkpt lat="45.08337" lon="5.61151">
        <ele>1710.322754</ele>
        <time>2010-04-01T11:28:34Z</time>
      </trkpt>
      <trkpt lat="45.08338" lon="5.61155">
        <ele>1710.803467</ele>
        <time>2010-04-01T11:28:38Z</time>
      </trkpt>
      <trkpt lat="45.08339" lon="5.61161">
        <ele>1711.28418</ele>
        <time>2010-04-01T11:28:43Z</time>
      </trkpt>
      <trkpt lat="45.08339" lon="5.61165">
        <ele>1711.764893</ele>
        <time>2010-04-01T11:28:47Z</time>
      </trkpt>
      <trkpt lat="45.08338" lon="5.61169">
        <ele>1712.245361</ele>
        <time>2010-04-01T11:28:51Z</time>
      </trkpt>
      <trkpt lat="45.08338" lon="5.61175">
        <ele>1713.206787</ele>
        <time>2010-04-01T11:28:57Z</time>
      </trkpt>
      <trkpt lat="45.08338" lon="5.6118">
        <ele>1714.167969</ele>
        <time>2010-04-01T11:29:02Z</time>
      </trkpt>
      <trkpt lat="45.08339" lon="5.61184">
        <ele>1714.648682</ele>
        <time>2010-04-01T11:29:06Z</time>
      </trkpt>
      <trkpt lat="45.08338" lon="5.61188">
        <ele>1715.129395</ele>
        <time>2010-04-01T11:29:11Z</time>
      </trkpt>
      <trkpt lat="45.08337" lon="5.61192">
        <ele>1715.610107</ele>
        <time>2010-04-01T11:29:15Z</time>
      </trkpt>
      <trkpt lat="45.08336" lon="5.61195">
        <ele>1716.090576</ele>
        <time>2010-04-01T11:29:19Z</time>
      </trkpt>
      <trkpt lat="45.08336" lon="5.612">
        <ele>1716.571289</ele>
        <time>2010-04-01T11:29:24Z</time>
      </trkpt>
      <trkpt lat="45.08336" lon="5.61205">
        <ele>1717.532471</ele>
        <time>2010-04-01T11:29:30Z</time>
      </trkpt>
      <trkpt lat="45.08336" lon="5.6121">
        <ele>1718.013184</ele>
        <time>2010-04-01T11:29:35Z</time>
      </trkpt>
      <trkpt lat="45.08336" lon="5.61214">
        <ele>1718.974609</ele>
        <time>2010-04-01T11:29:39Z</time>
      </trkpt>
      <trkpt lat="45.08336" lon="5.61218">
        <ele>1719.935791</ele>
        <time>2010-04-01T11:29:45Z</time>
      </trkpt>
      <trkpt lat="45.08336" lon="5.61221">
        <ele>1720.416504</ele>
        <time>2010-04-01T11:29:51Z</time>
      </trkpt>
      <trkpt lat="45.08335" lon="5.61224">
        <ele>1720.897217</ele>
        <time>2010-04-01T11:29:55Z</time>
      </trkpt>
      <trkpt lat="45.08334" lon="5.61227">
        <ele>1721.858398</ele>
        <time>2010-04-01T11:29:58Z</time>
      </trkpt>
      <trkpt lat="45.08335" lon="5.61231">
        <ele>1722.819824</ele>
        <time>2010-04-01T11:30:02Z</time>
      </trkpt>
      <trkpt lat="45.08335" lon="5.61237">
        <ele>1724.742676</ele>
        <time>2010-04-01T11:30:08Z</time>
      </trkpt>
      <trkpt lat="45.08334" lon="5.61241">
        <ele>1726.18457</ele>
        <time>2010-04-01T11:30:13Z</time>
      </trkpt>
      <trkpt lat="45.08334" lon="5.61247">
        <ele>1727.145996</ele>
        <time>2010-04-01T11:30:20Z</time>
      </trkpt>
      <trkpt lat="45.08332" lon="5.61249">
        <ele>1726.665283</ele>
        <time>2010-04-01T11:30:23Z</time>
      </trkpt>
      <trkpt lat="45.08331" lon="5.61251">
        <ele>1726.665283</ele>
        <time>2010-04-01T11:30:26Z</time>
      </trkpt>
      <trkpt lat="45.0833" lon="5.61255">
        <ele>1727.145996</ele>
        <time>2010-04-01T11:30:31Z</time>
      </trkpt>
      <trkpt lat="45.08329" lon="5.61257">
        <ele>1727.145996</ele>
        <time>2010-04-01T11:30:34Z</time>
      </trkpt>
      <trkpt lat="45.08328" lon="5.61259">
        <ele>1727.145996</ele>
        <time>2010-04-01T11:30:38Z</time>
      </trkpt>
      <trkpt lat="45.08328" lon="5.61262">
        <ele>1727.626465</ele>
        <time>2010-04-01T11:30:43Z</time>
      </trkpt>
      <trkpt lat="45.08327" lon="5.61264">
        <ele>1728.107178</ele>
        <time>2010-04-01T11:30:47Z</time>
      </trkpt>
      <trkpt lat="45.08325" lon="5.61267">
        <ele>1729.549072</ele>
        <time>2010-04-01T11:30:52Z</time>
      </trkpt>
      <trkpt lat="45.08326" lon="5.61269">
        <ele>1729.549072</ele>
        <time>2010-04-01T11:30:55Z</time>
      </trkpt>
      <trkpt lat="45.08324" lon="5.61273">
        <ele>1730.029785</ele>
        <time>2010-04-01T11:31:00Z</time>
      </trkpt>
      <trkpt lat="45.08323" lon="5.61275">
        <ele>1730.510498</ele>
        <time>2010-04-01T11:31:04Z</time>
      </trkpt>
      <trkpt lat="45.08321" lon="5.61279">
        <ele>1730.991211</ele>
        <time>2010-04-01T11:31:09Z</time>
      </trkpt>
      <trkpt lat="45.08319" lon="5.61281">
        <ele>1731.47168</ele>
        <time>2010-04-01T11:31:13Z</time>
      </trkpt>
      <trkpt lat="45.08316" lon="5.61283">
        <ele>1731.952393</ele>
        <time>2010-04-01T11:31:19Z</time>
      </trkpt>
      <trkpt lat="45.08314" lon="5.61285">
        <ele>1732.433105</ele>
        <time>2010-04-01T11:31:23Z</time>
      </trkpt>
      <trkpt lat="45.08312" lon="5.61288">
        <ele>1732.913574</ele>
        <time>2010-04-01T11:31:29Z</time>
      </trkpt>
      <trkpt lat="45.0831" lon="5.6129">
        <ele>1733.875</ele>
        <time>2010-04-01T11:31:34Z</time>
      </trkpt>
      <trkpt lat="45.08309" lon="5.61295">
        <ele>1734.836426</ele>
        <time>2010-04-01T11:31:41Z</time>
      </trkpt>
      <trkpt lat="45.08309" lon="5.61298">
        <ele>1735.797607</ele>
        <time>2010-04-01T11:31:45Z</time>
      </trkpt>
      <trkpt lat="45.08309" lon="5.61303">
        <ele>1737.239502</ele>
        <time>2010-04-01T11:31:51Z</time>
      </trkpt>
      <trkpt lat="45.0831" lon="5.61307">
        <ele>1737.720215</ele>
        <time>2010-04-01T11:31:56Z</time>
      </trkpt>
      <trkpt lat="45.08311" lon="5.61313">
        <ele>1738.681641</ele>
        <time>2010-04-01T11:32:03Z</time>
      </trkpt>
      <trkpt lat="45.08311" lon="5.61317">
        <ele>1739.642822</ele>
        <time>2010-04-01T11:32:07Z</time>
      </trkpt>
      <trkpt lat="45.08312" lon="5.6132">
        <ele>1740.123779</ele>
        <time>2010-04-01T11:32:11Z</time>
      </trkpt>
      <trkpt lat="45.08312" lon="5.61325">
        <ele>1741.084961</ele>
        <time>2010-04-01T11:32:16Z</time>
      </trkpt>
      <trkpt lat="45.08312" lon="5.6133">
        <ele>1741.565674</ele>
        <time>2010-04-01T11:32:21Z</time>
      </trkpt>
      <trkpt lat="45.08314" lon="5.61339">
        <ele>1742.046387</ele>
        <time>2010-04-01T11:32:29Z</time>
      </trkpt>
      <trkpt lat="45.08314" lon="5.61344">
        <ele>1742.5271</ele>
        <time>2010-04-01T11:32:35Z</time>
      </trkpt>
      <trkpt lat="45.08313" lon="5.61349">
        <ele>1742.5271</ele>
        <time>2010-04-01T11:32:40Z</time>
      </trkpt>
      <trkpt lat="45.08313" lon="5.61351">
        <ele>1743.007568</ele>
        <time>2010-04-01T11:32:49Z</time>
      </trkpt>
      <trkpt lat="45.08312" lon="5.61353">
        <ele>1743.007568</ele>
        <time>2010-04-01T11:32:56Z</time>
      </trkpt>
      <trkpt lat="45.08311" lon="5.61352">
        <ele>1743.007568</ele>
        <time>2010-04-01T11:33:02Z</time>
      </trkpt>
      <trkpt lat="45.08311" lon="5.61346">
        <ele>1743.007568</ele>
        <time>2010-04-01T11:33:07Z</time>
      </trkpt>
      <trkpt lat="45.08312" lon="5.61343">
        <ele>1743.488281</ele>
        <time>2010-04-01T11:33:12Z</time>
      </trkpt>
      <trkpt lat="45.08312" lon="5.61343">
        <ele>1743.968994</ele>
        <time>2010-04-01T11:33:19Z</time>
      </trkpt>
      <trkpt lat="45.08312" lon="5.61343">
        <ele>1741.565674</ele>
        <time>2010-04-01T11:33:37Z</time>
      </trkpt>
      <trkpt lat="45.0831" lon="5.61336">
        <ele>1741.084961</ele>
        <time>2010-04-01T11:33:44Z</time>
      </trkpt>
      <trkpt lat="45.08308" lon="5.6133">
        <ele>1741.565674</ele>
        <time>2010-04-01T11:33:51Z</time>
      </trkpt>
      <trkpt lat="45.08309" lon="5.61331">
        <ele>1742.046387</ele>
        <time>2010-04-01T11:34:08Z</time>
      </trkpt>
      <trkpt lat="45.08308" lon="5.61326">
        <ele>1743.968994</ele>
        <time>2010-04-01T11:34:41Z</time>
      </trkpt>
      <trkpt lat="45.08308" lon="5.61327">
        <ele>1743.968994</ele>
        <time>2010-04-01T11:34:46Z</time>
      </trkpt>
      <trkpt lat="45.08308" lon="5.61325">
        <ele>1743.968994</ele>
        <time>2010-04-01T11:34:52Z</time>
      </trkpt>
      <trkpt lat="45.08306" lon="5.61318">
        <ele>1743.488281</ele>
        <time>2010-04-01T11:34:59Z</time>
      </trkpt>
      <trkpt lat="45.08304" lon="5.61308">
        <ele>1742.5271</ele>
        <time>2010-04-01T11:35:06Z</time>
      </trkpt>
      <trkpt lat="45.08303" lon="5.61304">
        <ele>1741.565674</ele>
        <time>2010-04-01T11:35:11Z</time>
      </trkpt>
      <trkpt lat="45.08302" lon="5.61302">
        <ele>1741.565674</ele>
        <time>2010-04-01T11:35:17Z</time>
      </trkpt>
      <trkpt lat="45.08302" lon="5.61299">
        <ele>1742.046387</ele>
        <time>2010-04-01T11:35:19Z</time>
      </trkpt>
      <trkpt lat="45.08298" lon="5.61284">
        <ele>1741.565674</ele>
        <time>2010-04-01T11:35:28Z</time>
      </trkpt>
      <trkpt lat="45.08297" lon="5.6127">
        <ele>1739.162109</ele>
        <time>2010-04-01T11:35:35Z</time>
      </trkpt>
      <trkpt lat="45.08297" lon="5.61261">
        <ele>1738.200928</ele>
        <time>2010-04-01T11:35:39Z</time>
      </trkpt>
      <trkpt lat="45.08298" lon="5.61255">
        <ele>1737.720215</ele>
        <time>2010-04-01T11:35:43Z</time>
      </trkpt>
      <trkpt lat="45.083" lon="5.61248">
        <ele>1737.239502</ele>
        <time>2010-04-01T11:35:47Z</time>
      </trkpt>
      <trkpt lat="45.083" lon="5.61243">
        <ele>1738.200928</ele>
        <time>2010-04-01T11:35:51Z</time>
      </trkpt>
      <trkpt lat="45.08298" lon="5.6124">
        <ele>1740.123779</ele>
        <time>2010-04-01T11:35:59Z</time>
      </trkpt>
      <trkpt lat="45.08295" lon="5.61237">
        <ele>1742.046387</ele>
        <time>2010-04-01T11:36:03Z</time>
      </trkpt>
      <trkpt lat="45.08293" lon="5.61235">
        <ele>1743.968994</ele>
        <time>2010-04-01T11:36:07Z</time>
      </trkpt>
      <trkpt lat="45.08292" lon="5.61234">
        <ele>1744.449463</ele>
        <time>2010-04-01T11:36:11Z</time>
      </trkpt>
      <trkpt lat="45.0829" lon="5.61233">
        <ele>1744.930176</ele>
        <time>2010-04-01T11:36:16Z</time>
      </trkpt>
      <trkpt lat="45.08287" lon="5.61232">
        <ele>1745.410889</ele>
        <time>2010-04-01T11:36:25Z</time>
      </trkpt>
      <trkpt lat="45.08284" lon="5.61231">
        <ele>1745.891602</ele>
        <time>2010-04-01T11:36:30Z</time>
      </trkpt>
      <trkpt lat="45.08284" lon="5.61232">
        <ele>1745.410889</ele>
        <time>2010-04-01T11:36:35Z</time>
      </trkpt>
      <trkpt lat="45.08284" lon="5.61233">
        <ele>1745.410889</ele>
        <time>2010-04-01T11:36:36Z</time>
      </trkpt>
      <trkpt lat="45.08285" lon="5.6124">
        <ele>1746.852783</ele>
        <time>2010-04-01T11:36:42Z</time>
      </trkpt>
      <trkpt lat="45.08284" lon="5.61244">
        <ele>1746.372314</ele>
        <time>2010-04-01T11:36:46Z</time>
      </trkpt>
      <trkpt lat="45.08283" lon="5.61249">
        <ele>1747.814209</ele>
        <time>2010-04-01T11:36:52Z</time>
      </trkpt>
      <trkpt lat="45.08281" lon="5.61251">
        <ele>1748.294678</ele>
        <time>2010-04-01T11:36:57Z</time>
      </trkpt>
      <trkpt lat="45.08281" lon="5.61251">
        <ele>1748.775391</ele>
        <time>2010-04-01T11:37:01Z</time>
      </trkpt>
      <trkpt lat="45.08279" lon="5.61249">
        <ele>1748.775391</ele>
        <time>2010-04-01T11:37:05Z</time>
      </trkpt>
      <trkpt lat="45.08277" lon="5.61246">
        <ele>1749.256104</ele>
        <time>2010-04-01T11:37:09Z</time>
      </trkpt>
      <trkpt lat="45.08275" lon="5.61242">
        <ele>1750.217529</ele>
        <time>2010-04-01T11:37:14Z</time>
      </trkpt>
      <trkpt lat="45.08274" lon="5.6124">
        <ele>1750.697998</ele>
        <time>2010-04-01T11:37:19Z</time>
      </trkpt>
      <trkpt lat="45.08272" lon="5.61237">
        <ele>1751.178711</ele>
        <time>2010-04-01T11:37:22Z</time>
      </trkpt>
      <trkpt lat="45.08269" lon="5.61234">
        <ele>1750.697998</ele>
        <time>2010-04-01T11:37:27Z</time>
      </trkpt>
      <trkpt lat="45.08265" lon="5.61232">
        <ele>1752.620605</ele>
        <time>2010-04-01T11:37:34Z</time>
      </trkpt>
      <trkpt lat="45.08262" lon="5.61229">
        <ele>1754.543213</ele>
        <time>2010-04-01T11:37:41Z</time>
      </trkpt>
      <trkpt lat="45.0826" lon="5.61228">
        <ele>1755.023926</ele>
        <time>2010-04-01T11:37:46Z</time>
      </trkpt>
      <trkpt lat="45.08259" lon="5.61228">
        <ele>1755.504639</ele>
        <time>2010-04-01T11:37:49Z</time>
      </trkpt>
      <trkpt lat="45.08259" lon="5.61232">
        <ele>1756.466064</ele>
        <time>2010-04-01T11:37:54Z</time>
      </trkpt>
      <trkpt lat="45.08261" lon="5.61236">
        <ele>1756.946777</ele>
        <time>2010-04-01T11:37:57Z</time>
      </trkpt>
      <trkpt lat="45.08261" lon="5.61239">
        <ele>1757.42749</ele>
        <time>2010-04-01T11:38:00Z</time>
      </trkpt>
      <trkpt lat="45.08263" lon="5.61246">
        <ele>1758.869385</ele>
        <time>2010-04-01T11:38:06Z</time>
      </trkpt>
      <trkpt lat="45.08261" lon="5.6125">
        <ele>1758.388672</ele>
        <time>2010-04-01T11:38:09Z</time>
      </trkpt>
      <trkpt lat="45.08258" lon="5.61254">
        <ele>1757.42749</ele>
        <time>2010-04-01T11:38:13Z</time>
      </trkpt>
      <trkpt lat="45.08257" lon="5.61255">
        <ele>1757.42749</ele>
        <time>2010-04-01T11:38:17Z</time>
      </trkpt>
      <trkpt lat="45.08255" lon="5.61253">
        <ele>1756.946777</ele>
        <time>2010-04-01T11:38:23Z</time>
      </trkpt>
      <trkpt lat="45.08255" lon="5.61251">
        <ele>1756.466064</ele>
        <time>2010-04-01T11:38:30Z</time>
      </trkpt>
      <trkpt lat="45.08255" lon="5.61251">
        <ele>1756.466064</ele>
        <time>2010-04-01T11:38:37Z</time>
      </trkpt>
      <trkpt lat="45.08255" lon="5.61251">
        <ele>1755.985107</ele>
        <time>2010-04-01T11:38:49Z</time>
      </trkpt>
      <trkpt lat="45.08253" lon="5.61248">
        <ele>1757.42749</ele>
        <time>2010-04-01T11:39:05Z</time>
      </trkpt>
      <trkpt lat="45.08251" lon="5.61246">
        <ele>1757.908203</ele>
        <time>2010-04-01T11:39:09Z</time>
      </trkpt>
      <trkpt lat="45.08248" lon="5.61244">
        <ele>1759.350098</ele>
        <time>2010-04-01T11:39:13Z</time>
      </trkpt>
      <trkpt lat="45.08248" lon="5.61242">
        <ele>1759.350098</ele>
        <time>2010-04-01T11:39:17Z</time>
      </trkpt>
      <trkpt lat="45.08245" lon="5.6124">
        <ele>1760.791992</ele>
        <time>2010-04-01T11:39:21Z</time>
      </trkpt>
      <trkpt lat="45.08242" lon="5.61238">
        <ele>1761.272705</ele>
        <time>2010-04-01T11:39:26Z</time>
      </trkpt>
      <trkpt lat="45.08239" lon="5.61235">
        <ele>1763.195312</ele>
        <time>2010-04-01T11:39:31Z</time>
      </trkpt>
      <trkpt lat="45.08236" lon="5.61233">
        <ele>1764.156494</ele>
        <time>2010-04-01T11:39:36Z</time>
      </trkpt>
      <trkpt lat="45.08231" lon="5.61232">
        <ele>1765.11792</ele>
        <time>2010-04-01T11:39:44Z</time>
      </trkpt>
      <trkpt lat="45.08228" lon="5.61231">
        <ele>1766.559814</ele>
        <time>2010-04-01T11:39:51Z</time>
      </trkpt>
      <trkpt lat="45.08226" lon="5.6123">
        <ele>1766.079102</ele>
        <time>2010-04-01T11:40:05Z</time>
      </trkpt>
      <trkpt lat="45.08222" lon="5.61229">
        <ele>1766.079102</ele>
        <time>2010-04-01T11:40:11Z</time>
      </trkpt>
      <trkpt lat="45.08215" lon="5.61225">
        <ele>1766.559814</ele>
        <time>2010-04-01T11:40:20Z</time>
      </trkpt>
      <trkpt lat="45.08211" lon="5.61222">
        <ele>1766.079102</ele>
        <time>2010-04-01T11:40:26Z</time>
      </trkpt>
      <trkpt lat="45.08211" lon="5.61221">
        <ele>1766.559814</ele>
        <time>2010-04-01T11:40:34Z</time>
      </trkpt>
      <trkpt lat="45.0821" lon="5.6122">
        <ele>1766.559814</ele>
        <time>2010-04-01T11:40:43Z</time>
      </trkpt>
      <trkpt lat="45.08207" lon="5.61217">
        <ele>1768.001709</ele>
        <time>2010-04-01T11:40:49Z</time>
      </trkpt>
      <trkpt lat="45.08205" lon="5.61214">
        <ele>1768.001709</ele>
        <time>2010-04-01T11:40:54Z</time>
      </trkpt>
      <trkpt lat="45.08203" lon="5.61212">
        <ele>1768.482422</ele>
        <time>2010-04-01T11:40:59Z</time>
      </trkpt>
      <trkpt lat="45.08199" lon="5.61209">
        <ele>1769.924316</ele>
        <time>2010-04-01T11:41:06Z</time>
      </trkpt>
      <trkpt lat="45.08197" lon="5.61208">
        <ele>1770.885742</ele>
        <time>2010-04-01T11:41:11Z</time>
      </trkpt>
      <trkpt lat="45.08194" lon="5.61205">
        <ele>1772.327881</ele>
        <time>2010-04-01T11:41:17Z</time>
      </trkpt>
      <trkpt lat="45.08194" lon="5.61205">
        <ele>1772.327881</ele>
        <time>2010-04-01T11:41:24Z</time>
      </trkpt>
      <trkpt lat="45.08193" lon="5.61204">
        <ele>1772.808594</ele>
        <time>2010-04-01T11:41:32Z</time>
      </trkpt>
      <trkpt lat="45.08194" lon="5.61203">
        <ele>1773.289307</ele>
        <time>2010-04-01T11:41:34Z</time>
      </trkpt>
      <trkpt lat="45.08194" lon="5.61198">
        <ele>1774.250488</ele>
        <time>2010-04-01T11:41:39Z</time>
      </trkpt>
      <trkpt lat="45.08195" lon="5.61197">
        <ele>1773.769775</ele>
        <time>2010-04-01T11:41:45Z</time>
      </trkpt>
      <trkpt lat="45.08195" lon="5.61196">
        <ele>1773.769775</ele>
        <time>2010-04-01T11:41:53Z</time>
      </trkpt>
      <trkpt lat="45.08196" lon="5.61191">
        <ele>1772.808594</ele>
        <time>2010-04-01T11:41:58Z</time>
      </trkpt>
      <trkpt lat="45.08195" lon="5.61187">
        <ele>1772.327881</ele>
        <time>2010-04-01T11:42:03Z</time>
      </trkpt>
      <trkpt lat="45.08194" lon="5.61185">
        <ele>1772.327881</ele>
        <time>2010-04-01T11:42:10Z</time>
      </trkpt>
      <trkpt lat="45.08193" lon="5.61185">
        <ele>1772.808594</ele>
        <time>2010-04-01T11:42:18Z</time>
      </trkpt>
      <trkpt lat="45.08192" lon="5.61185">
        <ele>1773.289307</ele>
        <time>2010-04-01T11:42:25Z</time>
      </trkpt>
      <trkpt lat="45.08191" lon="5.61184">
        <ele>1773.769775</ele>
        <time>2010-04-01T11:42:34Z</time>
      </trkpt>
      <trkpt lat="45.08192" lon="5.61185">
        <ele>1773.289307</ele>
        <time>2010-04-01T11:43:01Z</time>
      </trkpt>
      <trkpt lat="45.08192" lon="5.61185">
        <ele>1773.289307</ele>
        <time>2010-04-01T11:43:14Z</time>
      </trkpt>
      <trkpt lat="45.08192" lon="5.61185">
        <ele>1773.289307</ele>
        <time>2010-04-01T11:43:22Z</time>
      </trkpt>
      <trkpt lat="45.08193" lon="5.61186">
        <ele>1773.289307</ele>
        <time>2010-04-01T11:43:29Z</time>
      </trkpt>
      <trkpt lat="45.08194" lon="5.61191">
        <ele>1773.289307</ele>
        <time>2010-04-01T11:43:34Z</time>
      </trkpt>
      <trkpt lat="45.08194" lon="5.61196">
        <ele>1774.250488</ele>
        <time>2010-04-01T11:43:40Z</time>
      </trkpt>
      <trkpt lat="45.08193" lon="5.61199">
        <ele>1774.731201</ele>
        <time>2010-04-01T11:43:46Z</time>
      </trkpt>
      <trkpt lat="45.08192" lon="5.61199">
        <ele>1774.731201</ele>
        <time>2010-04-01T11:43:52Z</time>
      </trkpt>
      <trkpt lat="45.0819" lon="5.612">
        <ele>1774.250488</ele>
        <time>2010-04-01T11:43:56Z</time>
      </trkpt>
      <trkpt lat="45.0819" lon="5.61199">
        <ele>1774.731201</ele>
        <time>2010-04-01T11:44:05Z</time>
      </trkpt>
      <trkpt lat="45.08191" lon="5.612">
        <ele>1774.250488</ele>
        <time>2010-04-01T11:44:16Z</time>
      </trkpt>
      <trkpt lat="45.08192" lon="5.61199">
        <ele>1773.289307</ele>
        <time>2010-04-01T11:44:27Z</time>
      </trkpt>
      <trkpt lat="45.08192" lon="5.61199">
        <ele>1773.289307</ele>
        <time>2010-04-01T11:44:37Z</time>
      </trkpt>
      <trkpt lat="45.08192" lon="5.61201">
        <ele>1773.289307</ele>
        <time>2010-04-01T11:44:51Z</time>
      </trkpt>
      <trkpt lat="45.08191" lon="5.61201">
        <ele>1772.808594</ele>
        <time>2010-04-01T11:44:56Z</time>
      </trkpt>
      <trkpt lat="45.08191" lon="5.612">
        <ele>1773.289307</ele>
        <time>2010-04-01T11:45:02Z</time>
      </trkpt>
      <trkpt lat="45.0819" lon="5.612">
        <ele>1774.250488</ele>
        <time>2010-04-01T11:45:18Z</time>
      </trkpt>
      <trkpt lat="45.08191" lon="5.61199">
        <ele>1774.731201</ele>
        <time>2010-04-01T11:45:28Z</time>
      </trkpt>
      <trkpt lat="45.08191" lon="5.61198">
        <ele>1775.21167</ele>
        <time>2010-04-01T11:45:32Z</time>
      </trkpt>
      <trkpt lat="45.0819" lon="5.61196">
        <ele>1775.692383</ele>
        <time>2010-04-01T11:45:37Z</time>
      </trkpt>
      <trkpt lat="45.08188" lon="5.61194">
        <ele>1776.653809</ele>
        <time>2010-04-01T11:45:44Z</time>
      </trkpt>
      <trkpt lat="45.08185" lon="5.61191">
        <ele>1777.134521</ele>
        <time>2010-04-01T11:45:52Z</time>
      </trkpt>
      <trkpt lat="45.08181" lon="5.61188">
        <ele>1777.61499</ele>
        <time>2010-04-01T11:45:58Z</time>
      </trkpt>
      <trkpt lat="45.0818" lon="5.61187">
        <ele>1778.095703</ele>
        <time>2010-04-01T11:46:03Z</time>
      </trkpt>
      <trkpt lat="45.08176" lon="5.61185">
        <ele>1779.056885</ele>
        <time>2010-04-01T11:46:09Z</time>
      </trkpt>
      <trkpt lat="45.08175" lon="5.61185">
        <ele>1780.018311</ele>
        <time>2010-04-01T11:46:14Z</time>
      </trkpt>
      <trkpt lat="45.08172" lon="5.61184">
        <ele>1780.979736</ele>
        <time>2010-04-01T11:46:20Z</time>
      </trkpt>
      <trkpt lat="45.0817" lon="5.61182">
        <ele>1780.979736</ele>
        <time>2010-04-01T11:46:25Z</time>
      </trkpt>
      <trkpt lat="45.08167" lon="5.6118">
        <ele>1781.460205</ele>
        <time>2010-04-01T11:46:31Z</time>
      </trkpt>
      <trkpt lat="45.08165" lon="5.61178">
        <ele>1782.421631</ele>
        <time>2010-04-01T11:46:37Z</time>
      </trkpt>
      <trkpt lat="45.08163" lon="5.61178">
        <ele>1782.421631</ele>
        <time>2010-04-01T11:46:44Z</time>
      </trkpt>
      <trkpt lat="45.08163" lon="5.61177">
        <ele>1781.940918</ele>
        <time>2010-04-01T11:46:56Z</time>
      </trkpt>
      <trkpt lat="45.08162" lon="5.61176">
        <ele>1781.460205</ele>
        <time>2010-04-01T11:47:05Z</time>
      </trkpt>
      <trkpt lat="45.08158" lon="5.61175">
        <ele>1782.421631</ele>
        <time>2010-04-01T11:47:11Z</time>
      </trkpt>
      <trkpt lat="45.08156" lon="5.61174">
        <ele>1783.382812</ele>
        <time>2010-04-01T11:47:15Z</time>
      </trkpt>
      <trkpt lat="45.08151" lon="5.61173">
        <ele>1783.863525</ele>
        <time>2010-04-01T11:47:22Z</time>
      </trkpt>
      <trkpt lat="45.0815" lon="5.61173">
        <ele>1784.824951</ele>
        <time>2010-04-01T11:47:28Z</time>
      </trkpt>
      <trkpt lat="45.08147" lon="5.61171">
        <ele>1785.786133</ele>
        <time>2010-04-01T11:47:34Z</time>
      </trkpt>
      <trkpt lat="45.08144" lon="5.6117">
        <ele>1786.266846</ele>
        <time>2010-04-01T11:47:39Z</time>
      </trkpt>
      <trkpt lat="45.08141" lon="5.61169">
        <ele>1786.747314</ele>
        <time>2010-04-01T11:47:45Z</time>
      </trkpt>
      <trkpt lat="45.08138" lon="5.61167">
        <ele>1788.189697</ele>
        <time>2010-04-01T11:47:52Z</time>
      </trkpt>
      <trkpt lat="45.08138" lon="5.61167">
        <ele>1789.150879</ele>
        <time>2010-04-01T11:47:56Z</time>
      </trkpt>
      <trkpt lat="45.08137" lon="5.61166">
        <ele>1789.631592</ele>
        <time>2010-04-01T11:48:03Z</time>
      </trkpt>
      <trkpt lat="45.08136" lon="5.61165">
        <ele>1790.592773</ele>
        <time>2010-04-01T11:48:08Z</time>
      </trkpt>
      <trkpt lat="45.08134" lon="5.61164">
        <ele>1791.073486</ele>
        <time>2010-04-01T11:48:14Z</time>
      </trkpt>
      <trkpt lat="45.08133" lon="5.61164">
        <ele>1791.554199</ele>
        <time>2010-04-01T11:48:20Z</time>
      </trkpt>
      <trkpt lat="45.08131" lon="5.61163">
        <ele>1792.515625</ele>
        <time>2010-04-01T11:48:25Z</time>
      </trkpt>
      <trkpt lat="45.0813" lon="5.61162">
        <ele>1792.996094</ele>
        <time>2010-04-01T11:48:30Z</time>
      </trkpt>
      <trkpt lat="45.08128" lon="5.61162">
        <ele>1794.437988</ele>
        <time>2010-04-01T11:48:42Z</time>
      </trkpt>
      <trkpt lat="45.08126" lon="5.61159">
        <ele>1795.399414</ele>
        <time>2010-04-01T11:48:47Z</time>
      </trkpt>
      <trkpt lat="45.08122" lon="5.61157">
        <ele>1795.880127</ele>
        <time>2010-04-01T11:48:53Z</time>
      </trkpt>
      <trkpt lat="45.08121" lon="5.61156">
        <ele>1795.399414</ele>
        <time>2010-04-01T11:49:01Z</time>
      </trkpt>
      <trkpt lat="45.08119" lon="5.61153">
        <ele>1795.399414</ele>
        <time>2010-04-01T11:49:09Z</time>
      </trkpt>
      <trkpt lat="45.08118" lon="5.61153">
        <ele>1795.399414</ele>
        <time>2010-04-01T11:49:18Z</time>
      </trkpt>
      <trkpt lat="45.08115" lon="5.6115">
        <ele>1795.399414</ele>
        <time>2010-04-01T11:49:25Z</time>
      </trkpt>
      <trkpt lat="45.08112" lon="5.61148">
        <ele>1794.918701</ele>
        <time>2010-04-01T11:49:31Z</time>
      </trkpt>
      <trkpt lat="45.08109" lon="5.61146">
        <ele>1794.437988</ele>
        <time>2010-04-01T11:49:36Z</time>
      </trkpt>
      <trkpt lat="45.08108" lon="5.61146">
        <ele>1794.918701</ele>
        <time>2010-04-01T11:49:43Z</time>
      </trkpt>
      <trkpt lat="45.08106" lon="5.61145">
        <ele>1794.918701</ele>
        <time>2010-04-01T11:49:49Z</time>
      </trkpt>
      <trkpt lat="45.08104" lon="5.61143">
        <ele>1794.437988</ele>
        <time>2010-04-01T11:49:56Z</time>
      </trkpt>
      <trkpt lat="45.08103" lon="5.61143">
        <ele>1794.437988</ele>
        <time>2010-04-01T11:50:04Z</time>
      </trkpt>
      <trkpt lat="45.08103" lon="5.61144">
        <ele>1794.918701</ele>
        <time>2010-04-01T11:50:13Z</time>
      </trkpt>
      <trkpt lat="45.08102" lon="5.61142">
        <ele>1794.437988</ele>
        <time>2010-04-01T11:50:22Z</time>
      </trkpt>
      <trkpt lat="45.08101" lon="5.61141">
        <ele>1793.95752</ele>
        <time>2010-04-01T11:50:29Z</time>
      </trkpt>
      <trkpt lat="45.08097" lon="5.61142">
        <ele>1794.437988</ele>
        <time>2010-04-01T11:50:36Z</time>
      </trkpt>
      <trkpt lat="45.08093" lon="5.61144">
        <ele>1795.880127</ele>
        <time>2010-04-01T11:50:43Z</time>
      </trkpt>
      <trkpt lat="45.08091" lon="5.61143">
        <ele>1796.36084</ele>
        <time>2010-04-01T11:50:49Z</time>
      </trkpt>
      <trkpt lat="45.08089" lon="5.61144">
        <ele>1797.322021</ele>
        <time>2010-04-01T11:50:56Z</time>
      </trkpt>
      <trkpt lat="45.08085" lon="5.61145">
        <ele>1797.322021</ele>
        <time>2010-04-01T11:51:02Z</time>
      </trkpt>
      <trkpt lat="45.08082" lon="5.61144">
        <ele>1798.283203</ele>
        <time>2010-04-01T11:51:09Z</time>
      </trkpt>
      <trkpt lat="45.0808" lon="5.61143">
        <ele>1799.244629</ele>
        <time>2010-04-01T11:51:15Z</time>
      </trkpt>
      <trkpt lat="45.08079" lon="5.61142">
        <ele>1799.725342</ele>
        <time>2010-04-01T11:51:25Z</time>
      </trkpt>
      <trkpt lat="45.08077" lon="5.61142">
        <ele>1800.206055</ele>
        <time>2010-04-01T11:51:31Z</time>
      </trkpt>
      <trkpt lat="45.08075" lon="5.61138">
        <ele>1800.206055</ele>
        <time>2010-04-01T11:51:35Z</time>
      </trkpt>
      <trkpt lat="45.08072" lon="5.61134">
        <ele>1799.725342</ele>
        <time>2010-04-01T11:51:40Z</time>
      </trkpt>
      <trkpt lat="45.08072" lon="5.61133">
        <ele>1800.206055</ele>
        <time>2010-04-01T11:51:44Z</time>
      </trkpt>
      <trkpt lat="45.08073" lon="5.61128">
        <ele>1799.725342</ele>
        <time>2010-04-01T11:51:49Z</time>
      </trkpt>
      <trkpt lat="45.08073" lon="5.61125">
        <ele>1799.244629</ele>
        <time>2010-04-01T11:51:53Z</time>
      </trkpt>
      <trkpt lat="45.08073" lon="5.61125">
        <ele>1797.322021</ele>
        <time>2010-04-01T11:52:02Z</time>
      </trkpt>
      <trkpt lat="45.08073" lon="5.61125">
        <ele>1797.802734</ele>
        <time>2010-04-01T11:52:08Z</time>
      </trkpt>
      <trkpt lat="45.08073" lon="5.61125">
        <ele>1797.322021</ele>
        <time>2010-04-01T11:52:22Z</time>
      </trkpt>
      <trkpt lat="45.08072" lon="5.61126">
        <ele>1797.322021</ele>
        <time>2010-04-01T11:52:31Z</time>
      </trkpt>
      <trkpt lat="45.08073" lon="5.61125">
        <ele>1798.763916</ele>
        <time>2010-04-01T11:52:51Z</time>
      </trkpt>
      <trkpt lat="45.08072" lon="5.61124">
        <ele>1799.244629</ele>
        <time>2010-04-01T11:53:05Z</time>
      </trkpt>
      <trkpt lat="45.08071" lon="5.61124">
        <ele>1798.763916</ele>
        <time>2010-04-01T11:53:20Z</time>
      </trkpt>
      <trkpt lat="45.08071" lon="5.61124">
        <ele>1798.283203</ele>
        <time>2010-04-01T11:53:23Z</time>
      </trkpt>
      <trkpt lat="45.08074" lon="5.61124">
        <ele>1798.283203</ele>
        <time>2010-04-01T11:53:26Z</time>
      </trkpt>
      <trkpt lat="45.08074" lon="5.61126">
        <ele>1798.763916</ele>
        <time>2010-04-01T11:53:42Z</time>
      </trkpt>
      <trkpt lat="45.08073" lon="5.61126">
        <ele>1797.802734</ele>
        <time>2010-04-01T11:53:55Z</time>
      </trkpt>
      <trkpt lat="45.08072" lon="5.61125">
        <ele>1796.36084</ele>
        <time>2010-04-01T11:55:06Z</time>
      </trkpt>
      <trkpt lat="45.08071" lon="5.61127">
        <ele>1796.841309</ele>
        <time>2010-04-01T11:55:34Z</time>
      </trkpt>
      <trkpt lat="45.08071" lon="5.61125">
        <ele>1797.322021</ele>
        <time>2010-04-01T11:55:56Z</time>
      </trkpt>
      <trkpt lat="45.0807" lon="5.61126">
        <ele>1797.322021</ele>
        <time>2010-04-01T11:56:02Z</time>
      </trkpt>
      <trkpt lat="45.0807" lon="5.61125">
        <ele>1797.802734</ele>
        <time>2010-04-01T11:56:12Z</time>
      </trkpt>
      <trkpt lat="45.0807" lon="5.61124">
        <ele>1798.763916</ele>
        <time>2010-04-01T11:56:16Z</time>
      </trkpt>
      <trkpt lat="45.0807" lon="5.61124">
        <ele>1799.725342</ele>
        <time>2010-04-01T11:56:23Z</time>
      </trkpt>
      <trkpt lat="45.0807" lon="5.61125">
        <ele>1800.206055</ele>
        <time>2010-04-01T11:56:27Z</time>
      </trkpt>
      <trkpt lat="45.0807" lon="5.61125">
        <ele>1799.725342</ele>
        <time>2010-04-01T11:56:36Z</time>
      </trkpt>
      <trkpt lat="45.0807" lon="5.61125">
        <ele>1799.725342</ele>
        <time>2010-04-01T11:56:41Z</time>
      </trkpt>
      <trkpt lat="45.08071" lon="5.61124">
        <ele>1799.725342</ele>
        <time>2010-04-01T11:56:50Z</time>
      </trkpt>
      <trkpt lat="45.0807" lon="5.61125">
        <ele>1799.725342</ele>
        <time>2010-04-01T11:56:56Z</time>
      </trkpt>
      <trkpt lat="45.0807" lon="5.61126">
        <ele>1799.244629</ele>
        <time>2010-04-01T11:57:50Z</time>
      </trkpt>
      <trkpt lat="45.08069" lon="5.61125">
        <ele>1799.725342</ele>
        <time>2010-04-01T11:58:01Z</time>
      </trkpt>
      <trkpt lat="45.08069" lon="5.61125">
        <ele>1798.283203</ele>
        <time>2010-04-01T11:58:28Z</time>
      </trkpt>
      <trkpt lat="45.0807" lon="5.61125">
        <ele>1798.763916</ele>
        <time>2010-04-01T11:58:44Z</time>
      </trkpt>
      <trkpt lat="45.08071" lon="5.61126">
        <ele>1798.283203</ele>
        <time>2010-04-01T11:58:50Z</time>
      </trkpt>
      <trkpt lat="45.08071" lon="5.61124">
        <ele>1796.841309</ele>
        <time>2010-04-01T11:59:29Z</time>
      </trkpt>
      <trkpt lat="45.08069" lon="5.61124">
        <ele>1795.880127</ele>
        <time>2010-04-01T11:59:44Z</time>
      </trkpt>
      <trkpt lat="45.08069" lon="5.61123">
        <ele>1796.36084</ele>
        <time>2010-04-01T12:00:06Z</time>
      </trkpt>
      <trkpt lat="45.08069" lon="5.61123">
        <ele>1798.763916</ele>
        <time>2010-04-01T12:00:49Z</time>
      </trkpt>
      <trkpt lat="45.08073" lon="5.61126">
        <ele>1797.802734</ele>
        <time>2010-04-01T12:01:19Z</time>
      </trkpt>
      <trkpt lat="45.08073" lon="5.61125">
        <ele>1798.283203</ele>
        <time>2010-04-01T12:01:27Z</time>
      </trkpt>
      <trkpt lat="45.08072" lon="5.61125">
        <ele>1798.283203</ele>
        <time>2010-04-01T12:01:51Z</time>
      </trkpt>
      <trkpt lat="45.08073" lon="5.61127">
        <ele>1800.206055</ele>
        <time>2010-04-01T12:02:20Z</time>
      </trkpt>
      <trkpt lat="45.08073" lon="5.61127">
        <ele>1798.283203</ele>
        <time>2010-04-01T12:02:36Z</time>
      </trkpt>
      <trkpt lat="45.08073" lon="5.61127">
        <ele>1797.802734</ele>
        <time>2010-04-01T12:02:39Z</time>
      </trkpt>
      <trkpt lat="45.08074" lon="5.61125">
        <ele>1799.725342</ele>
        <time>2010-04-01T12:02:42Z</time>
      </trkpt>
      <trkpt lat="45.08074" lon="5.61124">
        <ele>1799.725342</ele>
        <time>2010-04-01T12:02:49Z</time>
      </trkpt>
      <trkpt lat="45.08073" lon="5.61124">
        <ele>1800.206055</ele>
        <time>2010-04-01T12:03:00Z</time>
      </trkpt>
      <trkpt lat="45.08073" lon="5.61124">
        <ele>1799.244629</ele>
        <time>2010-04-01T12:03:08Z</time>
      </trkpt>
      <trkpt lat="45.08071" lon="5.61128">
        <ele>1796.841309</ele>
        <time>2010-04-01T12:03:49Z</time>
      </trkpt>
      <trkpt lat="45.08072" lon="5.61128">
        <ele>1798.283203</ele>
        <time>2010-04-01T12:04:14Z</time>
      </trkpt>
      <trkpt lat="45.08076" lon="5.61126">
        <ele>1796.841309</ele>
        <time>2010-04-01T12:04:18Z</time>
      </trkpt>
      <trkpt lat="45.08075" lon="5.61125">
        <ele>1796.36084</ele>
        <time>2010-04-01T12:04:22Z</time>
      </trkpt>
      <trkpt lat="45.08075" lon="5.61126">
        <ele>1794.918701</ele>
        <time>2010-04-01T12:04:30Z</time>
      </trkpt>
      <trkpt lat="45.08081" lon="5.61127">
        <ele>1793.476807</ele>
        <time>2010-04-01T12:04:34Z</time>
      </trkpt>
      <trkpt lat="45.08081" lon="5.61127">
        <ele>1792.996094</ele>
        <time>2010-04-01T12:04:40Z</time>
      </trkpt>
      <trkpt lat="45.08081" lon="5.61128">
        <ele>1792.996094</ele>
        <time>2010-04-01T12:04:53Z</time>
      </trkpt>
      <trkpt lat="45.08082" lon="5.61125">
        <ele>1792.996094</ele>
        <time>2010-04-01T12:05:02Z</time>
      </trkpt>
      <trkpt lat="45.08082" lon="5.61125">
        <ele>1792.034912</ele>
        <time>2010-04-01T12:05:07Z</time>
      </trkpt>
      <trkpt lat="45.08088" lon="5.61124">
        <ele>1789.150879</ele>
        <time>2010-04-01T12:05:11Z</time>
      </trkpt>
      <trkpt lat="45.08087" lon="5.61124">
        <ele>1788.189697</ele>
        <time>2010-04-01T12:05:15Z</time>
      </trkpt>
      <trkpt lat="45.0809" lon="5.61119">
        <ele>1786.747314</ele>
        <time>2010-04-01T12:05:19Z</time>
      </trkpt>
      <trkpt lat="45.08089" lon="5.61118">
        <ele>1786.747314</ele>
        <time>2010-04-01T12:05:21Z</time>
      </trkpt>
      <trkpt lat="45.08098" lon="5.61109">
        <ele>1783.863525</ele>
        <time>2010-04-01T12:05:25Z</time>
      </trkpt>
      <trkpt lat="45.08102" lon="5.61111">
        <ele>1782.9021</ele>
        <time>2010-04-01T12:05:28Z</time>
      </trkpt>
      <trkpt lat="45.08101" lon="5.6111">
        <ele>1780.499023</ele>
        <time>2010-04-01T12:05:36Z</time>
      </trkpt>
      <trkpt lat="45.08104" lon="5.61107">
        <ele>1777.61499</ele>
        <time>2010-04-01T12:05:39Z</time>
      </trkpt>
      <trkpt lat="45.08109" lon="5.61103">
        <ele>1775.692383</ele>
        <time>2010-04-01T12:05:41Z</time>
      </trkpt>
      <trkpt lat="45.08106" lon="5.61099">
        <ele>1772.808594</ele>
        <time>2010-04-01T12:05:47Z</time>
      </trkpt>
      <trkpt lat="45.08104" lon="5.61099">
        <ele>1772.327881</ele>
        <time>2010-04-01T12:05:55Z</time>
      </trkpt>
      <trkpt lat="45.08106" lon="5.61099">
        <ele>1771.366211</ele>
        <time>2010-04-01T12:06:00Z</time>
      </trkpt>
      <trkpt lat="45.08113" lon="5.611">
        <ele>1770.405029</ele>
        <time>2010-04-01T12:06:05Z</time>
      </trkpt>
      <trkpt lat="45.08122" lon="5.61104">
        <ele>1766.559814</ele>
        <time>2010-04-01T12:06:10Z</time>
      </trkpt>
      <trkpt lat="45.08123" lon="5.61104">
        <ele>1766.559814</ele>
        <time>2010-04-01T12:06:15Z</time>
      </trkpt>
      <trkpt lat="45.08124" lon="5.61104">
        <ele>1766.079102</ele>
        <time>2010-04-01T12:06:21Z</time>
      </trkpt>
      <trkpt lat="45.08126" lon="5.61105">
        <ele>1767.520996</ele>
        <time>2010-04-01T12:06:41Z</time>
      </trkpt>
      <trkpt lat="45.08129" lon="5.61105">
        <ele>1766.079102</ele>
        <time>2010-04-01T12:06:47Z</time>
      </trkpt>
      <trkpt lat="45.0813" lon="5.61104">
        <ele>1764.637207</ele>
        <time>2010-04-01T12:06:50Z</time>
      </trkpt>
      <trkpt lat="45.0813" lon="5.61103">
        <ele>1763.675781</ele>
        <time>2010-04-01T12:06:56Z</time>
      </trkpt>
      <trkpt lat="45.0813" lon="5.61102">
        <ele>1764.156494</ele>
        <time>2010-04-01T12:07:04Z</time>
      </trkpt>
      <trkpt lat="45.08129" lon="5.61098">
        <ele>1763.675781</ele>
        <time>2010-04-01T12:07:08Z</time>
      </trkpt>
      <trkpt lat="45.08126" lon="5.61095">
        <ele>1762.7146</ele>
        <time>2010-04-01T12:07:13Z</time>
      </trkpt>
      <trkpt lat="45.08125" lon="5.61095">
        <ele>1761.753418</ele>
        <time>2010-04-01T12:07:20Z</time>
      </trkpt>
      <trkpt lat="45.08127" lon="5.61093">
        <ele>1761.753418</ele>
        <time>2010-04-01T12:07:32Z</time>
      </trkpt>
      <trkpt lat="45.08128" lon="5.6109">
        <ele>1761.753418</ele>
        <time>2010-04-01T12:07:35Z</time>
      </trkpt>
      <trkpt lat="45.0813" lon="5.61088">
        <ele>1760.311279</ele>
        <time>2010-04-01T12:07:39Z</time>
      </trkpt>
      <trkpt lat="45.0813" lon="5.61085">
        <ele>1758.869385</ele>
        <time>2010-04-01T12:07:42Z</time>
      </trkpt>
      <trkpt lat="45.08132" lon="5.61084">
        <ele>1758.388672</ele>
        <time>2010-04-01T12:07:46Z</time>
      </trkpt>
      <trkpt lat="45.08133" lon="5.61084">
        <ele>1758.388672</ele>
        <time>2010-04-01T12:07:51Z</time>
      </trkpt>
      <trkpt lat="45.08137" lon="5.61081">
        <ele>1757.42749</ele>
        <time>2010-04-01T12:07:55Z</time>
      </trkpt>
      <trkpt lat="45.08137" lon="5.61081">
        <ele>1756.466064</ele>
        <time>2010-04-01T12:08:00Z</time>
      </trkpt>
      <trkpt lat="45.08129" lon="5.61078">
        <ele>1746.372314</ele>
        <time>2010-04-01T12:08:23Z</time>
      </trkpt>
      <trkpt lat="45.08132" lon="5.61075">
        <ele>1743.007568</ele>
        <time>2010-04-01T12:08:25Z</time>
      </trkpt>
      <trkpt lat="45.08133" lon="5.61074">
        <ele>1743.968994</ele>
        <time>2010-04-01T12:08:31Z</time>
      </trkpt>
      <trkpt lat="45.08141" lon="5.61071">
        <ele>1749.256104</ele>
        <time>2010-04-01T12:08:50Z</time>
      </trkpt>
      <trkpt lat="45.08148" lon="5.6107">
        <ele>1747.333496</ele>
        <time>2010-04-01T12:08:53Z</time>
      </trkpt>
      <trkpt lat="45.08151" lon="5.61069">
        <ele>1744.449463</ele>
        <time>2010-04-01T12:08:56Z</time>
      </trkpt>
      <trkpt lat="45.08154" lon="5.61067">
        <ele>1743.488281</ele>
        <time>2010-04-01T12:08:57Z</time>
      </trkpt>
      <trkpt lat="45.08155" lon="5.61068">
        <ele>1743.007568</ele>
        <time>2010-04-01T12:09:03Z</time>
      </trkpt>
      <trkpt lat="45.08152" lon="5.61069">
        <ele>1739.162109</ele>
        <time>2010-04-01T12:09:19Z</time>
      </trkpt>
      <trkpt lat="45.08151" lon="5.6107">
        <ele>1736.27832</ele>
        <time>2010-04-01T12:09:45Z</time>
      </trkpt>
      <trkpt lat="45.08156" lon="5.61067">
        <ele>1734.355713</ele>
        <time>2010-04-01T12:09:55Z</time>
      </trkpt>
      <trkpt lat="45.08165" lon="5.61064">
        <ele>1730.510498</ele>
        <time>2010-04-01T12:09:59Z</time>
      </trkpt>
      <trkpt lat="45.08172" lon="5.61056">
        <ele>1725.223145</ele>
        <time>2010-04-01T12:10:03Z</time>
      </trkpt>
      <trkpt lat="45.08178" lon="5.61054">
        <ele>1721.858398</ele>
        <time>2010-04-01T12:10:06Z</time>
      </trkpt>
      <trkpt lat="45.08177" lon="5.61057">
        <ele>1718.493896</ele>
        <time>2010-04-01T12:10:10Z</time>
      </trkpt>
      <trkpt lat="45.08171" lon="5.6106">
        <ele>1711.28418</ele>
        <time>2010-04-01T12:10:16Z</time>
      </trkpt>
      <trkpt lat="45.08168" lon="5.61062">
        <ele>1707.919434</ele>
        <time>2010-04-01T12:10:22Z</time>
      </trkpt>
      <trkpt lat="45.0817" lon="5.61061">
        <ele>1711.28418</ele>
        <time>2010-04-01T12:10:31Z</time>
      </trkpt>
      <trkpt lat="45.08171" lon="5.61061">
        <ele>1716.571289</ele>
        <time>2010-04-01T12:11:27Z</time>
      </trkpt>
      <trkpt lat="45.08169" lon="5.61062">
        <ele>1714.648682</ele>
        <time>2010-04-01T12:11:40Z</time>
      </trkpt>
      <trkpt lat="45.08178" lon="5.6106">
        <ele>1720.416504</ele>
        <time>2010-04-01T12:11:57Z</time>
      </trkpt>
      <trkpt lat="45.08179" lon="5.61061">
        <ele>1720.897217</ele>
        <time>2010-04-01T12:12:09Z</time>
      </trkpt>
      <trkpt lat="45.08178" lon="5.61062">
        <ele>1718.974609</ele>
        <time>2010-04-01T12:12:17Z</time>
      </trkpt>
      <trkpt lat="45.08178" lon="5.61061">
        <ele>1719.935791</ele>
        <time>2010-04-01T12:12:26Z</time>
      </trkpt>
      <trkpt lat="45.0818" lon="5.6106">
        <ele>1725.223145</ele>
        <time>2010-04-01T12:12:57Z</time>
      </trkpt>
      <trkpt lat="45.08183" lon="5.61059">
        <ele>1726.18457</ele>
        <time>2010-04-01T12:13:02Z</time>
      </trkpt>
      <trkpt lat="45.08176" lon="5.61063">
        <ele>1715.610107</ele>
        <time>2010-04-01T12:13:19Z</time>
      </trkpt>
      <trkpt lat="45.08178" lon="5.61061">
        <ele>1720.897217</ele>
        <time>2010-04-01T12:13:36Z</time>
      </trkpt>
      <trkpt lat="45.08173" lon="5.61063">
        <ele>1717.052002</ele>
        <time>2010-04-01T12:13:49Z</time>
      </trkpt>
      <trkpt lat="45.08172" lon="5.61063">
        <ele>1714.648682</ele>
        <time>2010-04-01T12:14:01Z</time>
      </trkpt>
      <trkpt lat="45.08173" lon="5.61062">
        <ele>1714.167969</ele>
        <time>2010-04-01T12:14:03Z</time>
      </trkpt>
      <trkpt lat="45.08182" lon="5.61055">
        <ele>1714.167969</ele>
        <time>2010-04-01T12:14:06Z</time>
      </trkpt>
      <trkpt lat="45.08192" lon="5.61047">
        <ele>1711.28418</ele>
        <time>2010-04-01T12:14:09Z</time>
      </trkpt>
      <trkpt lat="45.08194" lon="5.61047">
        <ele>1710.322754</ele>
        <time>2010-04-01T12:14:12Z</time>
      </trkpt>
      <trkpt lat="45.08193" lon="5.61047">
        <ele>1709.361572</ele>
        <time>2010-04-01T12:14:17Z</time>
      </trkpt>
      <trkpt lat="45.08196" lon="5.61045">
        <ele>1712.245361</ele>
        <time>2010-04-01T12:14:21Z</time>
      </trkpt>
      <trkpt lat="45.08202" lon="5.61041">
        <ele>1716.571289</ele>
        <time>2010-04-01T12:14:29Z</time>
      </trkpt>
      <trkpt lat="45.08203" lon="5.61041">
        <ele>1715.129395</ele>
        <time>2010-04-01T12:14:30Z</time>
      </trkpt>
      <trkpt lat="45.08218" lon="5.61023">
        <ele>1701.670898</ele>
        <time>2010-04-01T12:14:35Z</time>
      </trkpt>
      <trkpt lat="45.08233" lon="5.61009">
        <ele>1690.615479</ele>
        <time>2010-04-01T12:14:39Z</time>
      </trkpt>
      <trkpt lat="45.0824" lon="5.61001">
        <ele>1685.809082</ele>
        <time>2010-04-01T12:14:41Z</time>
      </trkpt>
      <trkpt lat="45.08254" lon="5.60985">
        <ele>1675.234375</ele>
        <time>2010-04-01T12:14:45Z</time>
      </trkpt>
      <trkpt lat="45.08262" lon="5.60971">
        <ele>1667.543945</ele>
        <time>2010-04-01T12:14:48Z</time>
      </trkpt>
      <trkpt lat="45.0827" lon="5.60958">
        <ele>1657.930908</ele>
        <time>2010-04-01T12:14:51Z</time>
      </trkpt>
      <trkpt lat="45.08269" lon="5.6096">
        <ele>1648.79834</ele>
        <time>2010-04-01T12:14:53Z</time>
      </trkpt>
      <trkpt lat="45.08268" lon="5.60962">
        <ele>1645.914551</ele>
        <time>2010-04-01T12:14:54Z</time>
      </trkpt>
      <trkpt lat="45.08264" lon="5.60963">
        <ele>1642.549805</ele>
        <time>2010-04-01T12:14:57Z</time>
      </trkpt>
      <trkpt lat="45.08258" lon="5.60964">
        <ele>1640.146484</ele>
        <time>2010-04-01T12:15:01Z</time>
      </trkpt>
      <trkpt lat="45.08265" lon="5.60962">
        <ele>1642.549805</ele>
        <time>2010-04-01T12:15:07Z</time>
      </trkpt>
      <trkpt lat="45.08265" lon="5.60964">
        <ele>1643.991699</ele>
        <time>2010-04-01T12:15:34Z</time>
      </trkpt>
      <trkpt lat="45.08276" lon="5.60959">
        <ele>1656.969482</ele>
        <time>2010-04-01T12:16:37Z</time>
      </trkpt>
      <trkpt lat="45.08277" lon="5.60957">
        <ele>1660.814941</ele>
        <time>2010-04-01T12:16:49Z</time>
      </trkpt>
      <trkpt lat="45.08276" lon="5.60957">
        <ele>1659.372803</ele>
        <time>2010-04-01T12:16:54Z</time>
      </trkpt>
      <trkpt lat="45.08272" lon="5.60959">
        <ele>1654.085693</ele>
        <time>2010-04-01T12:17:07Z</time>
      </trkpt>
      <trkpt lat="45.0827" lon="5.6096">
        <ele>1651.682373</ele>
        <time>2010-04-01T12:17:13Z</time>
      </trkpt>
      <trkpt lat="45.08286" lon="5.60959">
        <ele>1651.20166</ele>
        <time>2010-04-01T12:17:17Z</time>
      </trkpt>
      <trkpt lat="45.08296" lon="5.60952">
        <ele>1649.759766</ele>
        <time>2010-04-01T12:17:19Z</time>
      </trkpt>
      <trkpt lat="45.08317" lon="5.6094">
        <ele>1648.79834</ele>
        <time>2010-04-01T12:17:23Z</time>
      </trkpt>
      <trkpt lat="45.08317" lon="5.60939">
        <ele>1646.875732</ele>
        <time>2010-04-01T12:17:24Z</time>
      </trkpt>
      <trkpt lat="45.08311" lon="5.60941">
        <ele>1637.262451</ele>
        <time>2010-04-01T12:17:32Z</time>
      </trkpt>
      <trkpt lat="45.0831" lon="5.60941">
        <ele>1635.820557</ele>
        <time>2010-04-01T12:17:39Z</time>
      </trkpt>
      <trkpt lat="45.08315" lon="5.60939">
        <ele>1642.069092</ele>
        <time>2010-04-01T12:17:46Z</time>
      </trkpt>
      <trkpt lat="45.08315" lon="5.60938">
        <ele>1643.991699</ele>
        <time>2010-04-01T12:18:01Z</time>
      </trkpt>
      <trkpt lat="45.08316" lon="5.60938">
        <ele>1644.953125</ele>
        <time>2010-04-01T12:18:09Z</time>
      </trkpt>
      <trkpt lat="45.08318" lon="5.60937">
        <ele>1647.837158</ele>
        <time>2010-04-01T12:18:20Z</time>
      </trkpt>
      <trkpt lat="45.08319" lon="5.60941">
        <ele>1638.70459</ele>
        <time>2010-04-01T12:18:43Z</time>
      </trkpt>
      <trkpt lat="45.08319" lon="5.60942">
        <ele>1636.781738</ele>
        <time>2010-04-01T12:18:48Z</time>
      </trkpt>
      <trkpt lat="45.08318" lon="5.60941">
        <ele>1635.820557</ele>
        <time>2010-04-01T12:19:01Z</time>
      </trkpt>
      <trkpt lat="45.08319" lon="5.6094">
        <ele>1636.30127</ele>
        <time>2010-04-01T12:19:04Z</time>
      </trkpt>
      <trkpt lat="45.08318" lon="5.60936">
        <ele>1640.626953</ele>
        <time>2010-04-01T12:19:16Z</time>
      </trkpt>
      <trkpt lat="45.08316" lon="5.60936">
        <ele>1641.588379</ele>
        <time>2010-04-01T12:19:28Z</time>
      </trkpt>
      <trkpt lat="45.0831" lon="5.60937">
        <ele>1639.185059</ele>
        <time>2010-04-01T12:19:53Z</time>
      </trkpt>
      <trkpt lat="45.08312" lon="5.60936">
        <ele>1640.146484</ele>
        <time>2010-04-01T12:20:01Z</time>
      </trkpt>
      <trkpt lat="45.0831" lon="5.6094">
        <ele>1634.859375</ele>
        <time>2010-04-01T12:20:10Z</time>
      </trkpt>
      <trkpt lat="45.08309" lon="5.60941">
        <ele>1633.897949</ele>
        <time>2010-04-01T12:20:18Z</time>
      </trkpt>
      <trkpt lat="45.08309" lon="5.60942">
        <ele>1631.01416</ele>
        <time>2010-04-01T12:20:40Z</time>
      </trkpt>
      <trkpt lat="45.08309" lon="5.60942">
        <ele>1629.091309</ele>
        <time>2010-04-01T12:20:46Z</time>
      </trkpt>
      <trkpt lat="45.08311" lon="5.60942">
        <ele>1632.936523</ele>
        <time>2010-04-01T12:20:55Z</time>
      </trkpt>
      <trkpt lat="45.0831" lon="5.60942">
        <ele>1631.975342</ele>
        <time>2010-04-01T12:21:20Z</time>
      </trkpt>
      <trkpt lat="45.0831" lon="5.60942">
        <ele>1631.494629</ele>
        <time>2010-04-01T12:21:27Z</time>
      </trkpt>
      <trkpt lat="45.08309" lon="5.60943">
        <ele>1629.091309</ele>
        <time>2010-04-01T12:21:47Z</time>
      </trkpt>
      <trkpt lat="45.08309" lon="5.60943">
        <ele>1628.130127</ele>
        <time>2010-04-01T12:21:53Z</time>
      </trkpt>
      <trkpt lat="45.08308" lon="5.60944">
        <ele>1627.64917</ele>
        <time>2010-04-01T12:21:59Z</time>
      </trkpt>
      <trkpt lat="45.08308" lon="5.60945">
        <ele>1629.572021</ele>
        <time>2010-04-01T12:22:26Z</time>
      </trkpt>
      <trkpt lat="45.08308" lon="5.60946">
        <ele>1626.207275</ele>
        <time>2010-04-01T12:22:41Z</time>
      </trkpt>
      <trkpt lat="45.08308" lon="5.60946">
        <ele>1628.130127</ele>
        <time>2010-04-01T12:22:47Z</time>
      </trkpt>
      <trkpt lat="45.08307" lon="5.60946">
        <ele>1628.130127</ele>
        <time>2010-04-01T12:23:12Z</time>
      </trkpt>
      <trkpt lat="45.08308" lon="5.60945">
        <ele>1629.091309</ele>
        <time>2010-04-01T12:23:21Z</time>
      </trkpt>
      <trkpt lat="45.0831" lon="5.60947">
        <ele>1628.61084</ele>
        <time>2010-04-01T12:23:33Z</time>
      </trkpt>
      <trkpt lat="45.0831" lon="5.60947">
        <ele>1627.64917</ele>
        <time>2010-04-01T12:23:36Z</time>
      </trkpt>
      <trkpt lat="45.08311" lon="5.6095">
        <ele>1619.95874</ele>
        <time>2010-04-01T12:23:54Z</time>
      </trkpt>
      <trkpt lat="45.0831" lon="5.60954">
        <ele>1617.55542</ele>
        <time>2010-04-01T12:24:04Z</time>
      </trkpt>
      <trkpt lat="45.08307" lon="5.60956">
        <ele>1618.997559</ele>
        <time>2010-04-01T12:24:09Z</time>
      </trkpt>
      <trkpt lat="45.08304" lon="5.60958">
        <ele>1621.400635</ele>
        <time>2010-04-01T12:24:14Z</time>
      </trkpt>
      <trkpt lat="45.08301" lon="5.60962">
        <ele>1624.765381</ele>
        <time>2010-04-01T12:24:22Z</time>
      </trkpt>
      <trkpt lat="45.08297" lon="5.60967">
        <ele>1628.130127</ele>
        <time>2010-04-01T12:24:31Z</time>
      </trkpt>
      <trkpt lat="45.08295" lon="5.60972">
        <ele>1631.975342</ele>
        <time>2010-04-01T12:24:40Z</time>
      </trkpt>
      <trkpt lat="45.08294" lon="5.60974">
        <ele>1633.417236</ele>
        <time>2010-04-01T12:24:44Z</time>
      </trkpt>
      <trkpt lat="45.08293" lon="5.60978">
        <ele>1634.859375</ele>
        <time>2010-04-01T12:24:49Z</time>
      </trkpt>
      <trkpt lat="45.08293" lon="5.60981">
        <ele>1637.262451</ele>
        <time>2010-04-01T12:24:54Z</time>
      </trkpt>
      <trkpt lat="45.08293" lon="5.60985">
        <ele>1638.70459</ele>
        <time>2010-04-01T12:24:59Z</time>
      </trkpt>
      <trkpt lat="45.08294" lon="5.60988">
        <ele>1639.665771</ele>
        <time>2010-04-01T12:25:03Z</time>
      </trkpt>
      <trkpt lat="45.08294" lon="5.6099">
        <ele>1641.107666</ele>
        <time>2010-04-01T12:25:07Z</time>
      </trkpt>
      <trkpt lat="45.08294" lon="5.60994">
        <ele>1643.030273</ele>
        <time>2010-04-01T12:25:12Z</time>
      </trkpt>
      <trkpt lat="45.08295" lon="5.60996">
        <ele>1644.472412</ele>
        <time>2010-04-01T12:25:18Z</time>
      </trkpt>
      <trkpt lat="45.08293" lon="5.60999">
        <ele>1645.914551</ele>
        <time>2010-04-01T12:25:21Z</time>
      </trkpt>
      <trkpt lat="45.0829" lon="5.61">
        <ele>1646.395264</ele>
        <time>2010-04-01T12:25:25Z</time>
      </trkpt>
      <trkpt lat="45.08287" lon="5.61001">
        <ele>1647.837158</ele>
        <time>2010-04-01T12:25:30Z</time>
      </trkpt>
      <trkpt lat="45.08285" lon="5.61001">
        <ele>1647.837158</ele>
        <time>2010-04-01T12:25:34Z</time>
      </trkpt>
      <trkpt lat="45.08283" lon="5.61002">
        <ele>1647.837158</ele>
        <time>2010-04-01T12:25:41Z</time>
      </trkpt>
      <trkpt lat="45.08283" lon="5.61001">
        <ele>1652.162842</ele>
        <time>2010-04-01T12:26:01Z</time>
      </trkpt>
      <trkpt lat="45.0828" lon="5.61005">
        <ele>1650.240479</ele>
        <time>2010-04-01T12:26:43Z</time>
      </trkpt>
      <trkpt lat="45.08278" lon="5.61004">
        <ele>1650.240479</ele>
        <time>2010-04-01T12:26:47Z</time>
      </trkpt>
      <trkpt lat="45.08275" lon="5.61004">
        <ele>1650.240479</ele>
        <time>2010-04-01T12:26:52Z</time>
      </trkpt>
      <trkpt lat="45.08272" lon="5.61004">
        <ele>1651.20166</ele>
        <time>2010-04-01T12:26:57Z</time>
      </trkpt>
      <trkpt lat="45.08269" lon="5.61003">
        <ele>1651.682373</ele>
        <time>2010-04-01T12:27:03Z</time>
      </trkpt>
      <trkpt lat="45.08266" lon="5.61004">
        <ele>1651.682373</ele>
        <time>2010-04-01T12:27:07Z</time>
      </trkpt>
      <trkpt lat="45.08262" lon="5.61002">
        <ele>1652.162842</ele>
        <time>2010-04-01T12:27:12Z</time>
      </trkpt>
      <trkpt lat="45.08259" lon="5.61002">
        <ele>1653.60498</ele>
        <time>2010-04-01T12:27:18Z</time>
      </trkpt>
      <trkpt lat="45.08256" lon="5.61001">
        <ele>1654.566162</ele>
        <time>2010-04-01T12:27:22Z</time>
      </trkpt>
      <trkpt lat="45.08254" lon="5.60999">
        <ele>1656.969482</ele>
        <time>2010-04-01T12:27:27Z</time>
      </trkpt>
      <trkpt lat="45.08252" lon="5.60999">
        <ele>1656.969482</ele>
        <time>2010-04-01T12:27:33Z</time>
      </trkpt>
      <trkpt lat="45.08255" lon="5.61002">
        <ele>1658.411377</ele>
        <time>2010-04-01T12:27:39Z</time>
      </trkpt>
      <trkpt lat="45.08257" lon="5.61007">
        <ele>1660.334229</ele>
        <time>2010-04-01T12:27:46Z</time>
      </trkpt>
      <trkpt lat="45.08258" lon="5.6101">
        <ele>1661.776367</ele>
        <time>2010-04-01T12:27:50Z</time>
      </trkpt>
      <trkpt lat="45.08259" lon="5.61013">
        <ele>1662.737549</ele>
        <time>2010-04-01T12:27:55Z</time>
      </trkpt>
      <trkpt lat="45.0826" lon="5.61017">
        <ele>1663.218262</ele>
        <time>2010-04-01T12:28:00Z</time>
      </trkpt>
      <trkpt lat="45.08261" lon="5.61021">
        <ele>1664.179443</ele>
        <time>2010-04-01T12:28:06Z</time>
      </trkpt>
      <trkpt lat="45.08262" lon="5.61026">
        <ele>1664.660156</ele>
        <time>2010-04-01T12:28:12Z</time>
      </trkpt>
      <trkpt lat="45.08263" lon="5.61029">
        <ele>1666.102051</ele>
        <time>2010-04-01T12:28:17Z</time>
      </trkpt>
      <trkpt lat="45.08264" lon="5.61033">
        <ele>1667.063477</ele>
        <time>2010-04-01T12:28:24Z</time>
      </trkpt>
      <trkpt lat="45.08265" lon="5.61037">
        <ele>1669.466797</ele>
        <time>2010-04-01T12:28:31Z</time>
      </trkpt>
      <trkpt lat="45.08266" lon="5.6104">
        <ele>1670.427979</ele>
        <time>2010-04-01T12:28:37Z</time>
      </trkpt>
      <trkpt lat="45.08262" lon="5.6104">
        <ele>1670.908691</ele>
        <time>2010-04-01T12:28:43Z</time>
      </trkpt>
      <trkpt lat="45.08258" lon="5.6104">
        <ele>1670.908691</ele>
        <time>2010-04-01T12:28:49Z</time>
      </trkpt>
      <trkpt lat="45.08256" lon="5.6104">
        <ele>1670.908691</ele>
        <time>2010-04-01T12:28:52Z</time>
      </trkpt>
      <trkpt lat="45.08254" lon="5.6104">
        <ele>1670.908691</ele>
        <time>2010-04-01T12:28:56Z</time>
      </trkpt>
      <trkpt lat="45.08251" lon="5.6104">
        <ele>1671.869873</ele>
        <time>2010-04-01T12:29:00Z</time>
      </trkpt>
      <trkpt lat="45.08248" lon="5.61039">
        <ele>1672.831299</ele>
        <time>2010-04-01T12:29:05Z</time>
      </trkpt>
      <trkpt lat="45.08245" lon="5.61039">
        <ele>1674.273193</ele>
        <time>2010-04-01T12:29:11Z</time>
      </trkpt>
      <trkpt lat="45.08243" lon="5.61039">
        <ele>1674.273193</ele>
        <time>2010-04-01T12:29:15Z</time>
      </trkpt>
      <trkpt lat="45.0824" lon="5.61038">
        <ele>1675.234375</ele>
        <time>2010-04-01T12:29:20Z</time>
      </trkpt>
      <trkpt lat="45.08238" lon="5.61038">
        <ele>1676.196045</ele>
        <time>2010-04-01T12:29:25Z</time>
      </trkpt>
      <trkpt lat="45.08236" lon="5.61038">
        <ele>1677.157471</ele>
        <time>2010-04-01T12:29:30Z</time>
      </trkpt>
      <trkpt lat="45.08232" lon="5.61037">
        <ele>1676.676758</ele>
        <time>2010-04-01T12:29:36Z</time>
      </trkpt>
      <trkpt lat="45.08228" lon="5.61037">
        <ele>1678.118652</ele>
        <time>2010-04-01T12:29:42Z</time>
      </trkpt>
      <trkpt lat="45.08226" lon="5.61036">
        <ele>1678.599365</ele>
        <time>2010-04-01T12:29:46Z</time>
      </trkpt>
      <trkpt lat="45.08223" lon="5.61035">
        <ele>1679.079834</ele>
        <time>2010-04-01T12:29:51Z</time>
      </trkpt>
      <trkpt lat="45.08218" lon="5.61034">
        <ele>1680.521973</ele>
        <time>2010-04-01T12:29:58Z</time>
      </trkpt>
      <trkpt lat="45.08215" lon="5.61034">
        <ele>1681.002686</ele>
        <time>2010-04-01T12:30:04Z</time>
      </trkpt>
      <trkpt lat="45.08212" lon="5.61033">
        <ele>1681.002686</ele>
        <time>2010-04-01T12:30:07Z</time>
      </trkpt>
      <trkpt lat="45.0821" lon="5.61033">
        <ele>1681.483154</ele>
        <time>2010-04-01T12:30:12Z</time>
      </trkpt>
      <trkpt lat="45.08211" lon="5.61034">
        <ele>1681.963867</ele>
        <time>2010-04-01T12:30:16Z</time>
      </trkpt>
      <trkpt lat="45.08212" lon="5.61035">
        <ele>1681.963867</ele>
        <time>2010-04-01T12:30:21Z</time>
      </trkpt>
      <trkpt lat="45.08213" lon="5.61036">
        <ele>1681.483154</ele>
        <time>2010-04-01T12:30:33Z</time>
      </trkpt>
      <trkpt lat="45.08214" lon="5.6104">
        <ele>1682.44458</ele>
        <time>2010-04-01T12:30:38Z</time>
      </trkpt>
      <trkpt lat="45.08216" lon="5.61044">
        <ele>1683.886475</ele>
        <time>2010-04-01T12:30:43Z</time>
      </trkpt>
      <trkpt lat="45.08217" lon="5.61047">
        <ele>1685.328369</ele>
        <time>2010-04-01T12:30:48Z</time>
      </trkpt>
      <trkpt lat="45.08219" lon="5.61052">
        <ele>1687.731689</ele>
        <time>2010-04-01T12:30:55Z</time>
      </trkpt>
      <trkpt lat="45.08222" lon="5.61059">
        <ele>1689.654297</ele>
        <time>2010-04-01T12:31:03Z</time>
      </trkpt>
      <trkpt lat="45.08223" lon="5.61063">
        <ele>1690.615479</ele>
        <time>2010-04-01T12:31:08Z</time>
      </trkpt>
      <trkpt lat="45.08225" lon="5.61066">
        <ele>1692.057861</ele>
        <time>2010-04-01T12:31:13Z</time>
      </trkpt>
      <trkpt lat="45.08226" lon="5.61069">
        <ele>1693.499756</ele>
        <time>2010-04-01T12:31:18Z</time>
      </trkpt>
      <trkpt lat="45.08228" lon="5.61073">
        <ele>1694.460938</ele>
        <time>2010-04-01T12:31:24Z</time>
      </trkpt>
      <trkpt lat="45.0823" lon="5.61075">
        <ele>1695.422363</ele>
        <time>2010-04-01T12:31:29Z</time>
      </trkpt>
      <trkpt lat="45.08232" lon="5.61078">
        <ele>1695.903076</ele>
        <time>2010-04-01T12:31:34Z</time>
      </trkpt>
      <trkpt lat="45.08235" lon="5.6108">
        <ele>1696.864258</ele>
        <time>2010-04-01T12:31:39Z</time>
      </trkpt>
      <trkpt lat="45.08239" lon="5.61081">
        <ele>1697.825684</ele>
        <time>2010-04-01T12:31:45Z</time>
      </trkpt>
      <trkpt lat="45.08246" lon="5.61081">
        <ele>1698.786865</ele>
        <time>2010-04-01T12:31:53Z</time>
      </trkpt>
      <trkpt lat="45.0825" lon="5.61081">
        <ele>1698.786865</ele>
        <time>2010-04-01T12:31:59Z</time>
      </trkpt>
      <trkpt lat="45.08257" lon="5.6108">
        <ele>1699.267578</ele>
        <time>2010-04-01T12:32:07Z</time>
      </trkpt>
      <trkpt lat="45.08263" lon="5.61076">
        <ele>1699.748291</ele>
        <time>2010-04-01T12:32:15Z</time>
      </trkpt>
      <trkpt lat="45.08267" lon="5.61074">
        <ele>1699.748291</ele>
        <time>2010-04-01T12:32:20Z</time>
      </trkpt>
      <trkpt lat="45.08272" lon="5.61072">
        <ele>1699.748291</ele>
        <time>2010-04-01T12:32:24Z</time>
      </trkpt>
      <trkpt lat="45.08279" lon="5.6107">
        <ele>1700.709473</ele>
        <time>2010-04-01T12:32:32Z</time>
      </trkpt>
      <trkpt lat="45.08284" lon="5.61071">
        <ele>1701.670898</ele>
        <time>2010-04-01T12:32:39Z</time>
      </trkpt>
      <trkpt lat="45.08287" lon="5.61072">
        <ele>1702.151367</ele>
        <time>2010-04-01T12:32:44Z</time>
      </trkpt>
      <trkpt lat="45.08292" lon="5.61073">
        <ele>1704.074219</ele>
        <time>2010-04-01T12:32:50Z</time>
      </trkpt>
      <trkpt lat="45.08298" lon="5.61074">
        <ele>1705.516113</ele>
        <time>2010-04-01T12:33:00Z</time>
      </trkpt>
      <trkpt lat="45.08301" lon="5.61075">
        <ele>1705.516113</ele>
        <time>2010-04-01T12:33:05Z</time>
      </trkpt>
      <trkpt lat="45.08305" lon="5.61076">
        <ele>1705.996582</ele>
        <time>2010-04-01T12:33:11Z</time>
      </trkpt>
      <trkpt lat="45.08308" lon="5.61078">
        <ele>1706.477295</ele>
        <time>2010-04-01T12:33:16Z</time>
      </trkpt>
      <trkpt lat="45.08312" lon="5.61081">
        <ele>1707.919434</ele>
        <time>2010-04-01T12:33:23Z</time>
      </trkpt>
      <trkpt lat="45.08316" lon="5.61084">
        <ele>1708.400146</ele>
        <time>2010-04-01T12:33:29Z</time>
      </trkpt>
      <trkpt lat="45.08318" lon="5.61086">
        <ele>1709.842041</ele>
        <time>2010-04-01T12:33:34Z</time>
      </trkpt>
      <trkpt lat="45.08321" lon="5.61088">
        <ele>1710.803467</ele>
        <time>2010-04-01T12:33:39Z</time>
      </trkpt>
      <trkpt lat="45.08327" lon="5.61095">
        <ele>1710.803467</ele>
        <time>2010-04-01T12:33:45Z</time>
      </trkpt>
      <trkpt lat="45.08329" lon="5.611">
        <ele>1710.322754</ele>
        <time>2010-04-01T12:33:48Z</time>
      </trkpt>
      <trkpt lat="45.08329" lon="5.61105">
        <ele>1710.803467</ele>
        <time>2010-04-01T12:33:52Z</time>
      </trkpt>
      <trkpt lat="45.08331" lon="5.61111">
        <ele>1710.322754</ele>
        <time>2010-04-01T12:33:57Z</time>
      </trkpt>
      <trkpt lat="45.08332" lon="5.6112">
        <ele>1709.842041</ele>
        <time>2010-04-01T12:34:04Z</time>
      </trkpt>
      <trkpt lat="45.08332" lon="5.61126">
        <ele>1710.322754</ele>
        <time>2010-04-01T12:34:10Z</time>
      </trkpt>
      <trkpt lat="45.08333" lon="5.61134">
        <ele>1710.322754</ele>
        <time>2010-04-01T12:34:16Z</time>
      </trkpt>
      <trkpt lat="45.08335" lon="5.6114">
        <ele>1710.803467</ele>
        <time>2010-04-01T12:34:22Z</time>
      </trkpt>
      <trkpt lat="45.08335" lon="5.61147">
        <ele>1711.28418</ele>
        <time>2010-04-01T12:34:28Z</time>
      </trkpt>
      <trkpt lat="45.08336" lon="5.61154">
        <ele>1711.764893</ele>
        <time>2010-04-01T12:34:34Z</time>
      </trkpt>
      <trkpt lat="45.08337" lon="5.61161">
        <ele>1711.764893</ele>
        <time>2010-04-01T12:34:40Z</time>
      </trkpt>
      <trkpt lat="45.08337" lon="5.61169">
        <ele>1712.726074</ele>
        <time>2010-04-01T12:34:48Z</time>
      </trkpt>
      <trkpt lat="45.08337" lon="5.61175">
        <ele>1713.206787</ele>
        <time>2010-04-01T12:34:54Z</time>
      </trkpt>
      <trkpt lat="45.08337" lon="5.61179">
        <ele>1713.687256</ele>
        <time>2010-04-01T12:35:00Z</time>
      </trkpt>
      <trkpt lat="45.08337" lon="5.61184">
        <ele>1714.167969</ele>
        <time>2010-04-01T12:35:06Z</time>
      </trkpt>
      <trkpt lat="45.08337" lon="5.6119">
        <ele>1714.648682</ele>
        <time>2010-04-01T12:35:12Z</time>
      </trkpt>
      <trkpt lat="45.08337" lon="5.61195">
        <ele>1715.129395</ele>
        <time>2010-04-01T12:35:17Z</time>
      </trkpt>
      <trkpt lat="45.08338" lon="5.61198">
        <ele>1715.610107</ele>
        <time>2010-04-01T12:35:20Z</time>
      </trkpt>
      <trkpt lat="45.08338" lon="5.61203">
        <ele>1715.610107</ele>
        <time>2010-04-01T12:35:25Z</time>
      </trkpt>
      <trkpt lat="45.08338" lon="5.61208">
        <ele>1717.052002</ele>
        <time>2010-04-01T12:35:30Z</time>
      </trkpt>
      <trkpt lat="45.08338" lon="5.61216">
        <ele>1718.013184</ele>
        <time>2010-04-01T12:35:38Z</time>
      </trkpt>
      <trkpt lat="45.08338" lon="5.61223">
        <ele>1718.974609</ele>
        <time>2010-04-01T12:35:46Z</time>
      </trkpt>
      <trkpt lat="45.08337" lon="5.61225">
        <ele>1718.974609</ele>
        <time>2010-04-01T12:35:53Z</time>
      </trkpt>
      <trkpt lat="45.08338" lon="5.61225">
        <ele>1718.493896</ele>
        <time>2010-04-01T12:36:06Z</time>
      </trkpt>
      <trkpt lat="45.08338" lon="5.61225">
        <ele>1718.974609</ele>
        <time>2010-04-01T12:36:23Z</time>
      </trkpt>
      <trkpt lat="45.08338" lon="5.61231">
        <ele>1719.935791</ele>
        <time>2010-04-01T12:36:30Z</time>
      </trkpt>
      <trkpt lat="45.08337" lon="5.61236">
        <ele>1720.416504</ele>
        <time>2010-04-01T12:36:35Z</time>
      </trkpt>
      <trkpt lat="45.08336" lon="5.61241">
        <ele>1720.897217</ele>
        <time>2010-04-01T12:36:41Z</time>
      </trkpt>
      <trkpt lat="45.08335" lon="5.61246">
        <ele>1721.858398</ele>
        <time>2010-04-01T12:36:44Z</time>
      </trkpt>
      <trkpt lat="45.08334" lon="5.61249">
        <ele>1722.819824</ele>
        <time>2010-04-01T12:36:49Z</time>
      </trkpt>
      <trkpt lat="45.08332" lon="5.61251">
        <ele>1722.819824</ele>
        <time>2010-04-01T12:36:54Z</time>
      </trkpt>
      <trkpt lat="45.08333" lon="5.61252">
        <ele>1723.300537</ele>
        <time>2010-04-01T12:37:02Z</time>
      </trkpt>
      <trkpt lat="45.0833" lon="5.61256">
        <ele>1724.261963</ele>
        <time>2010-04-01T12:37:10Z</time>
      </trkpt>
      <trkpt lat="45.08328" lon="5.61259">
        <ele>1724.742676</ele>
        <time>2010-04-01T12:37:17Z</time>
      </trkpt>
      <trkpt lat="45.08324" lon="5.61263">
        <ele>1725.223145</ele>
        <time>2010-04-01T12:37:24Z</time>
      </trkpt>
      <trkpt lat="45.0832" lon="5.61264">
        <ele>1726.18457</ele>
        <time>2010-04-01T12:37:31Z</time>
      </trkpt>
      <trkpt lat="45.08317" lon="5.61265">
        <ele>1726.665283</ele>
        <time>2010-04-01T12:37:36Z</time>
      </trkpt>
      <trkpt lat="45.08314" lon="5.61265">
        <ele>1727.626465</ele>
        <time>2010-04-01T12:37:41Z</time>
      </trkpt>
      <trkpt lat="45.08309" lon="5.61265">
        <ele>1729.549072</ele>
        <time>2010-04-01T12:37:49Z</time>
      </trkpt>
      <trkpt lat="45.08305" lon="5.61263">
        <ele>1731.47168</ele>
        <time>2010-04-01T12:37:56Z</time>
      </trkpt>
      <trkpt lat="45.083" lon="5.61258">
        <ele>1733.394287</ele>
        <time>2010-04-01T12:38:05Z</time>
      </trkpt>
      <trkpt lat="45.08297" lon="5.61253">
        <ele>1734.836426</ele>
        <time>2010-04-01T12:38:12Z</time>
      </trkpt>
      <trkpt lat="45.08296" lon="5.61247">
        <ele>1735.316895</ele>
        <time>2010-04-01T12:38:18Z</time>
      </trkpt>
      <trkpt lat="45.08295" lon="5.61243">
        <ele>1737.239502</ele>
        <time>2010-04-01T12:38:23Z</time>
      </trkpt>
      <trkpt lat="45.08292" lon="5.61239">
        <ele>1738.681641</ele>
        <time>2010-04-01T12:38:30Z</time>
      </trkpt>
      <trkpt lat="45.08289" lon="5.61235">
        <ele>1739.162109</ele>
        <time>2010-04-01T12:38:36Z</time>
      </trkpt>
      <trkpt lat="45.08287" lon="5.61232">
        <ele>1739.642822</ele>
        <time>2010-04-01T12:38:42Z</time>
      </trkpt>
      <trkpt lat="45.08283" lon="5.6123">
        <ele>1740.604248</ele>
        <time>2010-04-01T12:38:49Z</time>
      </trkpt>
      <trkpt lat="45.08281" lon="5.61231">
        <ele>1740.604248</ele>
        <time>2010-04-01T12:38:55Z</time>
      </trkpt>
      <trkpt lat="45.08282" lon="5.61236">
        <ele>1741.084961</ele>
        <time>2010-04-01T12:39:00Z</time>
      </trkpt>
      <trkpt lat="45.08281" lon="5.61242">
        <ele>1741.084961</ele>
        <time>2010-04-01T12:39:07Z</time>
      </trkpt>
      <trkpt lat="45.08279" lon="5.61246">
        <ele>1742.046387</ele>
        <time>2010-04-01T12:39:13Z</time>
      </trkpt>
      <trkpt lat="45.08277" lon="5.61249">
        <ele>1742.5271</ele>
        <time>2010-04-01T12:39:18Z</time>
      </trkpt>
      <trkpt lat="45.08275" lon="5.61246">
        <ele>1743.488281</ele>
        <time>2010-04-01T12:39:24Z</time>
      </trkpt>
      <trkpt lat="45.08273" lon="5.61242">
        <ele>1743.968994</ele>
        <time>2010-04-01T12:39:29Z</time>
      </trkpt>
      <trkpt lat="45.08271" lon="5.61239">
        <ele>1744.449463</ele>
        <time>2010-04-01T12:39:34Z</time>
      </trkpt>
      <trkpt lat="45.08268" lon="5.61235">
        <ele>1745.410889</ele>
        <time>2010-04-01T12:39:40Z</time>
      </trkpt>
      <trkpt lat="45.08264" lon="5.61233">
        <ele>1745.891602</ele>
        <time>2010-04-01T12:39:44Z</time>
      </trkpt>
      <trkpt lat="45.08262" lon="5.61231">
        <ele>1746.852783</ele>
        <time>2010-04-01T12:39:48Z</time>
      </trkpt>
      <trkpt lat="45.08258" lon="5.61229">
        <ele>1747.814209</ele>
        <time>2010-04-01T12:39:53Z</time>
      </trkpt>
      <trkpt lat="45.08255" lon="5.61226">
        <ele>1748.775391</ele>
        <time>2010-04-01T12:39:59Z</time>
      </trkpt>
      <trkpt lat="45.08255" lon="5.61226">
        <ele>1749.256104</ele>
        <time>2010-04-01T12:40:03Z</time>
      </trkpt>
      <trkpt lat="45.08255" lon="5.61231">
        <ele>1749.736816</ele>
        <time>2010-04-01T12:40:09Z</time>
      </trkpt>
      <trkpt lat="45.08255" lon="5.6124">
        <ele>1750.217529</ele>
        <time>2010-04-01T12:40:17Z</time>
      </trkpt>
      <trkpt lat="45.08255" lon="5.61246">
        <ele>1750.697998</ele>
        <time>2010-04-01T12:40:24Z</time>
      </trkpt>
      <trkpt lat="45.08252" lon="5.61248">
        <ele>1751.659424</ele>
        <time>2010-04-01T12:40:30Z</time>
      </trkpt>
      <trkpt lat="45.0825" lon="5.61246">
        <ele>1752.620605</ele>
        <time>2010-04-01T12:40:34Z</time>
      </trkpt>
      <trkpt lat="45.08247" lon="5.61242">
        <ele>1754.062744</ele>
        <time>2010-04-01T12:40:41Z</time>
      </trkpt>
      <trkpt lat="45.08243" lon="5.6124">
        <ele>1754.543213</ele>
        <time>2010-04-01T12:40:47Z</time>
      </trkpt>
      <trkpt lat="45.0824" lon="5.61239">
        <ele>1755.504639</ele>
        <time>2010-04-01T12:40:52Z</time>
      </trkpt>
      <trkpt lat="45.08238" lon="5.61238">
        <ele>1756.466064</ele>
        <time>2010-04-01T12:40:56Z</time>
      </trkpt>
      <trkpt lat="45.08235" lon="5.61236">
        <ele>1756.946777</ele>
        <time>2010-04-01T12:41:00Z</time>
      </trkpt>
      <trkpt lat="45.08232" lon="5.61233">
        <ele>1758.388672</ele>
        <time>2010-04-01T12:41:07Z</time>
      </trkpt>
      <trkpt lat="45.08227" lon="5.61232">
        <ele>1759.830566</ele>
        <time>2010-04-01T12:41:14Z</time>
      </trkpt>
      <trkpt lat="45.08223" lon="5.61231">
        <ele>1760.791992</ele>
        <time>2010-04-01T12:41:21Z</time>
      </trkpt>
      <trkpt lat="45.08219" lon="5.61228">
        <ele>1761.753418</ele>
        <time>2010-04-01T12:41:28Z</time>
      </trkpt>
      <trkpt lat="45.08215" lon="5.61226">
        <ele>1762.7146</ele>
        <time>2010-04-01T12:41:34Z</time>
      </trkpt>
      <trkpt lat="45.0821" lon="5.61222">
        <ele>1762.7146</ele>
        <time>2010-04-01T12:41:41Z</time>
      </trkpt>
      <trkpt lat="45.08208" lon="5.6122">
        <ele>1764.637207</ele>
        <time>2010-04-01T12:41:46Z</time>
      </trkpt>
      <trkpt lat="45.08205" lon="5.61217">
        <ele>1765.598633</ele>
        <time>2010-04-01T12:41:52Z</time>
      </trkpt>
      <trkpt lat="45.08201" lon="5.61213">
        <ele>1766.559814</ele>
        <time>2010-04-01T12:42:00Z</time>
      </trkpt>
      <trkpt lat="45.08199" lon="5.61211">
        <ele>1767.520996</ele>
        <time>2010-04-01T12:42:06Z</time>
      </trkpt>
      <trkpt lat="45.08197" lon="5.6121">
        <ele>1768.001709</ele>
        <time>2010-04-01T12:42:14Z</time>
      </trkpt>
      <trkpt lat="45.08195" lon="5.61208">
        <ele>1768.963135</ele>
        <time>2010-04-01T12:42:19Z</time>
      </trkpt>
      <trkpt lat="45.08192" lon="5.61206">
        <ele>1770.405029</ele>
        <time>2010-04-01T12:42:24Z</time>
      </trkpt>
      <trkpt lat="45.08192" lon="5.61202">
        <ele>1771.846924</ele>
        <time>2010-04-01T12:42:29Z</time>
      </trkpt>
      <trkpt lat="45.08191" lon="5.61201">
        <ele>1772.327881</ele>
        <time>2010-04-01T12:42:34Z</time>
      </trkpt>
      <trkpt lat="45.08188" lon="5.61197">
        <ele>1773.769775</ele>
        <time>2010-04-01T12:42:39Z</time>
      </trkpt>
      <trkpt lat="45.08189" lon="5.61195">
        <ele>1774.731201</ele>
        <time>2010-04-01T12:42:44Z</time>
      </trkpt>
      <trkpt lat="45.08186" lon="5.61193">
        <ele>1775.21167</ele>
        <time>2010-04-01T12:42:51Z</time>
      </trkpt>
      <trkpt lat="45.08186" lon="5.61192">
        <ele>1775.21167</ele>
        <time>2010-04-01T12:42:56Z</time>
      </trkpt>
      <trkpt lat="45.08186" lon="5.61192">
        <ele>1775.692383</ele>
        <time>2010-04-01T12:43:00Z</time>
      </trkpt>
      <trkpt lat="45.08183" lon="5.6119">
        <ele>1775.692383</ele>
        <time>2010-04-01T12:43:05Z</time>
      </trkpt>
      <trkpt lat="45.08178" lon="5.61186">
        <ele>1777.61499</ele>
        <time>2010-04-01T12:43:12Z</time>
      </trkpt>
      <trkpt lat="45.08175" lon="5.61185">
        <ele>1778.095703</ele>
        <time>2010-04-01T12:43:17Z</time>
      </trkpt>
      <trkpt lat="45.08171" lon="5.61183">
        <ele>1779.056885</ele>
        <time>2010-04-01T12:43:24Z</time>
      </trkpt>
      <trkpt lat="45.08168" lon="5.61181">
        <ele>1779.537598</ele>
        <time>2010-04-01T12:43:30Z</time>
      </trkpt>
      <trkpt lat="45.08164" lon="5.61179">
        <ele>1780.499023</ele>
        <time>2010-04-01T12:43:36Z</time>
      </trkpt>
      <trkpt lat="45.0816" lon="5.61177">
        <ele>1780.979736</ele>
        <time>2010-04-01T12:43:43Z</time>
      </trkpt>
      <trkpt lat="45.08156" lon="5.61175">
        <ele>1781.940918</ele>
        <time>2010-04-01T12:43:49Z</time>
      </trkpt>
      <trkpt lat="45.08153" lon="5.61174">
        <ele>1782.9021</ele>
        <time>2010-04-01T12:43:55Z</time>
      </trkpt>
      <trkpt lat="45.0815" lon="5.61174">
        <ele>1784.344238</ele>
        <time>2010-04-01T12:44:01Z</time>
      </trkpt>
      <trkpt lat="45.08149" lon="5.61173">
        <ele>1784.824951</ele>
        <time>2010-04-01T12:44:09Z</time>
      </trkpt>
      <trkpt lat="45.08146" lon="5.61172">
        <ele>1785.30542</ele>
        <time>2010-04-01T12:44:20Z</time>
      </trkpt>
      <trkpt lat="45.08142" lon="5.61169">
        <ele>1786.266846</ele>
        <time>2010-04-01T12:44:26Z</time>
      </trkpt>
      <trkpt lat="45.08139" lon="5.61167">
        <ele>1788.67041</ele>
        <time>2010-04-01T12:44:33Z</time>
      </trkpt>
      <trkpt lat="45.08136" lon="5.61165">
        <ele>1789.631592</ele>
        <time>2010-04-01T12:44:38Z</time>
      </trkpt>
      <trkpt lat="45.08134" lon="5.61164">
        <ele>1791.073486</ele>
        <time>2010-04-01T12:44:44Z</time>
      </trkpt>
      <trkpt lat="45.08131" lon="5.61163">
        <ele>1792.515625</ele>
        <time>2010-04-01T12:44:50Z</time>
      </trkpt>
      <trkpt lat="45.08129" lon="5.61161">
        <ele>1793.95752</ele>
        <time>2010-04-01T12:44:56Z</time>
      </trkpt>
      <trkpt lat="45.08125" lon="5.61159">
        <ele>1793.95752</ele>
        <time>2010-04-01T12:45:02Z</time>
      </trkpt>
      <trkpt lat="45.08123" lon="5.61157">
        <ele>1794.437988</ele>
        <time>2010-04-01T12:45:09Z</time>
      </trkpt>
      <trkpt lat="45.08122" lon="5.61157">
        <ele>1794.437988</ele>
        <time>2010-04-01T12:45:21Z</time>
      </trkpt>
      <trkpt lat="45.08122" lon="5.61159">
        <ele>1796.36084</ele>
        <time>2010-04-01T12:45:48Z</time>
      </trkpt>
      <trkpt lat="45.08122" lon="5.61159">
        <ele>1795.399414</ele>
        <time>2010-04-01T12:46:04Z</time>
      </trkpt>
      <trkpt lat="45.08122" lon="5.61159">
        <ele>1794.437988</ele>
        <time>2010-04-01T12:46:18Z</time>
      </trkpt>
      <trkpt lat="45.08119" lon="5.61156">
        <ele>1793.95752</ele>
        <time>2010-04-01T12:46:23Z</time>
      </trkpt>
      <trkpt lat="45.08113" lon="5.61151">
        <ele>1792.996094</ele>
        <time>2010-04-01T12:46:31Z</time>
      </trkpt>
      <trkpt lat="45.08108" lon="5.61148">
        <ele>1792.996094</ele>
        <time>2010-04-01T12:46:39Z</time>
      </trkpt>
      <trkpt lat="45.08106" lon="5.61146">
        <ele>1792.515625</ele>
        <time>2010-04-01T12:46:44Z</time>
      </trkpt>
      <trkpt lat="45.08104" lon="5.61144">
        <ele>1792.034912</ele>
        <time>2010-04-01T12:46:48Z</time>
      </trkpt>
      <trkpt lat="45.08102" lon="5.61142">
        <ele>1791.554199</ele>
        <time>2010-04-01T12:46:55Z</time>
      </trkpt>
      <trkpt lat="45.08099" lon="5.61141">
        <ele>1791.554199</ele>
        <time>2010-04-01T12:47:00Z</time>
      </trkpt>
      <trkpt lat="45.08096" lon="5.61142">
        <ele>1792.515625</ele>
        <time>2010-04-01T12:47:05Z</time>
      </trkpt>
      <trkpt lat="45.08092" lon="5.61143">
        <ele>1793.95752</ele>
        <time>2010-04-01T12:47:11Z</time>
      </trkpt>
      <trkpt lat="45.08089" lon="5.61144">
        <ele>1794.918701</ele>
        <time>2010-04-01T12:47:17Z</time>
      </trkpt>
      <trkpt lat="45.08086" lon="5.61144">
        <ele>1795.399414</ele>
        <time>2010-04-01T12:47:22Z</time>
      </trkpt>
      <trkpt lat="45.08083" lon="5.61143">
        <ele>1796.36084</ele>
        <time>2010-04-01T12:47:27Z</time>
      </trkpt>
      <trkpt lat="45.0808" lon="5.61143">
        <ele>1797.322021</ele>
        <time>2010-04-01T12:47:32Z</time>
      </trkpt>
      <trkpt lat="45.08078" lon="5.61142">
        <ele>1798.283203</ele>
        <time>2010-04-01T12:47:39Z</time>
      </trkpt>
      <trkpt lat="45.08077" lon="5.61142">
        <ele>1798.763916</ele>
        <time>2010-04-01T12:47:45Z</time>
      </trkpt>
      <trkpt lat="45.08073" lon="5.61141">
        <ele>1799.725342</ele>
        <time>2010-04-01T12:47:51Z</time>
      </trkpt>
      <trkpt lat="45.08071" lon="5.61139">
        <ele>1800.206055</ele>
        <time>2010-04-01T12:47:58Z</time>
      </trkpt>
      <trkpt lat="45.08071" lon="5.61139">
        <ele>1800.686523</ele>
        <time>2010-04-01T12:48:05Z</time>
      </trkpt>
      <trkpt lat="45.0807" lon="5.61139">
        <ele>1801.167236</ele>
        <time>2010-04-01T12:48:16Z</time>
      </trkpt>
      <trkpt lat="45.0807" lon="5.61138">
        <ele>1801.167236</ele>
        <time>2010-04-01T12:48:24Z</time>
      </trkpt>
      <trkpt lat="45.08069" lon="5.61138">
        <ele>1801.647949</ele>
        <time>2010-04-01T12:48:29Z</time>
      </trkpt>
      <trkpt lat="45.08069" lon="5.61138">
        <ele>1801.167236</ele>
        <time>2010-04-01T12:48:35Z</time>
      </trkpt>
      <trkpt lat="45.0807" lon="5.61138">
        <ele>1800.686523</ele>
        <time>2010-04-01T12:48:47Z</time>
      </trkpt>
      <trkpt lat="45.0807" lon="5.61138">
        <ele>1800.206055</ele>
        <time>2010-04-01T12:48:54Z</time>
      </trkpt>
      <trkpt lat="45.08069" lon="5.61138">
        <ele>1800.206055</ele>
        <time>2010-04-01T12:49:02Z</time>
      </trkpt>
      <trkpt lat="45.08068" lon="5.61138">
        <ele>1799.244629</ele>
        <time>2010-04-01T12:49:11Z</time>
      </trkpt>
      <trkpt lat="45.08068" lon="5.61138">
        <ele>1799.244629</ele>
        <time>2010-04-01T12:49:18Z</time>
      </trkpt>
      <trkpt lat="45.08068" lon="5.61138">
        <ele>1799.725342</ele>
        <time>2010-04-01T12:49:26Z</time>
      </trkpt>
      <trkpt lat="45.08068" lon="5.61139">
        <ele>1800.686523</ele>
        <time>2010-04-01T12:49:33Z</time>
      </trkpt>
      <trkpt lat="45.08067" lon="5.61139">
        <ele>1801.167236</ele>
        <time>2010-04-01T12:49:44Z</time>
      </trkpt>
      <trkpt lat="45.08067" lon="5.61139">
        <ele>1800.686523</ele>
        <time>2010-04-01T12:49:49Z</time>
      </trkpt>
      <trkpt lat="45.08067" lon="5.61139">
        <ele>1802.609131</ele>
        <time>2010-04-01T12:49:57Z</time>
      </trkpt>
      <trkpt lat="45.08067" lon="5.61139">
        <ele>1802.128418</ele>
        <time>2010-04-01T12:50:12Z</time>
      </trkpt>
      <trkpt lat="45.08066" lon="5.61136">
        <ele>1801.647949</ele>
        <time>2010-04-01T12:50:18Z</time>
      </trkpt>
      <trkpt lat="45.08066" lon="5.61134">
        <ele>1801.647949</ele>
        <time>2010-04-01T12:50:20Z</time>
      </trkpt>
      <trkpt lat="45.08066" lon="5.61129">
        <ele>1801.167236</ele>
        <time>2010-04-01T12:50:25Z</time>
      </trkpt>
      <trkpt lat="45.08067" lon="5.61127">
        <ele>1800.686523</ele>
        <time>2010-04-01T12:50:30Z</time>
      </trkpt>
      <trkpt lat="45.08069" lon="5.61126">
        <ele>1800.686523</ele>
        <time>2010-04-01T12:50:35Z</time>
      </trkpt>
      <trkpt lat="45.08069" lon="5.61126">
        <ele>1799.725342</ele>
        <time>2010-04-01T12:50:40Z</time>
      </trkpt>
      <trkpt lat="45.08069" lon="5.61126">
        <ele>1800.206055</ele>
        <time>2010-04-01T12:50:49Z</time>
      </trkpt>
      <trkpt lat="45.08068" lon="5.61127">
        <ele>1800.686523</ele>
        <time>2010-04-01T12:50:56Z</time>
      </trkpt>
      <trkpt lat="45.08069" lon="5.61127">
        <ele>1800.686523</ele>
        <time>2010-04-01T12:51:02Z</time>
      </trkpt>
      <trkpt lat="45.08068" lon="5.61126">
        <ele>1801.167236</ele>
        <time>2010-04-01T12:51:10Z</time>
      </trkpt>
      <trkpt lat="45.08069" lon="5.61127">
        <ele>1801.167236</ele>
        <time>2010-04-01T12:51:17Z</time>
      </trkpt>
      <trkpt lat="45.08069" lon="5.61127">
        <ele>1801.167236</ele>
        <time>2010-04-01T12:51:32Z</time>
      </trkpt>
      <trkpt lat="45.08068" lon="5.61127">
        <ele>1800.686523</ele>
        <time>2010-04-01T12:51:46Z</time>
      </trkpt>
      <trkpt lat="45.0807" lon="5.61126">
        <ele>1801.647949</ele>
        <time>2010-04-01T12:51:56Z</time>
      </trkpt>
      <trkpt lat="45.08071" lon="5.61127">
        <ele>1800.686523</ele>
        <time>2010-04-01T12:52:06Z</time>
      </trkpt>
      <trkpt lat="45.08072" lon="5.61127">
        <ele>1800.686523</ele>
        <time>2010-04-01T12:52:21Z</time>
      </trkpt>
      <trkpt lat="45.08077" lon="5.6113">
        <ele>1797.802734</ele>
        <time>2010-04-01T12:52:25Z</time>
      </trkpt>
      <trkpt lat="45.08076" lon="5.61129">
        <ele>1796.841309</ele>
        <time>2010-04-01T12:52:32Z</time>
      </trkpt>
      <trkpt lat="45.08077" lon="5.61129">
        <ele>1796.36084</ele>
        <time>2010-04-01T12:52:38Z</time>
      </trkpt>
      <trkpt lat="45.08077" lon="5.61123">
        <ele>1794.918701</ele>
        <time>2010-04-01T12:52:43Z</time>
      </trkpt>
      <trkpt lat="45.08077" lon="5.61116">
        <ele>1793.476807</ele>
        <time>2010-04-01T12:52:47Z</time>
      </trkpt>
      <trkpt lat="45.08077" lon="5.61114">
        <ele>1792.996094</ele>
        <time>2010-04-01T12:52:51Z</time>
      </trkpt>
      <trkpt lat="45.08079" lon="5.61112">
        <ele>1792.034912</ele>
        <time>2010-04-01T12:53:01Z</time>
      </trkpt>
      <trkpt lat="45.08088" lon="5.61105">
        <ele>1786.266846</ele>
        <time>2010-04-01T12:53:05Z</time>
      </trkpt>
      <trkpt lat="45.08095" lon="5.61091">
        <ele>1780.979736</ele>
        <time>2010-04-01T12:53:08Z</time>
      </trkpt>
      <trkpt lat="45.08097" lon="5.61073">
        <ele>1776.653809</ele>
        <time>2010-04-01T12:53:11Z</time>
      </trkpt>
      <trkpt lat="45.08095" lon="5.61072">
        <ele>1775.692383</ele>
        <time>2010-04-01T12:53:18Z</time>
      </trkpt>
      <trkpt lat="45.08094" lon="5.6107">
        <ele>1774.731201</ele>
        <time>2010-04-01T12:53:23Z</time>
      </trkpt>
      <trkpt lat="45.08093" lon="5.61056">
        <ele>1772.808594</ele>
        <time>2010-04-01T12:53:31Z</time>
      </trkpt>
      <trkpt lat="45.08093" lon="5.61045">
        <ele>1770.885742</ele>
        <time>2010-04-01T12:53:35Z</time>
      </trkpt>
      <trkpt lat="45.08092" lon="5.61043">
        <ele>1769.443848</ele>
        <time>2010-04-01T12:53:44Z</time>
      </trkpt>
      <trkpt lat="45.08093" lon="5.61045">
        <ele>1768.482422</ele>
        <time>2010-04-01T12:53:48Z</time>
      </trkpt>
      <trkpt lat="45.08093" lon="5.61045">
        <ele>1768.482422</ele>
        <time>2010-04-01T12:53:54Z</time>
      </trkpt>
      <trkpt lat="45.08092" lon="5.61046">
        <ele>1768.001709</ele>
        <time>2010-04-01T12:53:59Z</time>
      </trkpt>
      <trkpt lat="45.08092" lon="5.61047">
        <ele>1768.001709</ele>
        <time>2010-04-01T12:54:20Z</time>
      </trkpt>
      <trkpt lat="45.08092" lon="5.61047">
        <ele>1766.079102</ele>
        <time>2010-04-01T12:54:35Z</time>
      </trkpt>
      <trkpt lat="45.08093" lon="5.61047">
        <ele>1765.598633</ele>
        <time>2010-04-01T12:54:45Z</time>
      </trkpt>
      <trkpt lat="45.08092" lon="5.61044">
        <ele>1764.156494</ele>
        <time>2010-04-01T12:54:59Z</time>
      </trkpt>
      <trkpt lat="45.08092" lon="5.61042">
        <ele>1764.156494</ele>
        <time>2010-04-01T12:55:03Z</time>
      </trkpt>
      <trkpt lat="45.08091" lon="5.61039">
        <ele>1764.156494</ele>
        <time>2010-04-01T12:55:07Z</time>
      </trkpt>
      <trkpt lat="45.0809" lon="5.61035">
        <ele>1763.675781</ele>
        <time>2010-04-01T12:55:12Z</time>
      </trkpt>
      <trkpt lat="45.08088" lon="5.61031">
        <ele>1762.7146</ele>
        <time>2010-04-01T12:55:16Z</time>
      </trkpt>
      <trkpt lat="45.08088" lon="5.61028">
        <ele>1761.272705</ele>
        <time>2010-04-01T12:55:25Z</time>
      </trkpt>
      <trkpt lat="45.08097" lon="5.61019">
        <ele>1758.388672</ele>
        <time>2010-04-01T12:55:28Z</time>
      </trkpt>
      <trkpt lat="45.08111" lon="5.61012">
        <ele>1749.736816</ele>
        <time>2010-04-01T12:55:31Z</time>
      </trkpt>
      <trkpt lat="45.08122" lon="5.61001">
        <ele>1740.604248</ele>
        <time>2010-04-01T12:55:34Z</time>
      </trkpt>
      <trkpt lat="45.08132" lon="5.60997">
        <ele>1734.355713</ele>
        <time>2010-04-01T12:55:36Z</time>
      </trkpt>
      <trkpt lat="45.08141" lon="5.60989">
        <ele>1728.587891</ele>
        <time>2010-04-01T12:55:38Z</time>
      </trkpt>
      <trkpt lat="45.08148" lon="5.60979">
        <ele>1718.974609</ele>
        <time>2010-04-01T12:55:40Z</time>
      </trkpt>
      <trkpt lat="45.08155" lon="5.6097">
        <ele>1709.842041</ele>
        <time>2010-04-01T12:55:42Z</time>
      </trkpt>
      <trkpt lat="45.08162" lon="5.60962">
        <ele>1701.190186</ele>
        <time>2010-04-01T12:55:44Z</time>
      </trkpt>
      <trkpt lat="45.08173" lon="5.60962">
        <ele>1691.576904</ele>
        <time>2010-04-01T12:55:47Z</time>
      </trkpt>
      <trkpt lat="45.08174" lon="5.60969">
        <ele>1686.289795</ele>
        <time>2010-04-01T12:55:50Z</time>
      </trkpt>
      <trkpt lat="45.08174" lon="5.6097">
        <ele>1682.925049</ele>
        <time>2010-04-01T12:55:59Z</time>
      </trkpt>
      <trkpt lat="45.08173" lon="5.60971">
        <ele>1683.886475</ele>
        <time>2010-04-01T12:56:11Z</time>
      </trkpt>
      <trkpt lat="45.08173" lon="5.6097">
        <ele>1683.886475</ele>
        <time>2010-04-01T12:56:22Z</time>
      </trkpt>
      <trkpt lat="45.08172" lon="5.6097">
        <ele>1683.405762</ele>
        <time>2010-04-01T12:56:31Z</time>
      </trkpt>
      <trkpt lat="45.0817" lon="5.60967">
        <ele>1682.44458</ele>
        <time>2010-04-01T12:56:50Z</time>
      </trkpt>
      <trkpt lat="45.0817" lon="5.60968">
        <ele>1681.963867</ele>
        <time>2010-04-01T12:57:02Z</time>
      </trkpt>
      <trkpt lat="45.08169" lon="5.6097">
        <ele>1682.44458</ele>
        <time>2010-04-01T12:57:14Z</time>
      </trkpt>
      <trkpt lat="45.08169" lon="5.6097">
        <ele>1682.44458</ele>
        <time>2010-04-01T12:57:30Z</time>
      </trkpt>
      <trkpt lat="45.0817" lon="5.6097">
        <ele>1682.925049</ele>
        <time>2010-04-01T12:57:41Z</time>
      </trkpt>
      <trkpt lat="45.08172" lon="5.60974">
        <ele>1682.44458</ele>
        <time>2010-04-01T12:57:47Z</time>
      </trkpt>
      <trkpt lat="45.08195" lon="5.60979">
        <ele>1679.560547</ele>
        <time>2010-04-01T12:57:51Z</time>
      </trkpt>
      <trkpt lat="45.08214" lon="5.6096">
        <ele>1666.102051</ele>
        <time>2010-04-01T12:57:54Z</time>
      </trkpt>
      <trkpt lat="45.08221" lon="5.6095">
        <ele>1657.930908</ele>
        <time>2010-04-01T12:57:56Z</time>
      </trkpt>
      <trkpt lat="45.08217" lon="5.60944">
        <ele>1652.162842</ele>
        <time>2010-04-01T12:57:58Z</time>
      </trkpt>
      <trkpt lat="45.08217" lon="5.60943">
        <ele>1649.759766</ele>
        <time>2010-04-01T12:58:02Z</time>
      </trkpt>
      <trkpt lat="45.08217" lon="5.60945">
        <ele>1653.124268</ele>
        <time>2010-04-01T12:58:17Z</time>
      </trkpt>
      <trkpt lat="45.08218" lon="5.60946">
        <ele>1657.930908</ele>
        <time>2010-04-01T12:59:03Z</time>
      </trkpt>
      <trkpt lat="45.08217" lon="5.60943">
        <ele>1657.450195</ele>
        <time>2010-04-01T12:59:10Z</time>
      </trkpt>
      <trkpt lat="45.08216" lon="5.60943">
        <ele>1656.969482</ele>
        <time>2010-04-01T12:59:40Z</time>
      </trkpt>
      <trkpt lat="45.08216" lon="5.60943">
        <ele>1656.969482</ele>
        <time>2010-04-01T12:59:54Z</time>
      </trkpt>
      <trkpt lat="45.08216" lon="5.60943">
        <ele>1656.48877</ele>
        <time>2010-04-01T13:00:02Z</time>
      </trkpt>
      <trkpt lat="45.08216" lon="5.60942">
        <ele>1656.48877</ele>
        <time>2010-04-01T13:00:08Z</time>
      </trkpt>
      <trkpt lat="45.08217" lon="5.60942">
        <ele>1656.48877</ele>
        <time>2010-04-01T13:00:17Z</time>
      </trkpt>
      <trkpt lat="45.08218" lon="5.60942">
        <ele>1657.450195</ele>
        <time>2010-04-01T13:00:39Z</time>
      </trkpt>
      <trkpt lat="45.08218" lon="5.60942">
        <ele>1656.969482</ele>
        <time>2010-04-01T13:00:43Z</time>
      </trkpt>
      <trkpt lat="45.08218" lon="5.60943">
        <ele>1655.527588</ele>
        <time>2010-04-01T13:00:56Z</time>
      </trkpt>
      <trkpt lat="45.08218" lon="5.60944">
        <ele>1655.046875</ele>
        <time>2010-04-01T13:01:08Z</time>
      </trkpt>
      <trkpt lat="45.08218" lon="5.60944">
        <ele>1654.566162</ele>
        <time>2010-04-01T13:01:17Z</time>
      </trkpt>
      <trkpt lat="45.08218" lon="5.60945">
        <ele>1653.60498</ele>
        <time>2010-04-01T13:01:30Z</time>
      </trkpt>
      <trkpt lat="45.08218" lon="5.60944">
        <ele>1652.643555</ele>
        <time>2010-04-01T13:01:43Z</time>
      </trkpt>
      <trkpt lat="45.08218" lon="5.60945">
        <ele>1651.20166</ele>
        <time>2010-04-01T13:02:47Z</time>
      </trkpt>
      <trkpt lat="45.08218" lon="5.60944">
        <ele>1650.240479</ele>
        <time>2010-04-01T13:03:16Z</time>
      </trkpt>
      <trkpt lat="45.08219" lon="5.60945">
        <ele>1651.20166</ele>
        <time>2010-04-01T13:03:35Z</time>
      </trkpt>
      <trkpt lat="45.0822" lon="5.60945">
        <ele>1651.682373</ele>
        <time>2010-04-01T13:03:59Z</time>
      </trkpt>
      <trkpt lat="45.08222" lon="5.60948">
        <ele>1651.20166</ele>
        <time>2010-04-01T13:04:05Z</time>
      </trkpt>
      <trkpt lat="45.08224" lon="5.6095">
        <ele>1650.240479</ele>
        <time>2010-04-01T13:04:11Z</time>
      </trkpt>
      <trkpt lat="45.08229" lon="5.60954">
        <ele>1648.317627</ele>
        <time>2010-04-01T13:04:24Z</time>
      </trkpt>
      <trkpt lat="45.08244" lon="5.60961">
        <ele>1644.472412</ele>
        <time>2010-04-01T13:04:27Z</time>
      </trkpt>
      <trkpt lat="45.08273" lon="5.60945">
        <ele>1634.859375</ele>
        <time>2010-04-01T13:04:31Z</time>
      </trkpt>
      <trkpt lat="45.08281" lon="5.60944">
        <ele>1632.936523</ele>
        <time>2010-04-01T13:04:32Z</time>
      </trkpt>
      <trkpt lat="45.08304" lon="5.60942">
        <ele>1628.130127</ele>
        <time>2010-04-01T13:04:35Z</time>
      </trkpt>
      <trkpt lat="45.08323" lon="5.60924">
        <ele>1622.362061</ele>
        <time>2010-04-01T13:04:39Z</time>
      </trkpt>
      <trkpt lat="45.08325" lon="5.60895">
        <ele>1618.036133</ele>
        <time>2010-04-01T13:04:43Z</time>
      </trkpt>
      <trkpt lat="45.08332" lon="5.60875">
        <ele>1614.671631</ele>
        <time>2010-04-01T13:04:46Z</time>
      </trkpt>
      <trkpt lat="45.08343" lon="5.60859">
        <ele>1611.306885</ele>
        <time>2010-04-01T13:04:50Z</time>
      </trkpt>
      <trkpt lat="45.08346" lon="5.60855">
        <ele>1610.345459</ele>
        <time>2010-04-01T13:04:51Z</time>
      </trkpt>
      <trkpt lat="45.08352" lon="5.60845">
        <ele>1608.422852</ele>
        <time>2010-04-01T13:04:53Z</time>
      </trkpt>
      <trkpt lat="45.08368" lon="5.60819">
        <ele>1603.616455</ele>
        <time>2010-04-01T13:04:58Z</time>
      </trkpt>
      <trkpt lat="45.08376" lon="5.60812">
        <ele>1601.693848</ele>
        <time>2010-04-01T13:05:00Z</time>
      </trkpt>
      <trkpt lat="45.08389" lon="5.60802">
        <ele>1600.251953</ele>
        <time>2010-04-01T13:05:03Z</time>
      </trkpt>
      <trkpt lat="45.08395" lon="5.6079">
        <ele>1598.809814</ele>
        <time>2010-04-01T13:05:07Z</time>
      </trkpt>
      <trkpt lat="45.084" lon="5.60767">
        <ele>1595.445068</ele>
        <time>2010-04-01T13:05:12Z</time>
      </trkpt>
      <trkpt lat="45.08405" lon="5.60749">
        <ele>1592.080566</ele>
        <time>2010-04-01T13:05:16Z</time>
      </trkpt>
      <trkpt lat="45.08407" lon="5.60743">
        <ele>1591.599854</ele>
        <time>2010-04-01T13:05:17Z</time>
      </trkpt>
      <trkpt lat="45.08413" lon="5.60728">
        <ele>1589.196533</ele>
        <time>2010-04-01T13:05:20Z</time>
      </trkpt>
      <trkpt lat="45.08422" lon="5.60711">
        <ele>1584.87085</ele>
        <time>2010-04-01T13:05:24Z</time>
      </trkpt>
      <trkpt lat="45.08431" lon="5.60689">
        <ele>1579.102539</ele>
        <time>2010-04-01T13:05:28Z</time>
      </trkpt>
      <trkpt lat="45.08437" lon="5.6068">
        <ele>1576.21875</ele>
        <time>2010-04-01T13:05:30Z</time>
      </trkpt>
      <trkpt lat="45.08449" lon="5.60659">
        <ele>1571.412109</ele>
        <time>2010-04-01T13:05:35Z</time>
      </trkpt>
      <trkpt lat="45.08456" lon="5.60653">
        <ele>1569.489746</ele>
        <time>2010-04-01T13:05:37Z</time>
      </trkpt>
      <trkpt lat="45.08485" lon="5.60653">
        <ele>1562.279541</ele>
        <time>2010-04-01T13:05:43Z</time>
      </trkpt>
      <trkpt lat="45.08497" lon="5.60656">
        <ele>1561.799072</ele>
        <time>2010-04-01T13:05:46Z</time>
      </trkpt>
      <trkpt lat="45.085" lon="5.60658">
        <ele>1562.279541</ele>
        <time>2010-04-01T13:05:51Z</time>
      </trkpt>
      <trkpt lat="45.08502" lon="5.6066">
        <ele>1559.395752</ele>
        <time>2010-04-01T13:05:58Z</time>
      </trkpt>
      <trkpt lat="45.08509" lon="5.60657">
        <ele>1557.953857</ele>
        <time>2010-04-01T13:06:02Z</time>
      </trkpt>
      <trkpt lat="45.08517" lon="5.60655">
        <ele>1557.953857</ele>
        <time>2010-04-01T13:06:06Z</time>
      </trkpt>
      <trkpt lat="45.08521" lon="5.60654">
        <ele>1557.953857</ele>
        <time>2010-04-01T13:06:10Z</time>
      </trkpt>
      <trkpt lat="45.0853" lon="5.60648">
        <ele>1556.992432</ele>
        <time>2010-04-01T13:06:15Z</time>
      </trkpt>
      <trkpt lat="45.08539" lon="5.60638">
        <ele>1556.511719</ele>
        <time>2010-04-01T13:06:19Z</time>
      </trkpt>
      <trkpt lat="45.08547" lon="5.60629">
        <ele>1554.589111</ele>
        <time>2010-04-01T13:06:22Z</time>
      </trkpt>
      <trkpt lat="45.08553" lon="5.60618">
        <ele>1552.666504</ele>
        <time>2010-04-01T13:06:26Z</time>
      </trkpt>
      <trkpt lat="45.08557" lon="5.60615">
        <ele>1551.705322</ele>
        <time>2010-04-01T13:06:33Z</time>
      </trkpt>
      <trkpt lat="45.08557" lon="5.60611">
        <ele>1549.782715</ele>
        <time>2010-04-01T13:06:45Z</time>
      </trkpt>
      <trkpt lat="45.08558" lon="5.60609">
        <ele>1549.782715</ele>
        <time>2010-04-01T13:06:46Z</time>
      </trkpt>
      <trkpt lat="45.08558" lon="5.60604">
        <ele>1548.340576</ele>
        <time>2010-04-01T13:06:49Z</time>
      </trkpt>
      <trkpt lat="45.08555" lon="5.60601">
        <ele>1548.340576</ele>
        <time>2010-04-01T13:06:53Z</time>
      </trkpt>
      <trkpt lat="45.08554" lon="5.606">
        <ele>1549.302002</ele>
        <time>2010-04-01T13:06:59Z</time>
      </trkpt>
      <trkpt lat="45.08554" lon="5.60601">
        <ele>1549.302002</ele>
        <time>2010-04-01T13:07:06Z</time>
      </trkpt>
      <trkpt lat="45.08557" lon="5.60601">
        <ele>1548.340576</ele>
        <time>2010-04-01T13:07:11Z</time>
      </trkpt>
      <trkpt lat="45.08564" lon="5.60599">
        <ele>1545.937256</ele>
        <time>2010-04-01T13:07:16Z</time>
      </trkpt>
      <trkpt lat="45.08571" lon="5.60592">
        <ele>1545.456543</ele>
        <time>2010-04-01T13:07:22Z</time>
      </trkpt>
      <trkpt lat="45.08572" lon="5.60591">
        <ele>1545.937256</ele>
        <time>2010-04-01T13:07:24Z</time>
      </trkpt>
      <trkpt lat="45.08575" lon="5.60583">
        <ele>1544.97583</ele>
        <time>2010-04-01T13:07:28Z</time>
      </trkpt>
      <trkpt lat="45.08585" lon="5.60578">
        <ele>1539.688721</ele>
        <time>2010-04-01T13:07:34Z</time>
      </trkpt>
      <trkpt lat="45.08588" lon="5.60579">
        <ele>1538.727539</ele>
        <time>2010-04-01T13:07:38Z</time>
      </trkpt>
      <trkpt lat="45.0859" lon="5.60581">
        <ele>1541.611328</ele>
        <time>2010-04-01T13:07:49Z</time>
      </trkpt>
      <trkpt lat="45.08593" lon="5.60584">
        <ele>1537.766113</ele>
        <time>2010-04-01T13:07:55Z</time>
      </trkpt>
      <trkpt lat="45.08599" lon="5.60588">
        <ele>1537.2854</ele>
        <time>2010-04-01T13:07:58Z</time>
      </trkpt>
      <trkpt lat="45.08606" lon="5.6058">
        <ele>1533.920898</ele>
        <time>2010-04-01T13:08:02Z</time>
      </trkpt>
      <trkpt lat="45.0861" lon="5.60572">
        <ele>1532.479004</ele>
        <time>2010-04-01T13:08:04Z</time>
      </trkpt>
      <trkpt lat="45.08627" lon="5.60546">
        <ele>1529.594727</ele>
        <time>2010-04-01T13:08:10Z</time>
      </trkpt>
      <trkpt lat="45.08631" lon="5.60537">
        <ele>1529.594727</ele>
        <time>2010-04-01T13:08:13Z</time>
      </trkpt>
      <trkpt lat="45.08631" lon="5.60533">
        <ele>1530.075439</ele>
        <time>2010-04-01T13:08:16Z</time>
      </trkpt>
      <trkpt lat="45.08636" lon="5.60527">
        <ele>1529.114014</ele>
        <time>2010-04-01T13:08:20Z</time>
      </trkpt>
      <trkpt lat="45.08643" lon="5.6052">
        <ele>1527.672119</ele>
        <time>2010-04-01T13:08:25Z</time>
      </trkpt>
      <trkpt lat="45.08648" lon="5.6052">
        <ele>1521.423584</ele>
        <time>2010-04-01T13:08:29Z</time>
      </trkpt>
      <trkpt lat="45.08655" lon="5.60517">
        <ele>1516.617188</ele>
        <time>2010-04-01T13:08:34Z</time>
      </trkpt>
      <trkpt lat="45.08658" lon="5.60517">
        <ele>1517.578369</ele>
        <time>2010-04-01T13:08:35Z</time>
      </trkpt>
      <trkpt lat="45.08668" lon="5.60527">
        <ele>1511.810547</ele>
        <time>2010-04-01T13:08:41Z</time>
      </trkpt>
      <trkpt lat="45.08672" lon="5.60526">
        <ele>1513.73291</ele>
        <time>2010-04-01T13:08:45Z</time>
      </trkpt>
      <trkpt lat="45.08674" lon="5.60525">
        <ele>1511.810547</ele>
        <time>2010-04-01T13:08:49Z</time>
      </trkpt>
      <trkpt lat="45.0868" lon="5.60523">
        <ele>1511.329834</ele>
        <time>2010-04-01T13:08:55Z</time>
      </trkpt>
      <trkpt lat="45.08685" lon="5.60521">
        <ele>1512.291016</ele>
        <time>2010-04-01T13:09:00Z</time>
      </trkpt>
      <trkpt lat="45.08695" lon="5.60519">
        <ele>1507.965332</ele>
        <time>2010-04-01T13:09:05Z</time>
      </trkpt>
      <trkpt lat="45.087" lon="5.60519">
        <ele>1506.04248</ele>
        <time>2010-04-01T13:09:08Z</time>
      </trkpt>
      <trkpt lat="45.08702" lon="5.60518">
        <ele>1505.081299</ele>
        <time>2010-04-01T13:09:10Z</time>
      </trkpt>
      <trkpt lat="45.08705" lon="5.60518">
        <ele>1504.120117</ele>
        <time>2010-04-01T13:09:13Z</time>
      </trkpt>
      <trkpt lat="45.08719" lon="5.60528">
        <ele>1498.83252</ele>
        <time>2010-04-01T13:09:19Z</time>
      </trkpt>
      <trkpt lat="45.08726" lon="5.6053">
        <ele>1497.871338</ele>
        <time>2010-04-01T13:09:22Z</time>
      </trkpt>
      <trkpt lat="45.0873" lon="5.60529">
        <ele>1498.351807</ele>
        <time>2010-04-01T13:09:24Z</time>
      </trkpt>
      <trkpt lat="45.08738" lon="5.60521">
        <ele>1504.120117</ele>
        <time>2010-04-01T13:09:29Z</time>
      </trkpt>
      <trkpt lat="45.0874" lon="5.60517">
        <ele>1505.562012</ele>
        <time>2010-04-01T13:09:31Z</time>
      </trkpt>
      <trkpt lat="45.08751" lon="5.60505">
        <ele>1505.081299</ele>
        <time>2010-04-01T13:09:38Z</time>
      </trkpt>
      <trkpt lat="45.08752" lon="5.60505">
        <ele>1505.562012</ele>
        <time>2010-04-01T13:09:39Z</time>
      </trkpt>
      <trkpt lat="45.08755" lon="5.60498">
        <ele>1507.003906</ele>
        <time>2010-04-01T13:09:45Z</time>
      </trkpt>
      <trkpt lat="45.0876" lon="5.6049">
        <ele>1507.484619</ele>
        <time>2010-04-01T13:09:51Z</time>
      </trkpt>
      <trkpt lat="45.08763" lon="5.60487">
        <ele>1504.600586</ele>
        <time>2010-04-01T13:10:01Z</time>
      </trkpt>
      <trkpt lat="45.08768" lon="5.60481">
        <ele>1504.600586</ele>
        <time>2010-04-01T13:10:06Z</time>
      </trkpt>
      <trkpt lat="45.08771" lon="5.60479">
        <ele>1505.081299</ele>
        <time>2010-04-01T13:10:11Z</time>
      </trkpt>
      <trkpt lat="45.08776" lon="5.60476">
        <ele>1504.120117</ele>
        <time>2010-04-01T13:10:15Z</time>
      </trkpt>
      <trkpt lat="45.08779" lon="5.60468">
        <ele>1506.04248</ele>
        <time>2010-04-01T13:10:23Z</time>
      </trkpt>
      <trkpt lat="45.08781" lon="5.60466">
        <ele>1505.562012</ele>
        <time>2010-04-01T13:10:27Z</time>
      </trkpt>
      <trkpt lat="45.08782" lon="5.60464">
        <ele>1505.081299</ele>
        <time>2010-04-01T13:10:31Z</time>
      </trkpt>
      <trkpt lat="45.08784" lon="5.60462">
        <ele>1504.120117</ele>
        <time>2010-04-01T13:10:40Z</time>
      </trkpt>
      <trkpt lat="45.08785" lon="5.60461">
        <ele>1503.639404</ele>
        <time>2010-04-01T13:10:45Z</time>
      </trkpt>
      <trkpt lat="45.08786" lon="5.6046">
        <ele>1503.158691</ele>
        <time>2010-04-01T13:10:49Z</time>
      </trkpt>
      <trkpt lat="45.08787" lon="5.60458">
        <ele>1502.677979</ele>
        <time>2010-04-01T13:10:53Z</time>
      </trkpt>
      <trkpt lat="45.08788" lon="5.60457">
        <ele>1500.755371</ele>
        <time>2010-04-01T13:10:59Z</time>
      </trkpt>
      <trkpt lat="45.08789" lon="5.60452">
        <ele>1500.755371</ele>
        <time>2010-04-01T13:11:09Z</time>
      </trkpt>
      <trkpt lat="45.08792" lon="5.60449">
        <ele>1501.716797</ele>
        <time>2010-04-01T13:11:14Z</time>
      </trkpt>
      <trkpt lat="45.08793" lon="5.60448">
        <ele>1502.677979</ele>
        <time>2010-04-01T13:11:18Z</time>
      </trkpt>
      <trkpt lat="45.08795" lon="5.60445">
        <ele>1502.677979</ele>
        <time>2010-04-01T13:11:23Z</time>
      </trkpt>
      <trkpt lat="45.08797" lon="5.6044">
        <ele>1503.639404</ele>
        <time>2010-04-01T13:11:26Z</time>
      </trkpt>
      <trkpt lat="45.08804" lon="5.60427">
        <ele>1504.120117</ele>
        <time>2010-04-01T13:11:33Z</time>
      </trkpt>
      <trkpt lat="45.08807" lon="5.6042">
        <ele>1503.158691</ele>
        <time>2010-04-01T13:11:39Z</time>
      </trkpt>
      <trkpt lat="45.08808" lon="5.60419">
        <ele>1502.677979</ele>
        <time>2010-04-01T13:11:44Z</time>
      </trkpt>
      <trkpt lat="45.08808" lon="5.60416">
        <ele>1502.197266</ele>
        <time>2010-04-01T13:11:49Z</time>
      </trkpt>
      <trkpt lat="45.0881" lon="5.60414">
        <ele>1501.716797</ele>
        <time>2010-04-01T13:11:56Z</time>
      </trkpt>
      <trkpt lat="45.08813" lon="5.60413">
        <ele>1502.197266</ele>
        <time>2010-04-01T13:12:01Z</time>
      </trkpt>
      <trkpt lat="45.08814" lon="5.60408">
        <ele>1502.197266</ele>
        <time>2010-04-01T13:12:08Z</time>
      </trkpt>
      <trkpt lat="45.08815" lon="5.60407">
        <ele>1498.351807</ele>
        <time>2010-04-01T13:12:14Z</time>
      </trkpt>
      <trkpt lat="45.08816" lon="5.60402">
        <ele>1498.351807</ele>
        <time>2010-04-01T13:12:21Z</time>
      </trkpt>
      <trkpt lat="45.08817" lon="5.604">
        <ele>1498.83252</ele>
        <time>2010-04-01T13:12:22Z</time>
      </trkpt>
      <trkpt lat="45.08818" lon="5.60398">
        <ele>1499.313232</ele>
        <time>2010-04-01T13:12:24Z</time>
      </trkpt>
      <trkpt lat="45.0882" lon="5.60394">
        <ele>1498.351807</ele>
        <time>2010-04-01T13:12:32Z</time>
      </trkpt>
      <trkpt lat="45.08822" lon="5.60392">
        <ele>1498.83252</ele>
        <time>2010-04-01T13:12:37Z</time>
      </trkpt>
      <trkpt lat="45.08823" lon="5.6039">
        <ele>1499.313232</ele>
        <time>2010-04-01T13:12:41Z</time>
      </trkpt>
      <trkpt lat="45.08823" lon="5.60387">
        <ele>1499.793945</ele>
        <time>2010-04-01T13:12:44Z</time>
      </trkpt>
      <trkpt lat="45.08824" lon="5.60382">
        <ele>1500.755371</ele>
        <time>2010-04-01T13:12:49Z</time>
      </trkpt>
      <trkpt lat="45.08825" lon="5.60376">
        <ele>1499.793945</ele>
        <time>2010-04-01T13:12:55Z</time>
      </trkpt>
      <trkpt lat="45.08827" lon="5.60366">
        <ele>1498.351807</ele>
        <time>2010-04-01T13:13:00Z</time>
      </trkpt>
      <trkpt lat="45.08829" lon="5.60361">
        <ele>1496.909912</ele>
        <time>2010-04-01T13:13:05Z</time>
      </trkpt>
      <trkpt lat="45.0883" lon="5.60353">
        <ele>1498.351807</ele>
        <time>2010-04-01T13:13:12Z</time>
      </trkpt>
      <trkpt lat="45.08831" lon="5.60341">
        <ele>1498.351807</ele>
        <time>2010-04-01T13:13:18Z</time>
      </trkpt>
      <trkpt lat="45.08832" lon="5.60336">
        <ele>1496.429443</ele>
        <time>2010-04-01T13:13:23Z</time>
      </trkpt>
      <trkpt lat="45.08834" lon="5.60331">
        <ele>1495.468018</ele>
        <time>2010-04-01T13:13:29Z</time>
      </trkpt>
      <trkpt lat="45.08836" lon="5.6032">
        <ele>1495.94873</ele>
        <time>2010-04-01T13:13:34Z</time>
      </trkpt>
      <trkpt lat="45.08837" lon="5.60311">
        <ele>1495.468018</ele>
        <time>2010-04-01T13:13:40Z</time>
      </trkpt>
      <trkpt lat="45.08839" lon="5.60303">
        <ele>1495.468018</ele>
        <time>2010-04-01T13:13:45Z</time>
      </trkpt>
      <trkpt lat="45.0884" lon="5.60293">
        <ele>1494.506592</ele>
        <time>2010-04-01T13:13:50Z</time>
      </trkpt>
      <trkpt lat="45.08844" lon="5.60281">
        <ele>1492.584229</ele>
        <time>2010-04-01T13:13:54Z</time>
      </trkpt>
      <trkpt lat="45.08847" lon="5.60273">
        <ele>1492.103516</ele>
        <time>2010-04-01T13:13:57Z</time>
      </trkpt>
      <trkpt lat="45.08853" lon="5.60273">
        <ele>1489.219482</ele>
        <time>2010-04-01T13:14:02Z</time>
      </trkpt>
      <trkpt lat="45.08854" lon="5.60273">
        <ele>1490.180908</ele>
        <time>2010-04-01T13:14:03Z</time>
      </trkpt>
      <trkpt lat="45.08865" lon="5.60269">
        <ele>1487.777588</ele>
        <time>2010-04-01T13:14:08Z</time>
      </trkpt>
      <trkpt lat="45.08881" lon="5.60258">
        <ele>1483.451416</ele>
        <time>2010-04-01T13:14:13Z</time>
      </trkpt>
      <trkpt lat="45.08891" lon="5.60251">
        <ele>1483.451416</ele>
        <time>2010-04-01T13:14:17Z</time>
      </trkpt>
      <trkpt lat="45.08894" lon="5.60249">
        <ele>1483.451416</ele>
        <time>2010-04-01T13:14:18Z</time>
      </trkpt>
      <trkpt lat="45.08905" lon="5.6024">
        <ele>1479.125488</ele>
        <time>2010-04-01T13:14:24Z</time>
      </trkpt>
      <trkpt lat="45.08908" lon="5.60242">
        <ele>1476.241699</ele>
        <time>2010-04-01T13:14:25Z</time>
      </trkpt>
      <trkpt lat="45.08914" lon="5.60252">
        <ele>1472.396484</ele>
        <time>2010-04-01T13:14:30Z</time>
      </trkpt>
      <trkpt lat="45.08928" lon="5.6026">
        <ele>1469.512695</ele>
        <time>2010-04-01T13:14:35Z</time>
      </trkpt>
      <trkpt lat="45.08933" lon="5.60258">
        <ele>1471.915771</ele>
        <time>2010-04-01T13:14:37Z</time>
      </trkpt>
      <trkpt lat="45.0894" lon="5.60254">
        <ele>1474.319092</ele>
        <time>2010-04-01T13:14:43Z</time>
      </trkpt>
      <trkpt lat="45.08943" lon="5.60253">
        <ele>1473.35791</ele>
        <time>2010-04-01T13:14:49Z</time>
      </trkpt>
      <trkpt lat="45.0895" lon="5.60247">
        <ele>1473.838379</ele>
        <time>2010-04-01T13:14:57Z</time>
      </trkpt>
      <trkpt lat="45.08954" lon="5.60242">
        <ele>1476.722412</ele>
        <time>2010-04-01T13:15:01Z</time>
      </trkpt>
      <trkpt lat="45.08956" lon="5.60242">
        <ele>1478.164307</ele>
        <time>2010-04-01T13:15:07Z</time>
      </trkpt>
      <trkpt lat="45.08957" lon="5.60244">
        <ele>1477.683594</ele>
        <time>2010-04-01T13:15:13Z</time>
      </trkpt>
      <trkpt lat="45.08958" lon="5.60246">
        <ele>1477.203125</ele>
        <time>2010-04-01T13:15:19Z</time>
      </trkpt>
      <trkpt lat="45.0896" lon="5.60247">
        <ele>1476.722412</ele>
        <time>2010-04-01T13:15:22Z</time>
      </trkpt>
      <trkpt lat="45.08962" lon="5.60248">
        <ele>1477.683594</ele>
        <time>2010-04-01T13:15:25Z</time>
      </trkpt>
      <trkpt lat="45.08965" lon="5.60248">
        <ele>1478.164307</ele>
        <time>2010-04-01T13:15:28Z</time>
      </trkpt>
      <trkpt lat="45.08968" lon="5.60251">
        <ele>1477.203125</ele>
        <time>2010-04-01T13:15:32Z</time>
      </trkpt>
      <trkpt lat="45.0897" lon="5.60251">
        <ele>1477.683594</ele>
        <time>2010-04-01T13:15:36Z</time>
      </trkpt>
      <trkpt lat="45.08974" lon="5.60253">
        <ele>1476.241699</ele>
        <time>2010-04-01T13:15:41Z</time>
      </trkpt>
      <trkpt lat="45.08977" lon="5.60254">
        <ele>1474.799805</ele>
        <time>2010-04-01T13:15:45Z</time>
      </trkpt>
      <trkpt lat="45.08981" lon="5.60255">
        <ele>1475.280273</ele>
        <time>2010-04-01T13:15:51Z</time>
      </trkpt>
      <trkpt lat="45.08984" lon="5.60256">
        <ele>1477.203125</ele>
        <time>2010-04-01T13:15:57Z</time>
      </trkpt>
      <trkpt lat="45.08989" lon="5.60257">
        <ele>1476.722412</ele>
        <time>2010-04-01T13:16:03Z</time>
      </trkpt>
      <trkpt lat="45.0899" lon="5.60258">
        <ele>1477.683594</ele>
        <time>2010-04-01T13:16:07Z</time>
      </trkpt>
      <trkpt lat="45.08994" lon="5.60259">
        <ele>1477.683594</ele>
        <time>2010-04-01T13:16:12Z</time>
      </trkpt>
      <trkpt lat="45.09002" lon="5.60261">
        <ele>1477.683594</ele>
        <time>2010-04-01T13:16:20Z</time>
      </trkpt>
      <trkpt lat="45.09005" lon="5.60261">
        <ele>1478.64502</ele>
        <time>2010-04-01T13:16:24Z</time>
      </trkpt>
      <trkpt lat="45.09011" lon="5.60261">
        <ele>1478.64502</ele>
        <time>2010-04-01T13:16:29Z</time>
      </trkpt>
      <trkpt lat="45.09015" lon="5.6026">
        <ele>1477.683594</ele>
        <time>2010-04-01T13:16:33Z</time>
      </trkpt>
      <trkpt lat="45.0902" lon="5.60259">
        <ele>1477.683594</ele>
        <time>2010-04-01T13:16:38Z</time>
      </trkpt>
      <trkpt lat="45.09025" lon="5.60258">
        <ele>1476.241699</ele>
        <time>2010-04-01T13:16:43Z</time>
      </trkpt>
      <trkpt lat="45.09031" lon="5.60256">
        <ele>1476.241699</ele>
        <time>2010-04-01T13:16:48Z</time>
      </trkpt>
      <trkpt lat="45.09039" lon="5.60253">
        <ele>1475.760986</ele>
        <time>2010-04-01T13:16:52Z</time>
      </trkpt>
      <trkpt lat="45.09046" lon="5.60249">
        <ele>1475.280273</ele>
        <time>2010-04-01T13:16:55Z</time>
      </trkpt>
      <trkpt lat="45.09054" lon="5.6024">
        <ele>1476.241699</ele>
        <time>2010-04-01T13:16:59Z</time>
      </trkpt>
      <trkpt lat="45.09058" lon="5.60237">
        <ele>1475.280273</ele>
        <time>2010-04-01T13:17:03Z</time>
      </trkpt>
      <trkpt lat="45.0906" lon="5.60237">
        <ele>1476.241699</ele>
        <time>2010-04-01T13:17:12Z</time>
      </trkpt>
      <trkpt lat="45.09062" lon="5.60236">
        <ele>1475.280273</ele>
        <time>2010-04-01T13:17:18Z</time>
      </trkpt>
      <trkpt lat="45.09066" lon="5.60232">
        <ele>1475.760986</ele>
        <time>2010-04-01T13:17:23Z</time>
      </trkpt>
      <trkpt lat="45.0907" lon="5.6023">
        <ele>1475.280273</ele>
        <time>2010-04-01T13:17:27Z</time>
      </trkpt>
      <trkpt lat="45.09074" lon="5.60227">
        <ele>1475.280273</ele>
        <time>2010-04-01T13:17:32Z</time>
      </trkpt>
      <trkpt lat="45.09078" lon="5.60225">
        <ele>1474.799805</ele>
        <time>2010-04-01T13:17:37Z</time>
      </trkpt>
      <trkpt lat="45.09081" lon="5.60222">
        <ele>1474.799805</ele>
        <time>2010-04-01T13:17:43Z</time>
      </trkpt>
      <trkpt lat="45.09084" lon="5.60221">
        <ele>1473.838379</ele>
        <time>2010-04-01T13:17:47Z</time>
      </trkpt>
      <trkpt lat="45.09087" lon="5.60219">
        <ele>1473.35791</ele>
        <time>2010-04-01T13:17:51Z</time>
      </trkpt>
      <trkpt lat="45.0909" lon="5.60217">
        <ele>1474.319092</ele>
        <time>2010-04-01T13:17:57Z</time>
      </trkpt>
      <trkpt lat="45.09093" lon="5.60216">
        <ele>1474.319092</ele>
        <time>2010-04-01T13:18:02Z</time>
      </trkpt>
      <trkpt lat="45.09098" lon="5.60213">
        <ele>1475.760986</ele>
        <time>2010-04-01T13:18:09Z</time>
      </trkpt>
      <trkpt lat="45.09101" lon="5.6021">
        <ele>1475.760986</ele>
        <time>2010-04-01T13:18:15Z</time>
      </trkpt>
      <trkpt lat="45.09105" lon="5.60207">
        <ele>1476.241699</ele>
        <time>2010-04-01T13:18:20Z</time>
      </trkpt>
      <trkpt lat="45.09109" lon="5.60202">
        <ele>1477.203125</ele>
        <time>2010-04-01T13:18:25Z</time>
      </trkpt>
      <trkpt lat="45.09115" lon="5.60196">
        <ele>1477.203125</ele>
        <time>2010-04-01T13:18:29Z</time>
      </trkpt>
      <trkpt lat="45.09125" lon="5.60185">
        <ele>1476.241699</ele>
        <time>2010-04-01T13:18:34Z</time>
      </trkpt>
      <trkpt lat="45.09129" lon="5.60179">
        <ele>1474.799805</ele>
        <time>2010-04-01T13:18:36Z</time>
      </trkpt>
      <trkpt lat="45.09135" lon="5.60171">
        <ele>1473.35791</ele>
        <time>2010-04-01T13:18:41Z</time>
      </trkpt>
      <trkpt lat="45.09138" lon="5.60169">
        <ele>1473.35791</ele>
        <time>2010-04-01T13:18:50Z</time>
      </trkpt>
      <trkpt lat="45.09142" lon="5.60167">
        <ele>1473.35791</ele>
        <time>2010-04-01T13:18:54Z</time>
      </trkpt>
      <trkpt lat="45.09145" lon="5.60166">
        <ele>1473.35791</ele>
        <time>2010-04-01T13:18:58Z</time>
      </trkpt>
      <trkpt lat="45.09147" lon="5.60166">
        <ele>1472.877197</ele>
        <time>2010-04-01T13:19:00Z</time>
      </trkpt>
      <trkpt lat="45.09153" lon="5.60169">
        <ele>1472.877197</ele>
        <time>2010-04-01T13:19:06Z</time>
      </trkpt>
      <trkpt lat="45.09157" lon="5.60173">
        <ele>1472.877197</ele>
        <time>2010-04-01T13:19:11Z</time>
      </trkpt>
      <trkpt lat="45.09162" lon="5.60177">
        <ele>1472.877197</ele>
        <time>2010-04-01T13:19:17Z</time>
      </trkpt>
      <trkpt lat="45.09163" lon="5.60178">
        <ele>1472.396484</ele>
        <time>2010-04-01T13:19:18Z</time>
      </trkpt>
      <trkpt lat="45.09168" lon="5.60185">
        <ele>1471.915771</ele>
        <time>2010-04-01T13:19:24Z</time>
      </trkpt>
      <trkpt lat="45.09173" lon="5.6019">
        <ele>1470.95459</ele>
        <time>2010-04-01T13:19:31Z</time>
      </trkpt>
      <trkpt lat="45.09177" lon="5.60195">
        <ele>1471.915771</ele>
        <time>2010-04-01T13:19:38Z</time>
      </trkpt>
      <trkpt lat="45.09182" lon="5.60198">
        <ele>1472.396484</ele>
        <time>2010-04-01T13:19:43Z</time>
      </trkpt>
      <trkpt lat="45.09185" lon="5.60201">
        <ele>1471.915771</ele>
        <time>2010-04-01T13:19:46Z</time>
      </trkpt>
      <trkpt lat="45.09191" lon="5.60206">
        <ele>1469.993164</ele>
        <time>2010-04-01T13:19:52Z</time>
      </trkpt>
      <trkpt lat="45.09192" lon="5.60206">
        <ele>1469.993164</ele>
        <time>2010-04-01T13:19:53Z</time>
      </trkpt>
      <trkpt lat="45.09194" lon="5.60208">
        <ele>1469.512695</ele>
        <time>2010-04-01T13:19:56Z</time>
      </trkpt>
      <trkpt lat="45.09198" lon="5.60212">
        <ele>1469.512695</ele>
        <time>2010-04-01T13:20:02Z</time>
      </trkpt>
      <trkpt lat="45.09202" lon="5.60215">
        <ele>1470.95459</ele>
        <time>2010-04-01T13:20:08Z</time>
      </trkpt>
      <trkpt lat="45.09206" lon="5.60219">
        <ele>1469.993164</ele>
        <time>2010-04-01T13:20:14Z</time>
      </trkpt>
      <trkpt lat="45.09211" lon="5.60223">
        <ele>1471.915771</ele>
        <time>2010-04-01T13:20:20Z</time>
      </trkpt>
      <trkpt lat="45.09217" lon="5.60228">
        <ele>1472.396484</ele>
        <time>2010-04-01T13:20:24Z</time>
      </trkpt>
      <trkpt lat="45.0922" lon="5.6023">
        <ele>1473.35791</ele>
        <time>2010-04-01T13:20:28Z</time>
      </trkpt>
      <trkpt lat="45.09227" lon="5.60234">
        <ele>1474.799805</ele>
        <time>2010-04-01T13:20:35Z</time>
      </trkpt>
      <trkpt lat="45.09229" lon="5.60234">
        <ele>1475.280273</ele>
        <time>2010-04-01T13:20:37Z</time>
      </trkpt>
      <trkpt lat="45.09237" lon="5.60234">
        <ele>1476.722412</ele>
        <time>2010-04-01T13:20:43Z</time>
      </trkpt>
      <trkpt lat="45.09243" lon="5.60234">
        <ele>1474.319092</ele>
        <time>2010-04-01T13:20:50Z</time>
      </trkpt>
      <trkpt lat="45.09249" lon="5.60236">
        <ele>1473.838379</ele>
        <time>2010-04-01T13:20:55Z</time>
      </trkpt>
      <trkpt lat="45.09255" lon="5.60238">
        <ele>1472.877197</ele>
        <time>2010-04-01T13:20:59Z</time>
      </trkpt>
      <trkpt lat="45.09261" lon="5.6024">
        <ele>1472.396484</ele>
        <time>2010-04-01T13:21:03Z</time>
      </trkpt>
      <trkpt lat="45.09266" lon="5.60241">
        <ele>1474.319092</ele>
        <time>2010-04-01T13:21:09Z</time>
      </trkpt>
      <trkpt lat="45.09274" lon="5.60245">
        <ele>1473.838379</ele>
        <time>2010-04-01T13:21:17Z</time>
      </trkpt>
      <trkpt lat="45.09284" lon="5.60249">
        <ele>1470.473877</ele>
        <time>2010-04-01T13:21:21Z</time>
      </trkpt>
      <trkpt lat="45.09299" lon="5.60253">
        <ele>1468.55127</ele>
        <time>2010-04-01T13:21:26Z</time>
      </trkpt>
      <trkpt lat="45.09301" lon="5.60255">
        <ele>1467.109131</ele>
        <time>2010-04-01T13:21:28Z</time>
      </trkpt>
      <trkpt lat="45.09308" lon="5.60257">
        <ele>1467.5896</ele>
        <time>2010-04-01T13:21:36Z</time>
      </trkpt>
      <trkpt lat="45.09312" lon="5.60261">
        <ele>1465.667236</ele>
        <time>2010-04-01T13:21:42Z</time>
      </trkpt>
      <trkpt lat="45.09316" lon="5.60265">
        <ele>1466.628418</ele>
        <time>2010-04-01T13:21:47Z</time>
      </trkpt>
      <trkpt lat="45.09321" lon="5.60267">
        <ele>1466.628418</ele>
        <time>2010-04-01T13:21:52Z</time>
      </trkpt>
      <trkpt lat="45.09325" lon="5.60272">
        <ele>1467.109131</ele>
        <time>2010-04-01T13:21:58Z</time>
      </trkpt>
      <trkpt lat="45.09329" lon="5.60277">
        <ele>1467.5896</ele>
        <time>2010-04-01T13:22:03Z</time>
      </trkpt>
      <trkpt lat="45.09334" lon="5.60284">
        <ele>1463.263916</ele>
        <time>2010-04-01T13:22:09Z</time>
      </trkpt>
      <trkpt lat="45.09339" lon="5.6029">
        <ele>1463.744385</ele>
        <time>2010-04-01T13:22:17Z</time>
      </trkpt>
      <trkpt lat="45.09342" lon="5.60291">
        <ele>1462.30249</ele>
        <time>2010-04-01T13:22:36Z</time>
      </trkpt>
      <trkpt lat="45.09346" lon="5.60297">
        <ele>1460.860596</ele>
        <time>2010-04-01T13:22:42Z</time>
      </trkpt>
      <trkpt lat="45.09351" lon="5.60303">
        <ele>1461.341309</ele>
        <time>2010-04-01T13:22:48Z</time>
      </trkpt>
      <trkpt lat="45.09354" lon="5.60307">
        <ele>1461.341309</ele>
        <time>2010-04-01T13:22:53Z</time>
      </trkpt>
      <trkpt lat="45.09355" lon="5.60307">
        <ele>1461.822021</ele>
        <time>2010-04-01T13:23:00Z</time>
      </trkpt>
      <trkpt lat="45.09357" lon="5.60311">
        <ele>1464.705811</ele>
        <time>2010-04-01T13:23:16Z</time>
      </trkpt>
      <trkpt lat="45.09373" lon="5.60306">
        <ele>1465.186523</ele>
        <time>2010-04-01T13:23:22Z</time>
      </trkpt>
      <trkpt lat="45.09384" lon="5.60305">
        <ele>1464.225098</ele>
        <time>2010-04-01T13:23:26Z</time>
      </trkpt>
      <trkpt lat="45.09398" lon="5.60309">
        <ele>1460.860596</ele>
        <time>2010-04-01T13:23:30Z</time>
      </trkpt>
      <trkpt lat="45.0942" lon="5.60306">
        <ele>1457.976807</ele>
        <time>2010-04-01T13:23:35Z</time>
      </trkpt>
      <trkpt lat="45.09449" lon="5.6029">
        <ele>1451.728027</ele>
        <time>2010-04-01T13:23:40Z</time>
      </trkpt>
      <trkpt lat="45.09462" lon="5.60281">
        <ele>1450.286133</ele>
        <time>2010-04-01T13:23:42Z</time>
      </trkpt>
      <trkpt lat="45.09484" lon="5.60268">
        <ele>1445.960205</ele>
        <time>2010-04-01T13:23:46Z</time>
      </trkpt>
      <trkpt lat="45.09498" lon="5.60268">
        <ele>1441.634277</ele>
        <time>2010-04-01T13:23:49Z</time>
      </trkpt>
      <trkpt lat="45.09521" lon="5.60276">
        <ele>1435.866211</ele>
        <time>2010-04-01T13:23:54Z</time>
      </trkpt>
      <trkpt lat="45.09554" lon="5.60276">
        <ele>1430.098389</ele>
        <time>2010-04-01T13:24:00Z</time>
      </trkpt>
      <trkpt lat="45.09582" lon="5.60281">
        <ele>1426.253174</ele>
        <time>2010-04-01T13:24:05Z</time>
      </trkpt>
      <trkpt lat="45.0961" lon="5.60288">
        <ele>1422.888672</ele>
        <time>2010-04-01T13:24:10Z</time>
      </trkpt>
      <trkpt lat="45.09617" lon="5.60289">
        <ele>1421.446533</ele>
        <time>2010-04-01T13:24:12Z</time>
      </trkpt>
      <trkpt lat="45.09628" lon="5.60292">
        <ele>1420.004639</ele>
        <time>2010-04-01T13:24:16Z</time>
      </trkpt>
      <trkpt lat="45.09634" lon="5.60295">
        <ele>1419.043213</ele>
        <time>2010-04-01T13:24:19Z</time>
      </trkpt>
      <trkpt lat="45.09636" lon="5.60294">
        <ele>1419.523926</ele>
        <time>2010-04-01T13:24:25Z</time>
      </trkpt>
      <trkpt lat="45.09635" lon="5.60294">
        <ele>1420.966064</ele>
        <time>2010-04-01T13:24:38Z</time>
      </trkpt>
      <trkpt lat="45.09636" lon="5.60294">
        <ele>1422.407959</ele>
        <time>2010-04-01T13:24:47Z</time>
      </trkpt>
      <trkpt lat="45.09635" lon="5.60293">
        <ele>1425.291748</ele>
        <time>2010-04-01T13:25:00Z</time>
      </trkpt>
      <trkpt lat="45.09635" lon="5.60294">
        <ele>1424.811279</ele>
        <time>2010-04-01T13:25:13Z</time>
      </trkpt>
      <trkpt lat="45.09636" lon="5.60294">
        <ele>1424.330566</ele>
        <time>2010-04-01T13:25:23Z</time>
      </trkpt>
      <trkpt lat="45.09641" lon="5.60292">
        <ele>1422.888672</ele>
        <time>2010-04-01T13:25:28Z</time>
      </trkpt>
      <trkpt lat="45.09658" lon="5.60293">
        <ele>1419.523926</ele>
        <time>2010-04-01T13:25:34Z</time>
      </trkpt>
      <trkpt lat="45.09686" lon="5.60298">
        <ele>1415.678711</ele>
        <time>2010-04-01T13:25:40Z</time>
      </trkpt>
      <trkpt lat="45.09691" lon="5.60298">
        <ele>1415.197998</ele>
        <time>2010-04-01T13:25:41Z</time>
      </trkpt>
      <trkpt lat="45.09712" lon="5.60303">
        <ele>1411.833496</ele>
        <time>2010-04-01T13:25:45Z</time>
      </trkpt>
      <trkpt lat="45.09742" lon="5.60306">
        <ele>1405.584961</ele>
        <time>2010-04-01T13:25:50Z</time>
      </trkpt>
      <trkpt lat="45.09747" lon="5.6031">
        <ele>1404.143066</ele>
        <time>2010-04-01T13:25:54Z</time>
      </trkpt>
      <trkpt lat="45.09747" lon="5.60311">
        <ele>1403.181396</ele>
        <time>2010-04-01T13:26:08Z</time>
      </trkpt>
      <trkpt lat="45.09755" lon="5.60309">
        <ele>1402.700684</ele>
        <time>2010-04-01T13:26:11Z</time>
      </trkpt>
      <trkpt lat="45.09774" lon="5.60302">
        <ele>1400.297607</ele>
        <time>2010-04-01T13:26:15Z</time>
      </trkpt>
      <trkpt lat="45.09784" lon="5.60301">
        <ele>1398.855469</ele>
        <time>2010-04-01T13:26:18Z</time>
      </trkpt>
      <trkpt lat="45.09789" lon="5.60303">
        <ele>1398.855469</ele>
        <time>2010-04-01T13:26:22Z</time>
      </trkpt>
      <trkpt lat="45.09789" lon="5.60303">
        <ele>1397.894287</ele>
        <time>2010-04-01T13:26:31Z</time>
      </trkpt>
      <trkpt lat="45.0979" lon="5.60303">
        <ele>1398.855469</ele>
        <time>2010-04-01T13:26:40Z</time>
      </trkpt>
      <trkpt lat="45.0979" lon="5.60303">
        <ele>1398.374756</ele>
        <time>2010-04-01T13:26:45Z</time>
      </trkpt>
      <trkpt lat="45.0979" lon="5.60303">
        <ele>1397.894287</ele>
        <time>2010-04-01T13:26:47Z</time>
      </trkpt>
      <trkpt lat="45.09801" lon="5.603">
        <ele>1394.529541</ele>
        <time>2010-04-01T13:26:51Z</time>
      </trkpt>
      <trkpt lat="45.09817" lon="5.60297">
        <ele>1391.165039</ele>
        <time>2010-04-01T13:26:55Z</time>
      </trkpt>
      <trkpt lat="45.0983" lon="5.60292">
        <ele>1387.800293</ele>
        <time>2010-04-01T13:27:00Z</time>
      </trkpt>
      <trkpt lat="45.09851" lon="5.60286">
        <ele>1384.916504</ele>
        <time>2010-04-01T13:27:06Z</time>
      </trkpt>
      <trkpt lat="45.09872" lon="5.60285">
        <ele>1382.513184</ele>
        <time>2010-04-01T13:27:10Z</time>
      </trkpt>
      <trkpt lat="45.09901" lon="5.60287">
        <ele>1377.226074</ele>
        <time>2010-04-01T13:27:15Z</time>
      </trkpt>
      <trkpt lat="45.09911" lon="5.60288">
        <ele>1373.380859</ele>
        <time>2010-04-01T13:27:18Z</time>
      </trkpt>
      <trkpt lat="45.09926" lon="5.60287">
        <ele>1370.015869</ele>
        <time>2010-04-01T13:27:23Z</time>
      </trkpt>
      <trkpt lat="45.09959" lon="5.60292">
        <ele>1367.13208</ele>
        <time>2010-04-01T13:27:32Z</time>
      </trkpt>
      <trkpt lat="45.09986" lon="5.60296">
        <ele>1364.248047</ele>
        <time>2010-04-01T13:27:38Z</time>
      </trkpt>
      <trkpt lat="45.1003" lon="5.60303">
        <ele>1358.960938</ele>
        <time>2010-04-01T13:27:46Z</time>
      </trkpt>
      <trkpt lat="45.10038" lon="5.60304">
        <ele>1357.519043</ele>
        <time>2010-04-01T13:27:48Z</time>
      </trkpt>
      <trkpt lat="45.1005" lon="5.60305">
        <ele>1356.557617</ele>
        <time>2010-04-01T13:27:53Z</time>
      </trkpt>
      <trkpt lat="45.10061" lon="5.60304">
        <ele>1353.673584</ele>
        <time>2010-04-01T13:27:57Z</time>
      </trkpt>
      <trkpt lat="45.10079" lon="5.60304">
        <ele>1352.231445</ele>
        <time>2010-04-01T13:28:03Z</time>
      </trkpt>
      <trkpt lat="45.10102" lon="5.60306">
        <ele>1350.789551</ele>
        <time>2010-04-01T13:28:10Z</time>
      </trkpt>
      <trkpt lat="45.10113" lon="5.6031">
        <ele>1350.789551</ele>
        <time>2010-04-01T13:28:13Z</time>
      </trkpt>
      <trkpt lat="45.10115" lon="5.6031">
        <ele>1351.270264</ele>
        <time>2010-04-01T13:28:17Z</time>
      </trkpt>
      <trkpt lat="45.10116" lon="5.6031">
        <ele>1351.270264</ele>
        <time>2010-04-01T13:28:31Z</time>
      </trkpt>
      <trkpt lat="45.10117" lon="5.60311">
        <ele>1351.270264</ele>
        <time>2010-04-01T13:28:32Z</time>
      </trkpt>
      <trkpt lat="45.10129" lon="5.60309">
        <ele>1349.828369</ele>
        <time>2010-04-01T13:28:38Z</time>
      </trkpt>
      <trkpt lat="45.10142" lon="5.60309">
        <ele>1347.425049</ele>
        <time>2010-04-01T13:28:44Z</time>
      </trkpt>
      <trkpt lat="45.1015" lon="5.60308">
        <ele>1346.463867</ele>
        <time>2010-04-01T13:28:48Z</time>
      </trkpt>
      <trkpt lat="45.10163" lon="5.60308">
        <ele>1344.541016</ele>
        <time>2010-04-01T13:28:53Z</time>
      </trkpt>
      <trkpt lat="45.10177" lon="5.60306">
        <ele>1341.176514</ele>
        <time>2010-04-01T13:28:57Z</time>
      </trkpt>
      <trkpt lat="45.10183" lon="5.60305">
        <ele>1338.29248</ele>
        <time>2010-04-01T13:28:59Z</time>
      </trkpt>
      <trkpt lat="45.10206" lon="5.60305">
        <ele>1331.563232</ele>
        <time>2010-04-01T13:29:04Z</time>
      </trkpt>
      <trkpt lat="45.10242" lon="5.60313">
        <ele>1327.718018</ele>
        <time>2010-04-01T13:29:10Z</time>
      </trkpt>
      <trkpt lat="45.1027" lon="5.60319">
        <ele>1323.872559</ele>
        <time>2010-04-01T13:29:15Z</time>
      </trkpt>
      <trkpt lat="45.10295" lon="5.60321">
        <ele>1320.98877</ele>
        <time>2010-04-01T13:29:20Z</time>
      </trkpt>
      <trkpt lat="45.1032" lon="5.60317">
        <ele>1314.259521</ele>
        <time>2010-04-01T13:29:26Z</time>
      </trkpt>
      <trkpt lat="45.10327" lon="5.60317">
        <ele>1309.453125</ele>
        <time>2010-04-01T13:29:28Z</time>
      </trkpt>
      <trkpt lat="45.10345" lon="5.6032">
        <ele>1311.375732</ele>
        <time>2010-04-01T13:29:34Z</time>
      </trkpt>
      <trkpt lat="45.10362" lon="5.60325">
        <ele>1316.662842</ele>
        <time>2010-04-01T13:29:39Z</time>
      </trkpt>
      <trkpt lat="45.10386" lon="5.60333">
        <ele>1314.740234</ele>
        <time>2010-04-01T13:29:45Z</time>
      </trkpt>
      <trkpt lat="45.10409" lon="5.60339">
        <ele>1313.778809</ele>
        <time>2010-04-01T13:29:50Z</time>
      </trkpt>
      <trkpt lat="45.10427" lon="5.6034">
        <ele>1311.856445</ele>
        <time>2010-04-01T13:29:55Z</time>
      </trkpt>
      <trkpt lat="45.10439" lon="5.60341">
        <ele>1309.453125</ele>
        <time>2010-04-01T13:30:00Z</time>
      </trkpt>
      <trkpt lat="45.10445" lon="5.60341">
        <ele>1308.972412</ele>
        <time>2010-04-01T13:30:03Z</time>
      </trkpt>
      <trkpt lat="45.10461" lon="5.60341">
        <ele>1307.049561</ele>
        <time>2010-04-01T13:30:11Z</time>
      </trkpt>
      <trkpt lat="45.10486" lon="5.60342">
        <ele>1306.088135</ele>
        <time>2010-04-01T13:30:19Z</time>
      </trkpt>
      <trkpt lat="45.1051" lon="5.60346">
        <ele>1306.568848</ele>
        <time>2010-04-01T13:30:24Z</time>
      </trkpt>
      <trkpt lat="45.10538" lon="5.60351">
        <ele>1307.049561</ele>
        <time>2010-04-01T13:30:29Z</time>
      </trkpt>
      <trkpt lat="45.10577" lon="5.60356">
        <ele>1306.088135</ele>
        <time>2010-04-01T13:30:36Z</time>
      </trkpt>
      <trkpt lat="45.10605" lon="5.60361">
        <ele>1300.320557</ele>
        <time>2010-04-01T13:30:41Z</time>
      </trkpt>
      <trkpt lat="45.10636" lon="5.60362">
        <ele>1296.475342</ele>
        <time>2010-04-01T13:30:47Z</time>
      </trkpt>
      <trkpt lat="45.1065" lon="5.60361">
        <ele>1293.591309</ele>
        <time>2010-04-01T13:30:50Z</time>
      </trkpt>
      <trkpt lat="45.10685" lon="5.60356">
        <ele>1286.381348</ele>
        <time>2010-04-01T13:30:57Z</time>
      </trkpt>
      <trkpt lat="45.10688" lon="5.60355">
        <ele>1285.419922</ele>
        <time>2010-04-01T13:30:58Z</time>
      </trkpt>
      <trkpt lat="45.10699" lon="5.60352">
        <ele>1281.574707</ele>
        <time>2010-04-01T13:31:05Z</time>
      </trkpt>
      <trkpt lat="45.107" lon="5.60352">
        <ele>1285.419922</ele>
        <time>2010-04-01T13:31:13Z</time>
      </trkpt>
      <trkpt lat="45.10706" lon="5.60353">
        <ele>1288.784668</ele>
        <time>2010-04-01T13:32:08Z</time>
      </trkpt>
      <trkpt lat="45.10706" lon="5.60353">
        <ele>1293.591309</ele>
        <time>2010-04-01T13:32:17Z</time>
      </trkpt>
      <trkpt lat="45.10705" lon="5.60356">
        <ele>1293.110596</ele>
        <time>2010-04-01T13:32:31Z</time>
      </trkpt>
      <trkpt lat="45.10708" lon="5.60362">
        <ele>1294.072021</ele>
        <time>2010-04-01T13:32:36Z</time>
      </trkpt>
      <trkpt lat="45.10708" lon="5.60364">
        <ele>1292.630127</ele>
        <time>2010-04-01T13:32:37Z</time>
      </trkpt>
      <trkpt lat="45.1071" lon="5.60372">
        <ele>1289.265137</ele>
        <time>2010-04-01T13:32:43Z</time>
      </trkpt>
      <trkpt lat="45.10709" lon="5.60374">
        <ele>1285.900635</ele>
        <time>2010-04-01T13:32:50Z</time>
      </trkpt>
      <trkpt lat="45.10709" lon="5.60374">
        <ele>1283.497314</ele>
        <time>2010-04-01T13:33:00Z</time>
      </trkpt>
    </trkseg>
  </trk>
</gpx>